[[{"header":{"parameterUnit":"m.s-1","parameterCategory":1,"la1":31.0,"la2":29.5877,"lo1":-88.7671,"lo2":-86.6584,"dy":0.0162,"dx":0.0185,"nx":115,"ny":88,"refTime":"2025-04-13T12:00:00:Z","depth":0,"parameterNumber":2,"parameterNumberName":"U-component_of_WINDS"},"data":[0.0,0.0,0.0,0.0,0.0,0.0,0.0,0.0,0.0,0.0,0.0,0.0,0.0,0.0,0.0,0.0,0.0,0.0,0.0,0.0,0.0,0.0,0.0,0.0,0.0,0.0,0.0,0.0,0.0,0.0,0.0,0.0,0.0,0.0,0.0,0.0,0.0,0.0,0.0,0.0,0.0,0.0,0.0,0.0,0.0,0.0,0.0,0.0,0.0,0.0,0.0,0.0,0.0,0.0,0.0,0.0,0.0,0.0,0.0,0.0,0.0,0.0,0.0,0.0,0.0,0.0,0.0,0.0,0.0,0.0,0.0,0.0,0.0,0.0,0.0,0.0,0.0,0.0,0.0,0.0,0.0,0.0,0.0,0.0,0.0,0.0,0.0,0.0,0.0,0.0,0.0,0.0,0.0,0.0,0.0,0.0,0.0,0.0,0.0,0.0,0.0,0.0,0.0,0.0,0.0,0.0,0.0,0.0,0.0,0.0,0.0,0.0,0.0,0.0,0.0,0.0,0.0,0.0,0.0,0.0,0.0,0.0,0.0,0.0,0.0,0.0,0.0,0.0,0.0,0.0,0.0,0.0,0.0,0.0,0.0,0.0,0.0,0.0,0.0,0.0,0.0,0.0,0.0,0.0,0.0,0.0,0.0,0.0,0.0,0.0,0.0,0.0,0.0,0.0,0.0,0.0,0.0,0.0,0.0,0.0,0.0,0.0,0.0,0.0,0.0,0.0,0.0,0.0,0.0,0.0,0.0,0.0,0.0,0.0,0.0,0.0,0.0,0.0,0.0,0.0,0.0,0.0,0.0,0.0,0.0,0.0,0.0,0.0,0.0,0.0,0.0,0.0,0.0,0.0,0.0,0.0,0.0,0.0,0.0,0.0,0.0,0.0,0.0,0.0,0.0,0.0,0.0,0.0,0.0,0.0,0.0,0.0,0.0,0.0,0.0,0.0,0.0,0.0,0.0,0.0,0.0,0.0,0.0,0.0,0.0,0.0,0.0,0.0,0.0,0.0,0.0,0.0,0.0,0.0,0.0,0.0,0.0,0.0,0.0,0.0,0.0,0.0,0.0,0.0,0.0,0.0,0.0,0.0,0.0,0.0,0.0,0.0,0.0,0.0,0.0,0.0,0.0,0.0,0.0,0.0,0.0,0.0,0.0,0.0,0.0,0.0,0.0,0.0,0.0,0.0,0.0,0.0,0.0,0.0,0.0,0.0,0.0,0.0,0.0,0.0,0.0,0.0,0.0,0.0,0.0,0.0,0.0,0.0,0.0,0.0,0.0,0.0,0.0,0.0,0.0,0.0,0.0,0.0,0.0,0.0,0.0,0.0,0.0,0.0,0.0,0.0,0.0,0.0,0.0,0.0,0.0,0.0,0.0,0.0,0.0,0.0,0.0,0.0,0.0,0.0,0.0,0.0,0.0,0.0,0.0,0.0,0.0,0.0,0.0,0.0,0.0,0.0,0.0,0.0,0.0,0.0,0.0,0.0,0.0,0.0,0.0,0.0,0.0,0.0,0.0,0.0,0.0,0.0,0.0,0.0,0.0,0.0,0.0,0.0,0.0,0.0,0.0,0.0,0.0,0.0,0.0,0.0,0.0,0.0,0.0,0.0,0.0,0.0,0.0,0.0,0.0,0.0,0.0,0.0,0.0,0.0,0.0,0.0,0.0,0.0,0.0,0.0,0.0,0.0,0.0,0.0,0.0,0.0,0.0,0.0,0.0,0.0,0.0,0.0,0.0,0.0,0.0,0.0,0.0,0.0,0.0,0.0,0.0,0.0,0.0,0.0,0.0,0.0,0.0,0.0,0.0,0.0,0.0,0.0,0.0,0.0,0.0,0.0,0.0,0.0,0.0,0.0,0.0,0.0,0.0,0.0,0.0,0.0,0.0,0.0,0.0,0.0,0.0,0.0,0.0,0.0,0.0,0.0,0.0,0.0,0.0,0.0,0.0,0.0,0.0,0.0,0.0,0.0,0.0,0.0,0.0,0.0,0.0,0.0,0.0,0.0,0.0,0.0,0.0,0.0,0.0,0.0,0.0,0.0,0.0,0.0,0.0,0.0,0.0,0.0,0.0,0.0,0.0,0.0,0.0,0.0,0.0,0.0,0.0,0.0,0.0,0.0,0.0,0.0,0.0,0.0,0.0,0.0,0.0,0.0,0.0,0.0,0.0,0.0,0.0,0.0,0.0,0.0,0.0,0.0,0.0,0.0,0.0,0.0,0.0,0.0,0.0,0.0,0.0,0.0,0.0,0.0,0.0,0.0,0.0,0.0,0.0,0.0,0.0,0.0,0.0,0.0,0.0,0.0,0.0,0.0,0.0,0.0,0.0,0.0,0.0,0.0,0.0,0.0,0.0,0.0,0.0,0.0,0.0,0.0,0.0,0.0,0.0,0.0,0.0,0.0,0.0,0.0,0.0,0.0,0.0,0.0,0.0,0.0,0.0,0.0,0.0,0.0,0.0,0.0,0.0,0.0,0.0,0.0,0.0,0.0,0.0,0.0,0.0,0.0,0.0,0.0,0.0,0.0,0.0,0.0,0.0,0.0,0.0,0.0,0.0,0.0,0.0,0.0,0.0,0.0,0.0,0.0,0.0,0.0,0.0,0.0,0.0,0.0,0.0,0.0,0.0,0.0,0.0,0.0,0.0,0.0,0.0,0.0,0.0,0.0,0.0,0.0,0.0,0.0,0.0,0.0,0.0,0.0,0.0,0.0,0.0,0.0,0.0,0.0,0.0,0.0,0.0,0.0,0.0,0.0,0.0,0.0,0.0,0.0,0.0,0.0,0.0,0.0,0.0,0.0,0.0,0.0,0.0,0.0,0.0,0.0,0.0,0.0,0.0,0.0,0.0,0.0,0.0,0.0,0.0,0.0,0.0,0.0,0.0,0.0,0.0,0.0,0.0,0.0,0.0,0.0,0.0,0.0,0.0,0.0,0.0,0.0,0.0,0.0,0.0,0.0,0.0,0.0,0.0,0.0,0.0,0.0,0.0,0.0,0.0,0.0,0.0,0.0,0.0,0.0,0.0,0.0,0.0,0.0,0.0,0.0,0.0,0.0,0.0,0.0,0.0,0.0,0.0,0.0,0.0,0.0,0.0,0.0,0.0,0.0,0.0,0.0,0.0,0.0,0.0,0.0,0.0,0.0,0.0,0.0,0.0,0.0,0.0,0.0,0.0,0.0,0.0,0.0,0.0,0.0,0.0,0.0,0.0,0.0,0.0,0.0,0.0,0.0,0.0,0.0,0.0,0.0,0.0,0.0,0.0,0.0,0.0,0.0,0.0,0.0,0.0,0.0,0.0,0.0,0.0,0.0,0.0,0.0,0.0,0.0,0.0,0.0,0.0,0.0,0.0,0.0,0.0,0.0,0.0,0.0,0.0,0.0,0.0,0.0,0.0,0.0,0.0,0.0,0.0,0.0,0.0,0.0,0.0,0.0,0.0,0.0,0.0,0.0,0.0,0.0,0.0,0.0,0.0,0.0,0.0,0.0,0.0,0.0,0.0,0.0,0.0,0.0,0.0,0.0,0.0,0.0,0.0,0.0,0.0,0.0,0.0,0.0,0.0,0.0,0.0,0.0,0.0,0.0,0.0,0.0,0.0,0.0,0.0,0.0,0.0,0.0,0.0,0.0,0.0,0.0,0.0,0.0,0.0,0.0,0.0,0.0,0.0,0.0,0.0,0.0,0.0,0.0,0.0,0.0,0.0,0.0,0.0,0.0,0.0,0.0,0.0,0.0,0.0,0.0,0.0,0.0,0.0,0.0,0.0,0.0,0.0,0.0,0.0,0.0,0.0,0.0,0.0,0.0,0.0,0.0,0.0,0.0,0.0,0.0,0.0,0.0,0.0,0.0,0.0,0.0,0.0,0.0,0.0,0.0,0.0,0.0,0.0,0.0,0.0,0.0,0.0,0.0,0.0,0.0,0.0,0.0,0.0,0.0,0.0,0.0,0.0,0.0,0.0,0.0,0.0,0.0,0.0,0.0,0.0,0.0,0.0,0.0,0.0,0.0,0.0,0.0,0.0,0.0,0.0,0.0,0.0,0.0,0.0,0.0,0.0,0.0,0.0,0.0,0.0,0.0,0.0,0.0,0.0,0.0,0.0,0.0,0.0,0.0,0.0,0.0,0.0,0.0,0.0,0.0,0.0,0.0,0.0,0.0,0.0,0.0,0.0,0.0,0.0,0.0,0.0,0.0,0.0,0.0,0.0,0.0,0.0,0.0,0.0,0.0,0.0,0.0,0.0,0.0,0.0,0.0,-4.8244,0.0,0.0,0.0,0.0,0.0,0.0,0.0,0.0,0.0,0.0,0.0,0.0,0.0,0.0,0.0,0.0,0.0,0.0,0.0,0.0,0.0,0.0,0.0,0.0,0.0,0.0,0.0,0.0,0.0,0.0,0.0,0.0,0.0,0.0,0.0,0.0,0.0,0.0,0.0,0.0,0.0,0.0,0.0,0.0,0.0,0.0,0.0,0.0,0.0,0.0,0.0,0.0,0.0,0.0,0.0,0.0,0.0,0.0,0.0,0.0,0.0,0.0,0.0,0.0,0.0,0.0,0.0,0.0,0.0,0.0,0.0,0.0,0.0,0.0,0.0,0.0,0.0,0.0,0.0,0.0,0.0,0.0,0.0,0.0,0.0,0.0,0.0,0.0,0.0,0.0,0.0,0.0,0.0,0.0,0.0,0.0,0.0,0.0,0.0,0.0,0.0,0.0,0.0,0.0,0.0,0.0,0.0,0.0,0.0,0.0,-4.9415,-4.9692,-4.9821,-4.9418,-4.8447,0.0,0.0,0.0,0.0,0.0,0.0,0.0,0.0,0.0,0.0,0.0,0.0,0.0,0.0,0.0,0.0,0.0,0.0,0.0,0.0,0.0,0.0,0.0,0.0,0.0,0.0,0.0,0.0,0.0,0.0,0.0,0.0,0.0,0.0,0.0,0.0,0.0,0.0,0.0,0.0,0.0,0.0,0.0,0.0,0.0,0.0,0.0,0.0,0.0,0.0,0.0,0.0,0.0,0.0,0.0,0.0,0.0,0.0,0.0,0.0,0.0,0.0,0.0,0.0,0.0,0.0,0.0,0.0,0.0,0.0,0.0,0.0,0.0,0.0,0.0,0.0,0.0,0.0,0.0,0.0,0.0,0.0,0.0,0.0,0.0,0.0,0.0,0.0,0.0,0.0,0.0,0.0,0.0,0.0,0.0,0.0,0.0,0.0,0.0,0.0,0.0,0.0,0.0,0.0,0.0,0.0,0.0,0.0,0.0,0.0,0.0,0.0,-4.9871,-4.9346,-4.8168,0.0,0.0,0.0,0.0,0.0,0.0,0.0,0.0,0.0,0.0,0.0,0.0,0.0,0.0,0.0,0.0,0.0,0.0,0.0,0.0,0.0,0.0,0.0,0.0,0.0,0.0,0.0,0.0,0.0,0.0,0.0,0.0,0.0,0.0,0.0,0.0,0.0,0.0,0.0,0.0,0.0,0.0,0.0,0.0,0.0,0.0,0.0,0.0,0.0,0.0,0.0,0.0,0.0,0.0,0.0,0.0,0.0,0.0,0.0,0.0,0.0,0.0,0.0,0.0,0.0,0.0,0.0,0.0,0.0,0.0,0.0,0.0,0.0,0.0,0.0,0.0,0.0,0.0,0.0,0.0,0.0,0.0,0.0,0.0,0.0,0.0,0.0,0.0,0.0,0.0,0.0,0.0,0.0,0.0,0.0,0.0,0.0,0.0,0.0,0.0,0.0,0.0,0.0,0.0,0.0,0.0,0.0,0.0,0.0,0.0,-4.9566,-4.9866,-4.9898,0.0,-4.7258,0.0,0.0,0.0,0.0,0.0,0.0,0.0,0.0,0.0,0.0,0.0,0.0,0.0,0.0,0.0,0.0,0.0,0.0,0.0,0.0,0.0,0.0,0.0,0.0,0.0,0.0,0.0,0.0,0.0,0.0,0.0,0.0,0.0,0.0,0.0,0.0,0.0,0.0,0.0,0.0,0.0,0.0,0.0,0.0,0.0,0.0,0.0,0.0,0.0,0.0,0.0,0.0,0.0,0.0,0.0,0.0,0.0,0.0,0.0,0.0,0.0,0.0,0.0,0.0,0.0,0.0,0.0,0.0,0.0,0.0,0.0,0.0,0.0,0.0,0.0,0.0,0.0,0.0,0.0,0.0,0.0,0.0,0.0,0.0,0.0,0.0,0.0,0.0,0.0,0.0,0.0,0.0,0.0,0.0,0.0,0.0,0.0,0.0,0.0,0.0,0.0,0.0,0.0,0.0,0.0,0.0,0.0,0.0,0.0,0.0,-4.9683,-4.9965,-4.9925,-4.9211,0.0,0.0,0.0,0.0,0.0,0.0,0.0,0.0,0.0,0.0,0.0,0.0,0.0,0.0,0.0,0.0,0.0,0.0,0.0,0.0,0.0,0.0,0.0,0.0,0.0,0.0,0.0,0.0,0.0,0.0,0.0,0.0,0.0,0.0,0.0,0.0,0.0,0.0,0.0,0.0,0.0,0.0,0.0,0.0,0.0,0.0,0.0,0.0,0.0,0.0,0.0,0.0,0.0,0.0,0.0,0.0,0.0,0.0,0.0,0.0,0.0,0.0,0.0,0.0,0.0,0.0,0.0,0.0,0.0,0.0,0.0,0.0,0.0,0.0,0.0,0.0,0.0,0.0,0.0,0.0,0.0,0.0,0.0,0.0,0.0,0.0,0.0,0.0,0.0,0.0,0.0,0.0,0.0,0.0,0.0,0.0,0.0,0.0,0.0,0.0,0.0,0.0,0.0,0.0,0.0,0.0,0.0,0.0,0.0,0.0,-4.948,-4.9807,-4.9992,-4.992,-4.9334,-4.814,0.0,0.0,0.0,0.0,0.0,0.0,0.0,0.0,0.0,0.0,0.0,0.0,0.0,0.0,0.0,0.0,0.0,0.0,0.0,0.0,0.0,0.0,0.0,0.0,0.0,0.0,0.0,0.0,0.0,0.0,0.0,0.0,0.0,0.0,0.0,0.0,0.0,0.0,0.0,0.0,0.0,0.0,0.0,0.0,0.0,0.0,0.0,0.0,0.0,0.0,0.0,0.0,0.0,0.0,0.0,0.0,0.0,0.0,0.0,0.0,0.0,0.0,0.0,0.0,0.0,0.0,0.0,0.0,0.0,0.0,0.0,0.0,0.0,0.0,0.0,0.0,0.0,0.0,0.0,0.0,0.0,0.0,0.0,0.0,0.0,0.0,0.0,0.0,0.0,0.0,0.0,0.0,0.0,0.0,0.0,0.0,0.0,0.0,0.0,0.0,0.0,0.0,0.0,0.0,0.0,0.0,0.0,0.0,-4.9087,-4.9491,-4.9788,-5.0024,-4.9939,-4.9334,0.0,0.0,0.0,0.0,0.0,0.0,0.0,0.0,0.0,0.0,0.0,0.0,0.0,0.0,0.0,0.0,0.0,0.0,0.0,0.0,0.0,0.0,0.0,0.0,0.0,0.0,0.0,0.0,0.0,0.0,0.0,0.0,0.0,0.0,0.0,0.0,0.0,0.0,0.0,0.0,0.0,0.0,0.0,0.0,0.0,0.0,0.0,0.0,0.0,0.0,0.0,0.0,0.0,0.0,0.0,0.0,0.0,0.0,0.0,0.0,0.0,0.0,0.0,0.0,0.0,0.0,0.0,0.0,0.0,0.0,0.0,0.0,0.0,0.0,0.0,0.0,0.0,0.0,0.0,0.0,0.0,0.0,0.0,0.0,0.0,0.0,0.0,0.0,0.0,0.0,0.0,0.0,0.0,0.0,0.0,0.0,0.0,0.0,0.0,0.0,0.0,0.0,0.0,0.0,0.0,0.0,0.0,0.0,0.0,-4.9222,-4.9693,-5.0238,-5.0849,-5.021,-4.9475,0.0,0.0,0.0,0.0,0.0,0.0,0.0,0.0,0.0,0.0,0.0,0.0,0.0,0.0,0.0,0.0,0.0,0.0,0.0,0.0,0.0,0.0,0.0,0.0,0.0,0.0,0.0,0.0,0.0,0.0,0.0,0.0,0.0,0.0,0.0,0.0,0.0,0.0,0.0,0.0,0.0,0.0,0.0,0.0,0.0,0.0,0.0,0.0,0.0,0.0,0.0,0.0,0.0,0.0,0.0,0.0,0.0,0.0,0.0,0.0,0.0,0.0,0.0,0.0,0.0,0.0,0.0,0.0,0.0,0.0,0.0,0.0,0.0,0.0,0.0,0.0,0.0,0.0,0.0,0.0,0.0,0.0,0.0,0.0,0.0,0.0,0.0,0.0,0.0,0.0,0.0,0.0,0.0,0.0,0.0,0.0,0.0,0.0,0.0,0.0,0.0,0.0,0.0,0.0,0.0,0.0,0.0,0.0,0.0,-4.9867,0.0,-5.1059,-5.1345,-5.0613,-4.986,0.0,0.0,0.0,0.0,0.0,0.0,0.0,0.0,0.0,0.0,0.0,0.0,0.0,0.0,0.0,0.0,0.0,0.0,0.0,0.0,0.0,0.0,0.0,0.0,0.0,0.0,0.0,0.0,0.0,0.0,0.0,0.0,0.0,0.0,0.0,0.0,0.0,0.0,0.0,0.0,0.0,0.0,0.0,0.0,0.0,0.0,0.0,0.0,0.0,0.0,0.0,0.0,0.0,0.0,0.0,0.0,0.0,0.0,0.0,0.0,0.0,0.0,0.0,0.0,0.0,0.0,0.0,0.0,0.0,0.0,0.0,0.0,0.0,0.0,0.0,0.0,0.0,0.0,0.0,0.0,0.0,0.0,0.0,0.0,0.0,0.0,0.0,0.0,0.0,0.0,0.0,0.0,0.0,0.0,0.0,0.0,0.0,0.0,0.0,0.0,0.0,0.0,0.0,0.0,0.0,0.0,0.0,0.0,-4.9469,-5.1083,-5.2077,-5.2163,-5.1472,-5.1125,-5.0387,0.0,0.0,0.0,0.0,0.0,0.0,0.0,0.0,0.0,0.0,0.0,0.0,0.0,0.0,0.0,0.0,0.0,0.0,0.0,0.0,0.0,0.0,0.0,0.0,0.0,0.0,0.0,0.0,0.0,0.0,0.0,0.0,0.0,0.0,0.0,0.0,0.0,0.0,0.0,0.0,0.0,0.0,0.0,0.0,0.0,0.0,0.0,0.0,0.0,0.0,0.0,0.0,0.0,0.0,0.0,0.0,0.0,0.0,0.0,0.0,0.0,0.0,0.0,0.0,0.0,0.0,0.0,0.0,0.0,0.0,0.0,0.0,0.0,0.0,0.0,0.0,0.0,0.0,0.0,0.0,0.0,0.0,0.0,0.0,0.0,0.0,0.0,0.0,0.0,0.0,0.0,0.0,0.0,0.0,0.0,0.0,0.0,0.0,0.0,0.0,0.0,0.0,0.0,0.0,0.0,0.0,0.0,0.0,0.0,-5.2779,-5.2631,-5.2686,-5.2995,-5.1636,-5.0516,0.0,0.0,0.0,0.0,0.0,0.0,0.0,0.0,0.0,0.0,0.0,0.0,0.0,0.0,0.0,0.0,0.0,0.0,0.0,0.0,0.0,0.0,0.0,0.0,0.0,0.0,0.0,0.0,0.0,0.0,0.0,0.0,0.0,0.0,0.0,0.0,0.0,0.0,0.0,0.0,0.0,0.0,0.0,0.0,0.0,0.0,0.0,0.0,0.0,0.0,0.0,0.0,0.0,0.0,0.0,0.0,0.0,0.0,0.0,0.0,0.0,0.0,0.0,0.0,0.0,0.0,0.0,0.0,0.0,0.0,0.0,0.0,0.0,0.0,0.0,0.0,0.0,0.0,0.0,0.0,0.0,0.0,0.0,0.0,0.0,0.0,0.0,0.0,0.0,0.0,0.0,0.0,0.0,0.0,0.0,0.0,0.0,0.0,0.0,0.0,0.0,0.0,0.0,0.0,0.0,0.0,0.0,0.0,0.0,-5.3985,-5.3632,-5.3537,-5.3803,-5.2145,-5.0887,-5.0096,0.0,0.0,0.0,0.0,0.0,0.0,0.0,0.0,0.0,0.0,0.0,0.0,0.0,0.0,0.0,0.0,0.0,0.0,0.0,0.0,0.0,0.0,0.0,0.0,0.0,0.0,0.0,0.0,0.0,0.0,0.0,0.0,0.0,0.0,0.0,0.0,0.0,0.0,0.0,0.0,0.0,0.0,0.0,0.0,0.0,0.0,0.0,0.0,0.0,0.0,0.0,0.0,0.0,0.0,0.0,0.0,0.0,0.0,0.0,0.0,0.0,0.0,0.0,0.0,0.0,0.0,0.0,0.0,0.0,0.0,0.0,0.0,0.0,0.0,0.0,0.0,0.0,0.0,0.0,0.0,0.0,0.0,0.0,0.0,0.0,0.0,0.0,0.0,0.0,0.0,0.0,0.0,0.0,0.0,0.0,0.0,0.0,0.0,0.0,0.0,0.0,0.0,0.0,0.0,0.0,0.0,0.0,0.0,-5.4783,-5.4931,-5.4605,-5.3884,-5.2696,-5.145,0.0,0.0,0.0,0.0,0.0,0.0,0.0,0.0,0.0,0.0,0.0,0.0,0.0,0.0,0.0,0.0,0.0,0.0,0.0,0.0,0.0,0.0,0.0,0.0,0.0,0.0,0.0,0.0,0.0,0.0,0.0,0.0,0.0,0.0,0.0,0.0,0.0,0.0,0.0,0.0,0.0,0.0,0.0,0.0,0.0,0.0,0.0,0.0,0.0,0.0,0.0,0.0,0.0,0.0,0.0,0.0,0.0,0.0,0.0,0.0,0.0,0.0,0.0,0.0,0.0,0.0,0.0,0.0,0.0,0.0,0.0,0.0,0.0,0.0,0.0,0.0,0.0,0.0,0.0,0.0,0.0,0.0,0.0,0.0,0.0,0.0,0.0,0.0,0.0,0.0,0.0,0.0,0.0,0.0,0.0,0.0,0.0,0.0,0.0,0.0,0.0,0.0,0.0,0.0,0.0,0.0,0.0,0.0,0.0,-5.4745,-5.4829,-5.4746,-5.4523,-5.3376,-5.2128,0.0,0.0,0.0,0.0,0.0,0.0,0.0,0.0,0.0,0.0,0.0,0.0,0.0,0.0,0.0,0.0,0.0,0.0,0.0,0.0,0.0,0.0,0.0,0.0,0.0,0.0,0.0,0.0,0.0,0.0,0.0,0.0,0.0,0.0,0.0,0.0,0.0,0.0,0.0,0.0,0.0,0.0,0.0,0.0,0.0,0.0,0.0,0.0,0.0,0.0,0.0,0.0,0.0,0.0,0.0,0.0,0.0,0.0,0.0,0.0,0.0,0.0,0.0,0.0,0.0,0.0,0.0,0.0,0.0,0.0,0.0,0.0,0.0,0.0,0.0,0.0,0.0,0.0,0.0,0.0,0.0,0.0,0.0,0.0,0.0,0.0,0.0,0.0,0.0,0.0,0.0,0.0,0.0,0.0,0.0,0.0,0.0,0.0,0.0,0.0,0.0,0.0,0.0,0.0,0.0,0.0,0.0,0.0,-5.4001,-5.5115,-5.4893,-5.4871,-5.5131,-5.3737,-5.2287,0.0,0.0,0.0,0.0,0.0,0.0,0.0,0.0,0.0,0.0,0.0,0.0,0.0,0.0,0.0,0.0,0.0,0.0,0.0,0.0,0.0,0.0,0.0,0.0,0.0,0.0,0.0,0.0,0.0,0.0,0.0,0.0,0.0,0.0,0.0,0.0,0.0,0.0,0.0,0.0,0.0,0.0,0.0,0.0,0.0,0.0,0.0,0.0,0.0,0.0,0.0,0.0,0.0,0.0,0.0,0.0,0.0,0.0,0.0,0.0,0.0,0.0,0.0,0.0,0.0,0.0,0.0,0.0,0.0,0.0,0.0,0.0,0.0,0.0,0.0,0.0,0.0,0.0,0.0,0.0,0.0,0.0,0.0,0.0,0.0,0.0,0.0,0.0,0.0,0.0,0.0,0.0,0.0,0.0,0.0,0.0,0.0,0.0,0.0,0.0,0.0,0.0,0.0,0.0,0.0,0.0,0.0,0.0,-5.4649,-5.5554,-5.5143,-5.5124,-5.5482,-5.3882,-5.2252,0.0,0.0,0.0,0.0,0.0,0.0,0.0,0.0,0.0,0.0,0.0,0.0,0.0,0.0,0.0,0.0,0.0,0.0,0.0,0.0,0.0,0.0,0.0,0.0,0.0,0.0,0.0,0.0,0.0,0.0,0.0,0.0,0.0,0.0,0.0,0.0,0.0,0.0,0.0,0.0,0.0,0.0,0.0,0.0,0.0,0.0,0.0,0.0,0.0,0.0,0.0,0.0,0.0,0.0,0.0,0.0,0.0,0.0,0.0,0.0,0.0,0.0,0.0,0.0,0.0,0.0,0.0,0.0,0.0,0.0,0.0,0.0,0.0,0.0,0.0,0.0,0.0,0.0,0.0,0.0,0.0,0.0,0.0,0.0,0.0,0.0,0.0,0.0,0.0,0.0,0.0,0.0,0.0,0.0,0.0,0.0,0.0,0.0,0.0,0.0,0.0,0.0,0.0,0.0,0.0,0.0,0.0,0.0,-5.4931,-5.5524,-5.601,-5.5957,-5.5305,-5.4131,-5.264,0.0,0.0,0.0,0.0,0.0,0.0,0.0,0.0,0.0,0.0,0.0,0.0,0.0,0.0,0.0,0.0,0.0,0.0,0.0,0.0,0.0,0.0,0.0,0.0,0.0,0.0,0.0,0.0,0.0,0.0,0.0,0.0,0.0,0.0,0.0,0.0,0.0,0.0,0.0,0.0,0.0,0.0,0.0,0.0,0.0,0.0,0.0,0.0,-4.8345,0.0,0.0,0.0,0.0,0.0,0.0,0.0,0.0,0.0,0.0,0.0,0.0,0.0,0.0,0.0,0.0,0.0,0.0,0.0,0.0,0.0,0.0,0.0,0.0,0.0,0.0,0.0,0.0,0.0,0.0,0.0,0.0,0.0,0.0,0.0,0.0,0.0,0.0,0.0,0.0,0.0,0.0,0.0,0.0,0.0,0.0,0.0,0.0,0.0,0.0,0.0,0.0,0.0,0.0,0.0,0.0,0.0,0.0,0.0,-5.5108,-5.5846,-5.6313,-5.6256,-5.5615,-5.4504,-5.2962,0.0,0.0,0.0,0.0,0.0,0.0,0.0,0.0,0.0,0.0,0.0,0.0,0.0,0.0,0.0,0.0,0.0,0.0,0.0,0.0,0.0,0.0,0.0,0.0,0.0,0.0,0.0,0.0,0.0,0.0,0.0,0.0,0.0,0.0,0.0,0.0,0.0,0.0,0.0,0.0,0.0,0.0,0.0,0.0,0.0,0.0,0.0,0.0,0.0,0.0,0.0,0.0,0.0,0.0,0.0,0.0,0.0,0.0,0.0,0.0,0.0,0.0,0.0,0.0,0.0,0.0,0.0,0.0,0.0,0.0,0.0,0.0,0.0,0.0,0.0,0.0,0.0,0.0,0.0,0.0,0.0,0.0,0.0,0.0,0.0,0.0,0.0,0.0,0.0,0.0,0.0,0.0,0.0,0.0,0.0,0.0,0.0,0.0,0.0,0.0,0.0,0.0,0.0,0.0,0.0,0.0,0.0,-5.4072,-5.5279,-5.6187,-5.6526,-5.6447,-5.5983,-5.484,-5.3231,-5.1158,0.0,0.0,0.0,0.0,0.0,0.0,0.0,0.0,0.0,0.0,0.0,0.0,0.0,0.0,0.0,0.0,0.0,0.0,0.0,0.0,0.0,0.0,0.0,0.0,0.0,0.0,0.0,0.0,0.0,0.0,0.0,0.0,0.0,0.0,0.0,0.0,0.0,0.0,-4.586,-4.7895,0.0,0.0,0.0,0.0,0.0,0.0,0.0,0.0,-4.7603,0.0,0.0,0.0,0.0,0.0,0.0,0.0,0.0,0.0,0.0,0.0,0.0,0.0,0.0,0.0,0.0,0.0,0.0,0.0,0.0,0.0,0.0,0.0,0.0,0.0,0.0,0.0,0.0,0.0,0.0,0.0,0.0,0.0,0.0,0.0,0.0,0.0,0.0,0.0,0.0,0.0,0.0,0.0,0.0,0.0,0.0,0.0,0.0,0.0,0.0,0.0,0.0,0.0,0.0,0.0,0.0,-5.259,-5.4363,-5.5496,-5.5979,-5.7227,-5.7151,-5.5588,-5.4984,-5.3369,-5.0615,0.0,0.0,0.0,0.0,0.0,0.0,0.0,0.0,0.0,0.0,0.0,0.0,0.0,0.0,0.0,0.0,0.0,0.0,0.0,0.0,0.0,0.0,0.0,0.0,0.0,0.0,0.0,0.0,0.0,0.0,0.0,0.0,0.0,0.0,0.0,0.0,0.0,0.0,0.0,-4.879,-4.9324,0.0,0.0,0.0,0.0,0.0,0.0,0.0,0.0,-4.7035,0.0,0.0,0.0,0.0,0.0,0.0,0.0,0.0,0.0,0.0,0.0,0.0,0.0,0.0,0.0,0.0,0.0,0.0,0.0,0.0,0.0,0.0,0.0,0.0,0.0,0.0,0.0,0.0,0.0,0.0,0.0,0.0,0.0,0.0,0.0,0.0,0.0,0.0,0.0,0.0,0.0,0.0,0.0,0.0,0.0,0.0,0.0,0.0,0.0,0.0,0.0,0.0,0.0,0.0,0.0,-5.2309,-5.4236,-5.5336,-5.5677,-5.7175,-5.7093,-5.5254,-5.484,-5.3239,0.0,0.0,0.0,0.0,0.0,0.0,0.0,0.0,0.0,0.0,0.0,0.0,0.0,0.0,0.0,0.0,0.0,0.0,0.0,0.0,0.0,0.0,0.0,0.0,0.0,0.0,0.0,0.0,0.0,0.0,0.0,0.0,0.0,0.0,0.0,0.0,0.0,0.0,0.0,0.0,-4.8855,-4.9146,-4.9329,0.0,0.0,0.0,0.0,0.0,0.0,-4.7258,-4.6783,0.0,0.0,0.0,0.0,0.0,0.0,0.0,0.0,0.0,0.0,0.0,0.0,0.0,0.0,0.0,0.0,0.0,0.0,0.0,0.0,0.0,0.0,0.0,0.0,0.0,0.0,0.0,0.0,0.0,0.0,0.0,0.0,0.0,0.0,0.0,0.0,0.0,0.0,0.0,0.0,0.0,0.0,0.0,0.0,0.0,0.0,0.0,0.0,0.0,0.0,0.0,0.0,0.0,0.0,0.0,-5.1826,-5.3887,-5.506,-5.5318,-5.6687,-5.6605,-5.4906,-5.4341,-5.2723,0.0,0.0,0.0,0.0,0.0,0.0,0.0,0.0,0.0,0.0,0.0,0.0,0.0,0.0,0.0,0.0,0.0,0.0,0.0,0.0,0.0,0.0,0.0,0.0,0.0,0.0,0.0,0.0,0.0,0.0,0.0,0.0,0.0,0.0,0.0,0.0,0.0,0.0,0.0,0.0,0.0,-4.9018,-4.9336,-4.9252,0.0,0.0,0.0,0.0,-4.7623,-4.7097,0.0,0.0,0.0,0.0,0.0,0.0,0.0,0.0,0.0,0.0,0.0,0.0,0.0,0.0,0.0,0.0,0.0,0.0,0.0,0.0,0.0,0.0,0.0,0.0,0.0,0.0,0.0,0.0,0.0,0.0,0.0,0.0,0.0,0.0,0.0,0.0,0.0,0.0,0.0,0.0,0.0,0.0,0.0,0.0,0.0,0.0,0.0,0.0,0.0,0.0,0.0,0.0,0.0,0.0,0.0,0.0,-5.0916,-5.3532,-5.4882,-5.4906,-5.5759,-5.5587,-5.4327,-5.3218,-5.1361,0.0,0.0,0.0,0.0,0.0,0.0,0.0,0.0,0.0,0.0,0.0,0.0,0.0,0.0,0.0,0.0,0.0,0.0,0.0,0.0,0.0,0.0,0.0,0.0,0.0,0.0,0.0,0.0,0.0,0.0,0.0,0.0,0.0,0.0,0.0,0.0,0.0,0.0,0.0,0.0,0.0,-4.9099,-4.9892,-4.9805,-4.9916,0.0,0.0,-4.8762,-4.8407,-4.7385,0.0,0.0,0.0,0.0,0.0,0.0,0.0,0.0,0.0,0.0,0.0,0.0,0.0,0.0,0.0,0.0,0.0,0.0,0.0,0.0,0.0,0.0,0.0,0.0,0.0,0.0,0.0,0.0,0.0,0.0,0.0,0.0,0.0,0.0,0.0,0.0,0.0,0.0,0.0,0.0,0.0,0.0,0.0,0.0,0.0,0.0,0.0,0.0,0.0,0.0,0.0,0.0,0.0,0.0,0.0,-4.9333,-5.0488,-5.2655,-5.3842,-5.3965,-5.4672,-5.4496,-5.3296,-5.2635,-5.0963,0.0,0.0,0.0,0.0,0.0,0.0,0.0,0.0,0.0,0.0,0.0,0.0,0.0,0.0,0.0,0.0,0.0,0.0,0.0,0.0,0.0,0.0,0.0,0.0,0.0,0.0,0.0,0.0,0.0,0.0,0.0,0.0,0.0,0.0,0.0,0.0,0.0,0.0,0.0,0.0,0.0,0.0,-4.9638,-4.9595,0.0,0.0,0.0,-4.8488,-4.8145,0.0,0.0,0.0,0.0,0.0,0.0,0.0,0.0,0.0,0.0,0.0,0.0,0.0,0.0,0.0,0.0,0.0,0.0,0.0,0.0,0.0,0.0,0.0,0.0,0.0,0.0,0.0,0.0,0.0,0.0,0.0,0.0,0.0,0.0,0.0,0.0,0.0,0.0,0.0,0.0,0.0,0.0,0.0,0.0,0.0,0.0,0.0,0.0,0.0,0.0,0.0,0.0,0.0,0.0,0.0,0.0,0.0,-4.9887,-5.1831,-5.2937,-5.3089,-5.3568,-5.3369,-5.2475,-5.182,0.0,0.0,0.0,0.0,0.0,0.0,0.0,0.0,0.0,0.0,0.0,0.0,0.0,0.0,0.0,0.0,0.0,0.0,0.0,0.0,0.0,0.0,0.0,0.0,0.0,0.0,0.0,-4.0525,0.0,0.0,0.0,0.0,0.0,0.0,0.0,0.0,0.0,0.0,0.0,0.0,0.0,0.0,-4.838,-4.9247,-4.9336,-4.9567,0.0,0.0,-4.8378,-4.8066,-4.69,-4.5912,0.0,0.0,0.0,0.0,0.0,0.0,0.0,0.0,0.0,0.0,0.0,0.0,0.0,0.0,0.0,0.0,0.0,0.0,0.0,0.0,0.0,0.0,0.0,0.0,0.0,0.0,0.0,0.0,0.0,0.0,0.0,0.0,0.0,0.0,0.0,0.0,0.0,0.0,0.0,0.0,0.0,0.0,0.0,0.0,0.0,0.0,0.0,0.0,0.0,0.0,0.0,0.0,0.0,0.0,-4.8513,-4.8774,-5.1359,-5.2643,-5.2546,-5.2546,-5.2351,-5.2026,-5.0392,-4.8941,0.0,0.0,0.0,0.0,0.0,0.0,0.0,0.0,0.0,0.0,0.0,0.0,0.0,0.0,0.0,0.0,0.0,0.0,0.0,0.0,0.0,0.0,0.0,0.0,0.0,0.0,0.0,0.0,0.0,0.0,0.0,0.0,0.0,0.0,0.0,0.0,0.0,0.0,0.0,0.0,0.0,-4.8031,-4.8832,-4.9356,-4.9937,0.0,-4.9703,-4.882,-4.8652,-4.6949,-4.558,-4.5441,0.0,0.0,0.0,0.0,0.0,0.0,0.0,0.0,0.0,0.0,0.0,0.0,0.0,0.0,0.0,0.0,0.0,0.0,0.0,0.0,0.0,0.0,0.0,0.0,0.0,0.0,0.0,0.0,0.0,0.0,0.0,0.0,0.0,0.0,0.0,0.0,0.0,0.0,0.0,0.0,0.0,0.0,0.0,0.0,0.0,0.0,0.0,0.0,0.0,0.0,0.0,0.0,0.0,-4.818,-4.8426,-5.0382,-5.1422,-5.1439,-5.1341,-5.1205,-5.1029,-4.9695,-4.8515,0.0,0.0,0.0,0.0,0.0,0.0,0.0,0.0,0.0,0.0,0.0,0.0,0.0,0.0,0.0,0.0,0.0,0.0,0.0,0.0,0.0,0.0,0.0,0.0,0.0,0.0,0.0,0.0,-4.1471,-4.1358,-4.1215,0.0,0.0,0.0,0.0,0.0,0.0,0.0,0.0,0.0,0.0,-4.7555,-4.8349,-4.8501,0.0,0.0,-4.8664,-4.7776,-4.7561,-4.6369,-4.5345,-4.5103,-4.4913,0.0,0.0,0.0,0.0,0.0,0.0,0.0,0.0,0.0,0.0,0.0,0.0,0.0,0.0,0.0,0.0,0.0,0.0,0.0,0.0,0.0,0.0,0.0,0.0,0.0,0.0,0.0,0.0,0.0,0.0,0.0,0.0,0.0,0.0,0.0,0.0,0.0,0.0,0.0,0.0,0.0,0.0,0.0,0.0,0.0,0.0,0.0,0.0,0.0,0.0,0.0,0.0,-4.7713,-4.818,-4.9525,-5.0347,-5.0667,-5.0492,-5.0352,-5.0239,-4.9004,-4.7974,0.0,0.0,0.0,0.0,0.0,0.0,0.0,0.0,0.0,0.0,0.0,0.0,0.0,0.0,0.0,0.0,0.0,0.0,0.0,0.0,0.0,0.0,0.0,0.0,0.0,0.0,0.0,0.0,-4.142,-4.1215,-4.1,0.0,0.0,0.0,0.0,0.0,0.0,0.0,0.0,0.0,0.0,-4.7014,-4.7565,-4.7658,-4.7805,-4.8395,-4.7629,-4.696,-4.6776,-4.5862,-4.514,-4.4858,0.0,0.0,0.0,0.0,0.0,0.0,0.0,0.0,0.0,0.0,0.0,0.0,0.0,0.0,0.0,0.0,0.0,0.0,0.0,0.0,0.0,0.0,0.0,0.0,0.0,0.0,0.0,-4.6926,0.0,0.0,-4.5389,0.0,0.0,0.0,0.0,0.0,0.0,0.0,0.0,0.0,0.0,0.0,0.0,0.0,0.0,0.0,0.0,0.0,0.0,0.0,0.0,0.0,0.0,-4.7067,-4.7894,-4.8836,-4.9667,-5.0352,-5.0068,-4.9907,-4.9844,-4.818,-4.7147,-4.6918,0.0,0.0,0.0,0.0,0.0,0.0,0.0,0.0,0.0,0.0,0.0,0.0,0.0,0.0,0.0,0.0,0.0,0.0,0.0,0.0,0.0,0.0,0.0,0.0,0.0,0.0,-4.1403,-4.1215,-4.1,0.0,0.0,0.0,0.0,0.0,0.0,0.0,0.0,0.0,0.0,-4.6477,-4.6405,-4.6458,-4.6888,-4.7184,-4.7237,-4.6864,-4.6598,-4.6554,-4.56,-4.4803,0.0,0.0,0.0,0.0,0.0,0.0,0.0,0.0,0.0,0.0,0.0,0.0,0.0,0.0,0.0,0.0,0.0,0.0,0.0,0.0,0.0,0.0,0.0,0.0,0.0,0.0,0.0,-4.7324,-4.6661,0.0,0.0,0.0,0.0,0.0,0.0,0.0,0.0,0.0,0.0,0.0,-4.7299,-4.7103,0.0,0.0,0.0,0.0,0.0,0.0,0.0,0.0,0.0,0.0,0.0,0.0,-4.6659,-4.7425,-4.8272,-4.9057,-4.9779,-4.9679,-4.9397,-4.89,-4.7687,-4.6068,-4.3925,0.0,0.0,0.0,0.0,0.0,0.0,0.0,0.0,0.0,0.0,0.0,0.0,0.0,0.0,0.0,0.0,0.0,0.0,0.0,0.0,0.0,0.0,0.0,0.0,0.0,-4.1272,0.0,0.0,0.0,0.0,0.0,0.0,0.0,0.0,0.0,0.0,0.0,-4.4058,-4.518,-4.5715,-4.5972,-4.5887,-4.5935,-4.5979,0.0,0.0,0.0,0.0,0.0,0.0,0.0,0.0,0.0,0.0,0.0,0.0,0.0,0.0,-4.4598,-4.4598,-4.4395,-4.4181,-4.4181,0.0,0.0,0.0,0.0,0.0,0.0,0.0,0.0,0.0,0.0,0.0,0.0,0.0,0.0,-4.7803,0.0,-4.6873,0.0,0.0,0.0,0.0,0.0,0.0,0.0,0.0,-4.703,-4.7326,-4.7765,-4.7599,-4.723,0.0,-4.6414,-4.5869,0.0,0.0,0.0,0.0,0.0,0.0,0.0,0.0,-4.618,-4.717,-4.7728,-4.848,-4.9419,-4.9428,-4.904,-4.8289,-4.7155,-4.5207,-4.2388,-4.2303,-4.161,0.0,0.0,0.0,0.0,0.0,0.0,0.0,0.0,0.0,0.0,0.0,0.0,0.0,0.0,0.0,0.0,0.0,0.0,0.0,0.0,0.0,0.0,0.0,-4.1059,0.0,0.0,0.0,0.0,0.0,0.0,0.0,0.0,0.0,-4.2462,-4.3234,-4.4029,-4.4885,-4.5372,-4.5563,-4.5468,0.0,0.0,0.0,0.0,0.0,0.0,0.0,-4.4709,-4.4615,-4.4598,-4.4598,-4.4598,-4.4598,-4.4598,-4.4598,0.0,0.0,-4.4598,-4.4598,-4.4598,-4.4598,-4.4598,-4.4598,-4.4598,-4.4671,-4.4765,0.0,0.0,0.0,0.0,0.0,0.0,0.0,0.0,-4.8807,-4.8424,0.0,-4.7557,0.0,0.0,0.0,0.0,0.0,-4.6129,0.0,0.0,-4.725,-4.725,-4.7318,-4.729,-4.7198,-4.7037,-4.7037,-4.6593,-4.5737,-4.5055,0.0,0.0,0.0,0.0,0.0,0.0,-4.5591,-4.7107,-4.7204,-4.7921,-4.9368,-4.9256,-4.8774,-4.8005,-4.6484,-4.4621,-4.2472,-4.232,-4.1627,-4.0214,-4.0113,0.0,0.0,0.0,0.0,0.0,0.0,0.0,0.0,0.0,0.0,0.0,0.0,0.0,0.0,0.0,0.0,0.0,0.0,0.0,0.0,-4.0959,0.0,0.0,0.0,0.0,0.0,0.0,0.0,0.0,0.0,0.0,-4.3088,-4.3718,-4.444,-4.5407,0.0,0.0,0.0,0.0,-4.4995,-4.4995,-4.4886,-4.482,-4.4776,-4.4682,-4.4598,-4.4598,0.0,0.0,-4.4598,-4.4598,-4.4598,-4.4598,-4.4598,-4.4598,-4.4598,-4.4598,-4.4598,-4.4598,-4.4598,-4.4598,-4.4598,-4.4598,-4.4654,-5.3088,0.0,0.0,0.0,0.0,-4.9889,-4.956,-4.956,-4.9295,-4.8796,-4.815,-4.7975,0.0,0.0,0.0,0.0,0.0,0.0,-4.722,-4.8036,-4.8053,-4.8326,-4.8821,-4.8673,-4.8324,-4.7801,-4.77,-4.7238,-4.6498,-4.6261,-4.5647,-4.4632,0.0,0.0,0.0,0.0,-4.5382,-4.6801,-4.6932,-4.7361,-4.8327,-4.8284,-4.7674,-4.6421,-4.5427,-4.4333,-4.3105,-4.2574,-4.1863,-4.0916,-4.04,0.0,0.0,0.0,0.0,0.0,0.0,0.0,0.0,0.0,0.0,0.0,0.0,0.0,0.0,0.0,0.0,0.0,0.0,0.0,-4.0793,-4.0793,-4.0697,0.0,0.0,0.0,0.0,0.0,0.0,0.0,0.0,0.0,-4.3422,-4.3774,-4.4247,0.0,0.0,-4.5049,-4.4923,-4.4886,-4.4831,-4.4737,-4.4682,0.0,-4.4654,-4.4626,-4.4598,-4.4598,-4.4598,-4.4598,-4.4598,-4.4598,-4.4598,-4.4598,-4.4598,-4.4598,-4.4598,-4.4598,-4.4598,-4.4598,-4.4598,-4.4598,-4.4598,-4.4598,-4.4598,-5.4166,-5.3406,-5.2037,-5.1365,-5.1148,-5.0533,-5.0114,-4.9841,-4.978,-4.9246,-4.8459,-4.8459,-4.8009,-4.7208,-4.6921,0.0,0.0,0.0,-4.781,-4.8643,-4.8643,-4.8882,-4.9273,-4.9185,-4.89,-4.8476,-4.8372,-4.7953,-4.7242,-4.7242,-4.6633,-4.5512,0.0,0.0,-4.4615,-4.4598,-4.519,-4.6295,-4.6363,-4.6718,-4.7462,-4.7192,-4.6616,-4.5737,-4.4976,-4.4062,-4.3014,-4.254,-4.1813,-4.0798,-4.035,-4.0113,0.0,0.0,0.0,0.0,0.0,0.0,0.0,0.0,0.0,0.0,0.0,-3.8881,-3.8898,0.0,0.0,0.0,-4.0534,-4.0607,-4.0607,-4.0558,0.0,0.0,0.0,0.0,0.0,0.0,0.0,-4.1153,-4.21,-4.2956,-4.3512,-4.3926,-4.4364,-4.4845,-4.4886,-4.4803,-4.472,0.0,-4.4682,-4.4615,-4.4598,-4.4598,-4.4598,-4.4598,-4.4598,-4.4598,-4.4598,-4.4598,-4.4598,-4.4598,-4.4598,-4.4598,-4.4598,-4.4598,-4.4598,-4.4598,-4.4598,-4.4598,-4.4598,-4.4598,-4.4598,-4.4598,-4.4598,-5.4896,-5.4391,-5.2808,-5.2004,-5.1748,-5.1554,-5.1116,-5.0456,-5.0198,-4.9712,-4.9103,-4.9035,-4.8629,-4.7939,-4.7293,0.0,-4.799,-4.7973,-4.8359,-4.9001,-4.9018,-4.9018,-4.9018,-4.9018,-4.9018,-4.9001,-4.9018,-4.8646,-4.8007,-4.7973,-4.7631,-4.687,-4.616,-4.5415,-4.4716,-4.4649,-4.4942,-4.5703,-4.5703,-4.6041,-4.6684,-4.5991,-4.5618,-4.5618,-4.4959,-4.3921,-4.2472,-4.2337,-4.1644,-4.0282,-4.013,-4.0113,-4.0113,0.0,0.0,0.0,0.0,0.0,0.0,0.0,0.0,0.0,0.0,0.0,0.0,0.0,0.0,0.0,-4.0412,0.0,-4.0468,-4.0362,0.0,0.0,0.0,-4.0113,-4.0113,-4.0747,-4.1238,-4.1288,0.0,0.0,-4.3477,-4.413,-4.4626,-4.4776,-4.4682,-4.4598,-4.4598,-4.4598,-4.4598,-4.4598,-4.4598,-4.4598,-4.4598,-4.4598,-4.4598,-4.4598,-4.4598,-4.4598,-4.4598,-4.4598,-4.4598,-4.4598,-4.4598,-4.4598,-4.4598,-4.4598,-4.4598,-4.4598,-4.4598,-4.4598,-4.4598,-4.4598,-4.4598,-5.4882,-5.4568,-5.3845,-5.3094,-5.2338,-5.1583,-5.1148,-5.0962,-5.0369,-4.9982,-4.9796,-4.9255,-4.89,-4.8731,-4.8562,-4.8578,-4.8748,-4.8748,-4.8832,-4.9001,-4.9018,-4.9018,-4.9018,-4.9018,-4.9018,-4.9018,-4.9018,-4.8917,-4.8748,-4.8748,-4.8376,-4.7648,-4.6887,-4.6177,-4.5432,-4.4886,-4.4959,-4.5703,-4.5703,-4.5788,-4.594,-4.5229,-4.4857,-4.4869,-4.4699,-4.413,-4.3183,-4.2591,-4.188,-4.0984,-4.0392,-4.0113,-4.0096,-3.9571,0.0,0.0,0.0,0.0,0.0,0.0,0.0,0.0,0.0,-3.8396,-3.8954,0.0,-4.0188,0.0,-4.0412,-4.0461,-4.0379,-4.033,0.0,0.0,-4.0121,-4.0113,-4.0113,-4.0747,-4.1424,-4.1965,-4.2844,-4.3639,-4.4231,-4.4496,-4.4615,-4.4654,-4.4626,-4.4598,-4.4598,-4.4598,-4.4598,-4.4598,-4.4581,-4.4598,-4.4547,-4.4598,-4.4564,-4.4598,-4.4581,-4.4598,-4.4598,-4.4598,-4.4598,-4.4598,-4.4598,-4.4598,-4.4598,-4.4598,-4.4598,-4.4598,-4.4598,-4.4598,-4.4598,-4.4598,-4.4598,-5.4913,-5.4572,-5.4175,-5.3643,-5.3038,-5.2467,-5.2029,-5.164,-5.0913,-5.0405,-5.0033,-4.9323,-4.9018,-4.9018,-4.9018,-4.9018,-4.9018,-4.9018,-4.9018,-4.9018,-4.9018,-4.9018,-4.9018,-4.9018,-4.9018,-4.9018,-4.9018,-4.9018,-4.9018,-4.9018,-4.8646,-4.7872,-4.7175,-4.643,-4.5703,-4.4959,-4.4818,-4.5196,-4.5213,-4.5196,-4.5196,-4.479,-4.4598,-4.4598,-4.4248,-4.3707,-4.2929,-4.2202,-4.1457,-4.0747,-4.0333,-4.0113,-4.0096,-3.9723,-3.9351,0.0,0.0,0.0,0.0,0.0,0.0,0.0,0.0,0.0,0.0,0.0,-4.0121,-4.0213,-4.0288,-4.0271,-4.0213,-4.0213,-4.0188,-4.0096,-4.0113,-4.0113,-4.0113,-4.0747,-4.1474,-4.2202,-4.2946,-4.3707,-4.4479,-4.4598,-4.4598,-4.4598,-4.431,-4.4181,-4.4502,-4.4598,-4.4598,-4.4598,-4.4282,-4.3927,-4.365,-4.3582,-4.3582,-4.3599,-4.3555,-4.3684,-4.3978,-4.4062,-4.4164,-4.453,-4.4598,-4.4598,-4.4598,-4.4598,-4.4598,-4.4598,-4.4598,-4.4598,-4.4598,-4.4598,-4.4598,-5.4974,-5.4526,-5.4207,-5.3948,-5.37,-5.3483,-5.2976,-5.2249,-5.1539,-5.0744,-4.9915,-4.9289,-4.9018,-4.9018,-4.9018,-4.9018,-4.9018,-4.9018,-4.9018,-4.9018,-4.9018,-4.9018,-4.9018,-4.9018,-4.9018,-4.9018,-4.9018,-4.9018,-4.9018,-4.9018,-4.8599,-4.7889,-4.7175,-4.643,-4.5703,-4.4959,-4.4598,-4.4598,-4.4598,-4.4598,-4.4598,-4.4598,-4.4598,-4.4581,-4.3826,-4.3047,-4.232,-4.1593,-4.0865,-4.0163,-4.0113,-4.0113,-4.0113,-4.0113,-3.9825,0.0,-3.9039,0.0,0.0,0.0,0.0,0.0,0.0,0.0,0.0,-3.974,-4.0113,-4.0113,-4.0113,-4.0113,-4.0113,-4.0113,-4.0113,-4.0113,-4.0113,-4.0113,-4.013,-4.0747,-4.1457,-4.2083,-4.2811,-4.3538,-4.4113,-4.431,-4.4293,-4.4175,-4.3656,-4.3487,-4.4124,-4.4225,-4.4192,-4.431,-4.3724,-4.3081,-4.2574,-4.2371,-4.2371,-4.2337,-4.2405,-4.2523,-4.3183,-4.3257,-4.3487,-4.4107,-4.431,-4.4412,-4.4418,-4.4513,-4.4598,-4.4598,-4.4598,-4.4598,-4.4598,-4.4598,-4.4598,-5.5252,-5.4869,-5.4575,-5.4207,-5.3881,-5.3121,-5.2601,-5.2266,-5.1539,-5.0456,-4.9221,-4.9069,-4.9018,-4.9018,-4.9018,-4.9018,-4.9018,-4.9018,-4.9018,-4.9018,-4.9018,-4.9018,-4.9018,-4.9018,-4.9018,-4.9018,-4.9018,-4.9018,-4.9018,-4.9018,-4.8629,-4.7919,-4.7158,-4.6413,-4.5703,0.0,0.0,0.0,-4.4598,-4.4598,-4.4598,-4.4598,-4.4598,-4.4581,-4.3842,0.0,-4.2303,-4.1593,-4.0865,-4.0163,-4.0113,0.0,0.0,0.0,0.0,0.0,0.0,0.0,0.0,0.0,0.0,0.0,-3.991,-3.9893,-3.991,-4.0028,-4.0113,-4.0113,-4.0113,-4.0113,-4.0113,-4.0113,-4.0113,-4.0113,-4.0113,-4.0113,-4.013,-4.0747,-4.1271,-4.139,-4.2049,-4.2557,-4.2743,-4.2726,-4.2743,-4.2811,-4.2591,-4.2557,-4.2726,-4.2794,-4.2787,-4.2709,-4.2608,-4.2455,-4.232,-4.2236,-4.2151,-4.2303,-4.2303,-4.2337,-4.2472,-4.2523,-4.2506,-4.2794,-4.3217,-4.3639,-4.3656,-4.4147,-4.4496,-4.4581,-4.4564,-4.4598,-4.4598,-4.4581,-4.4598,-5.5519,0.0,-5.47,-5.4193,0.0,-5.2912,-5.2123,-5.1346,-5.086,-5.0033,-4.9018,-4.9018,-4.9018,-4.9018,-4.9018,-4.9018,-4.9018,-4.9018,-4.9018,-4.9018,-4.9018,-4.9018,-4.9018,-4.9018,-4.9018,-4.9018,-4.9018,-4.9018,-4.8984,-4.8646,-4.8105,-4.7344,-4.6616,-4.5889,-4.5162,-4.4801,-4.4598,-4.4598,-4.4598,-4.4598,-4.4598,-4.4598,-4.4598,-4.4564,-4.347,0.0,0.0,0.0,0.0,0.0,0.0,0.0,0.0,0.0,0.0,-4.0096,-3.9757,-3.9723,-4.0062,-3.9757,-3.9723,-4.0079,-4.0113,-4.0113,-4.0113,-4.0113,-4.0113,-4.0113,-4.0113,-4.0113,-4.0113,-4.0113,-4.0113,-4.0113,-4.0113,-4.0113,-4.0146,-4.0409,-4.0781,-4.117,-4.1542,-4.188,-4.2252,-4.2303,-4.2303,-4.2269,-4.1982,-4.1762,-4.1796,-4.2066,-4.2185,-4.183,-4.1762,-4.1593,-4.1271,-4.1213,-4.1247,-4.1213,-4.123,-4.1356,-4.1694,-4.1762,-4.1847,-4.2202,-4.2625,-4.2861,-4.2878,-4.32,-4.3481,-4.3481,-4.3481,-4.3453,-4.347,-4.3724,-4.3876,-5.5822,-5.546,-5.4761,-5.4036,-5.336,-5.2628,-5.152,-5.0181,0.0,0.0,0.0,-4.9018,-4.9018,-4.9018,-4.9018,-4.9018,-4.9018,-4.9018,-4.9018,-4.9018,-4.9018,-4.9018,-4.9018,-4.9018,-4.9018,-4.9018,-4.9018,-4.8934,-4.8798,-4.8206,-4.7462,-4.6633,-4.5991,-4.5314,-4.4649,-4.4598,-4.4598,-4.4598,-4.4598,-4.4598,-4.4598,-4.4598,-4.4598,-4.4598,-4.3125,-4.2303,-4.2269,-4.0891,-4.0113,-4.0113,-4.0113,-4.0113,-4.0113,-4.0113,-4.0113,-4.0113,-4.0113,-4.0113,-4.0113,-4.0113,-4.0113,-4.0113,-4.0113,-4.0113,-4.0113,-4.0113,-4.0113,-4.0113,-4.0113,-4.0113,-4.0113,-4.0113,-4.0113,-4.0113,-4.0113,-4.0113,-4.0113,-4.0113,-4.0367,-4.0882,-4.1001,-4.1221,-4.1762,-4.1839,-4.1924,-4.1813,-4.1339,-4.1001,-4.1068,-4.1441,-4.1593,-4.1102,-4.1001,-4.0798,-4.0316,-4.018,-4.0113,-4.0231,-4.018,-4.0333,-4.0815,-4.1001,-4.1255,-4.1704,-4.1965,-4.2083,-4.2117,-4.2286,-4.2286,-4.2303,-4.2303,-4.2236,-4.2168,-4.2591,-4.2861,-5.6077,-5.5613,-5.4694,-5.3977,-5.3304,-5.1903,-5.0566,-4.9369,-4.9232,-4.9103,-4.9018,-4.9018,-4.9018,-4.9018,-4.9018,-4.9018,-4.9018,-4.9018,-4.9018,-4.9018,-4.9018,-4.9018,-4.9018,-4.9018,-4.9018,-4.9018,-4.9001,-4.8697,-4.8091,-4.797,-4.7225,-4.6007,-4.5754,-4.5331,-4.4666,-4.4598,-4.4598,-4.4598,-4.4598,-4.4598,-4.4598,-4.4598,-4.4598,-4.4547,-4.3108,-4.2303,-4.2269,-4.0891,-4.0113,-4.0113,-4.0113,-4.0113,-4.0113,-4.0113,-4.0113,-4.0113,-4.0113,-4.0113,-4.0113,-4.0113,-4.0113,-4.0113,-4.0113,-4.0113,-4.0113,-4.0113,-4.0113,-4.0113,-4.0113,-4.0113,-4.0113,-4.0113,-4.0113,-4.0113,-4.0113,-4.0113,-4.0113,-4.0113,-4.0146,-4.0299,-4.0265,-4.0316,-4.0519,-4.0519,-4.0553,-4.0451,-4.0485,-4.0299,-4.035,-4.0333,-4.0367,-4.0282,-4.0265,-4.0214,-4.013,-4.0113,-4.0113,-4.0113,-4.0113,-4.0146,-4.0316,-4.0367,-4.0417,-4.0451,-4.101,-4.1305,-4.1373,-4.188,-4.2083,-4.2117,-4.21,-4.1982,-4.1474,-4.1508,-4.1694,-5.6078,-5.5365,-5.4627,-5.3649,-5.2538,-5.1089,-5.0034,-4.935,-4.9168,-4.9063,-4.9018,-4.9018,-4.9018,-4.9018,-4.9018,-4.9018,-4.9018,-4.9018,-4.9018,-4.9018,-4.9018,-4.9018,-4.9018,-4.9018,-4.9018,-4.8984,-4.8595,-4.821,-4.7885,-4.7094,-4.638,-4.5703,-4.5314,-4.4908,-4.4615,-4.4598,-4.4598,-4.4598,-4.4598,-4.4598,-4.4598,-4.4598,-4.4384,-4.3978,-4.2861,-4.2083,-4.1694,-4.0688,-4.0113,-4.0113,-4.0113,-4.0113,-4.0113,-4.0113,-4.0113,-4.0113,-4.0113,-4.0113,-4.0113,-4.0113,-4.0113,-4.0113,-4.0113,-4.0113,-4.0113,-4.0113,-4.0113,-4.0113,-4.0113,-4.0113,-4.0113,-4.0113,-4.0113,-4.0113,-4.0113,-4.0113,-4.0113,-4.0113,-4.0113,-4.0113,-4.0113,-4.0113,-4.0113,-4.0113,-4.0113,-4.0113,-4.0113,-4.0113,-4.0113,-4.0113,-4.0113,-4.0113,-4.0113,-4.0113,-4.0113,-4.0113,-4.0113,-4.0113,-4.0113,-4.0113,-4.0113,-4.0113,-4.0113,-4.0113,-4.0392,-4.0544,-4.0612,-4.0874,-4.1077,-4.1085,-4.1111,-4.0925,-4.0679,-4.0595,-4.0865,-5.5999,-5.5187,-5.4333,-5.3109,-5.166,-5.0517,-4.9854,-4.9607,-4.9441,-4.9229,-4.9063,-4.9001,-4.9018,-4.9018,-4.9018,-4.9018,-4.9018,-4.9018,-4.9018,-4.9018,-4.9018,-4.9018,-4.9018,-4.9018,-4.8917,-4.8714,-4.8142,-4.772,-4.728,-4.6261,-4.5602,-4.5415,-4.4902,-4.4598,-4.4598,-4.4598,-4.4598,-4.4598,-4.4598,-4.4598,-4.4598,-4.4598,-4.4242,-4.3436,-4.2692,-4.1948,-4.1221,-4.0502,-4.0113,-4.0113,-4.0113,-4.0113,-4.0113,-4.0113,-4.0113,-4.0113,-4.0113,-4.0113,-4.0113,-4.0113,-4.0113,-4.0113,-4.0113,-4.0113,-4.0113,-4.0113,-4.0113,-4.0113,-4.0113,-4.0113,-4.0113,-4.0113,-4.0113,-4.0113,-4.0113,-4.0113,-4.0113,-4.0113,-4.0113,-4.0113,-4.0113,-4.0113,-4.0113,-4.0113,-4.0113,-4.0113,-4.0113,-4.0113,-4.0113,-4.0113,-4.0113,-4.0113,-4.0113,-4.0113,-4.0113,-4.0113,-4.0113,-4.0113,-4.0113,-4.0113,-4.0113,-4.0113,-4.0113,-4.0113,-4.0113,-4.0163,-4.013,-4.0146,-4.0197,-4.0265,-4.0282,-4.0197,-4.0197,-4.0163,-4.0282,-5.5772,-5.5158,-5.3706,-5.2201,-5.0934,-5.0499,-5.0171,-4.9895,-4.9837,-4.9573,-4.9199,-4.9063,-4.9001,-4.9018,-4.9018,-4.9018,-4.9018,-4.9018,-4.9018,-4.9018,-4.9018,-4.9018,-4.9001,-4.9001,-4.8646,-4.8058,-4.7872,-4.7158,-4.6075,-4.5788,-4.5365,-4.4756,-4.4632,-4.4598,-4.4598,-4.4598,-4.4598,-4.4598,-4.4598,-4.4598,-4.4598,-4.4598,-4.4215,-4.3436,-4.2675,-4.1948,-4.117,-4.0493,-4.0113,-4.0113,-4.0113,-4.0113,-4.0113,-4.0113,-4.0113,-4.0113,-4.0113,-4.0113,-4.0113,-4.0113,-4.0113,-4.0113,-4.0113,-4.0113,-4.0113,-4.0113,-4.0113,-4.0113,-4.0113,-4.0113,-4.0113,-4.0113,-4.0113,-4.0113,-4.0113,-4.0113,-4.0113,-4.0113,-4.0113,-4.0113,-4.0113,-4.0113,-4.0113,-4.0113,-4.0113,-4.0113,-4.0113,-4.0113,-4.0113,-4.0113,-4.0113,-4.0113,-4.0113,-4.0113,-4.0113,-4.0113,-4.0113,-4.0113,-4.0113,-4.0113,-4.0113,-4.0113,-4.0113,-4.0113,-4.0113,-4.0113,-4.0113,-4.0113,-4.0113,-4.0113,-4.0113,-4.0113,-4.0113,-4.0096,-4.018,-5.5333,-5.4276,-5.3329,-5.2214,-5.1079,-5.0749,-5.0519,-5.0296,-5.0011,-4.9779,-4.9573,-4.926,-4.9063,-4.9001,-4.9018,-4.9018,-4.9018,-4.9018,-4.9018,-4.9018,-4.9018,-4.9018,-4.8968,-4.8545,-4.8159,-4.7804,-4.7027,-4.6312,-4.572,-4.5246,-4.4891,-4.4632,-4.4598,-4.4598,-4.4598,-4.4598,-4.4598,-4.4598,-4.4598,-4.4367,-4.3961,-4.3893,-4.3538,-4.2777,-4.2049,-4.1288,-4.0612,-4.0248,-4.0113,-4.0113,-4.0113,-4.0113,-4.0113,-4.0113,-4.0113,-4.0113,-4.0113,-4.0113,-4.0113,-4.0113,-4.0113,-4.0113,-4.0113,-4.0113,-4.0113,-4.0113,-4.0113,-4.0113,-4.0113,-4.0113,-4.0113,-4.0113,-4.0113,-4.0113,-4.0113,-4.0113,-4.0113,-4.0113,-4.0113,-4.0113,-4.0113,-4.0113,-4.0113,-4.0113,-4.0113,-4.0113,-4.0113,-4.0113,-4.0113,-4.0113,-4.0113,-4.0113,-4.0113,-4.0113,-4.0113,-4.0113,-4.0113,-4.0113,-4.0113,-4.0113,-4.0113,-4.0113,-4.0113,-4.0113,-4.0113,-4.0113,-4.0113,-4.0113,-4.0113,-4.0113,-4.0113,-4.0113,-4.0113,-4.0163,-4.0213,-5.4785,-5.3604,-5.2952,-5.2172,-5.1349,-5.107,-5.0874,-5.064,-5.0278,-5.0051,-4.9866,-4.9543,-4.9243,-4.9063,-4.9001,-4.9018,-4.9018,-4.9018,-4.9018,-4.9018,-4.9018,-4.89,-4.8663,-4.8159,-4.7699,-4.7179,-4.6244,-4.5618,-4.5382,-4.4874,-4.4598,-4.4598,-4.4598,-4.4598,-4.4598,-4.4598,-4.4598,-4.4581,-4.4412,-4.3978,-4.3426,-4.2987,-4.2557,-4.1999,-4.1474,-4.0849,-4.0146,-4.0113,-4.0113,-4.0113,-4.0113,-4.0113,-4.0113,-4.0113,-4.0113,-4.0113,-4.0113,-4.0113,-4.0113,-4.0113,-4.0113,-4.0113,-4.0113,-4.0113,-4.0113,-4.0113,-4.0113,-4.0113,-4.0113,-4.0113,-4.0113,-4.0113,-4.0113,-4.0113,-4.0113,-4.0113,-4.0113,-4.0113,-4.0113,-4.0113,-4.0113,-4.0113,-4.0113,-4.0113,-4.0113,-4.0113,-4.0113,-4.0113,-4.0113,-4.0113,-4.0113,-4.0113,-4.0113,-4.0113,-4.0113,-4.0113,-4.0113,-4.0113,-4.0113,-4.0113,-4.0113,-4.0113,-4.0113,-4.0113,-4.0113,-4.0113,-4.0113,-4.0113,-4.0113,-4.0113,-4.0113,-4.0138,-4.0163,-4.0238,-4.0288,-5.4018,-5.3447,-5.2413,-5.1886,-5.1665,-5.1531,-5.1228,-5.083,-5.0749,-5.0464,-4.9982,-4.9866,-4.9602,-4.9199,-4.9094,-4.9018,-4.9018,-4.9018,-4.9018,-4.9001,-4.8968,-4.8629,-4.7973,-4.7889,-4.7145,-4.6058,-4.5754,-4.5297,-4.4733,-4.4632,-4.4598,-4.4598,-4.4598,-4.4598,-4.4598,-4.4598,-4.4598,-4.4434,-4.3876,-4.3392,-4.3172,-4.1989,-4.1373,-4.1255,-4.1204,-4.0815,-4.0197,-4.0113,-4.0113,-4.0113,-4.0113,-4.0113,-4.0113,-4.0113,-4.0113,-4.0113,-4.0113,-4.0113,-4.0113,-4.0113,-4.0113,-4.0113,-4.0113,-4.0113,-4.0113,-4.0113,-4.0113,-4.0113,-4.0113,-4.0113,-4.0113,-4.0113,-4.0113,-4.0113,-4.0113,-4.0113,-4.0113,-4.0113,-4.0113,-4.0113,-4.0113,-4.0113,-4.0113,-4.0113,-4.0113,-4.0113,-4.0113,-4.0113,-4.0113,-4.0113,-4.0113,-4.0113,-4.0113,-4.0113,-4.0113,-4.0113,-4.0113,-4.0113,-4.0113,-4.0113,-4.0113,-4.0113,-4.0113,-4.0113,-4.0113,-4.0113,-4.0113,-4.0113,-4.0113,-4.0113,-4.0121,-4.0146,-4.0213,-4.028,-4.0379,-5.3762,-5.3067,-5.2495,-5.2246,-5.2174,-5.1882,-5.1615,-5.1349,-5.1044,-5.0758,-5.0446,-5.0068,-4.9825,-4.9649,-4.929,-4.9094,-4.9001,-4.9018,-4.9018,-4.8951,-4.8528,-4.8125,-4.7838,-4.6959,-4.6278,-4.572,-4.5213,-4.4886,-4.4649,-4.4598,-4.4598,-4.4598,-4.4598,-4.4598,-4.4598,-4.4598,-4.4378,-4.3859,-4.3538,-4.2953,-4.2083,-4.1474,-4.1001,-4.0536,-4.0519,-4.0383,-4.0113,-4.0113,-4.0113,-4.0113,-4.0113,-4.0113,-4.0113,-4.0113,-4.0113,-4.0113,-4.0113,-4.0113,-4.0113,-4.0113,-4.0113,-4.0113,-4.0113,-4.0113,-4.0113,-4.0113,-4.0113,-4.0113,-4.0113,-4.0113,-4.0113,-4.0113,-4.0113,-4.0113,-4.0113,-4.0113,-4.0113,-4.0113,-4.0113,-4.0113,-4.0113,-4.0113,-4.0113,-4.0113,-4.0113,-4.0113,-4.0113,-4.0113,-4.0113,-4.0113,-4.0113,-4.0113,-4.0113,-4.0113,-4.0113,-4.0113,-4.0113,-4.0113,-4.0113,-4.0113,-4.0113,-4.0113,-4.0113,-4.0113,-4.0113,-4.0113,-4.0113,-4.0113,-4.0113,-4.0096,-4.0121,-4.0213,-4.028,-4.0429,-4.0576,-5.3449,-5.2882,-5.2686,-5.2549,-5.2475,-5.2198,-5.1914,-5.169,-5.1357,-5.107,-5.0749,-5.0324,-5.0068,-4.9866,-4.953,-4.9229,-4.9046,-4.9032,-4.8883,-4.8629,-4.8139,-4.7635,-4.706,-4.6177,-4.5568,-4.5297,-4.4869,-4.4598,-4.4598,-4.4598,-4.4598,-4.4598,-4.4598,-4.4598,-4.4564,-4.435,-4.391,-4.3409,-4.2936,-4.2168,-4.1288,-4.095,-4.0595,-4.0197,-4.0113,-4.0113,-4.0113,-4.0113,-4.0113,-4.0113,-4.0113,-4.0113,-4.0113,-4.0113,-4.0113,-4.0113,-4.0113,-4.0113,-4.0113,-4.0113,-4.0113,-4.0113,-4.0113,-4.0113,-4.0113,-4.0113,-4.0113,-4.0113,-4.0113,-4.0113,-4.0113,-4.0113,-4.0113,-4.0113,-4.0113,-4.0113,-4.0113,-4.0113,-4.0113,-4.0113,-4.0113,-4.0113,-4.0113,-4.0113,-4.0113,-4.0113,-4.0113,-4.0113,-4.0113,-4.0113,-4.0113,-4.0113,-4.0113,-4.0113,-4.0113,-4.0113,-4.0113,-4.0113,-4.0113,-4.0113,-4.0113,-4.0113,-4.0113,-4.0113,-4.0113,-4.0113,-4.0113,-4.0113,-4.0096,-4.0096,-4.0171,-4.0263,-4.0412,-4.0583,-4.0752,-5.3017,-5.2977,-5.285,-5.269,-5.2567,-5.248,-5.218,-5.179,-5.169,-5.1367,-5.0901,-5.064,-5.0324,-4.9953,-4.9767,-4.95,-4.926,-4.904,-4.8592,-4.8054,-4.7817,-4.7052,-4.5923,-4.5715,-4.5292,-4.4733,-4.4632,-4.4598,-4.4598,-4.4598,-4.4598,-4.4598,-4.4598,-4.4547,-4.4547,-4.3859,-4.3409,-4.3003,-4.2016,-4.1288,-4.1119,-4.051,-4.018,-4.0113,-4.0113,-4.0113,-4.0113,-4.0113,-4.0113,-4.0113,-4.0113,-4.0113,-4.0113,-4.0113,-4.0113,-4.0113,-4.0113,-4.0113,-4.0113,-4.0113,-4.0113,-4.0113,-4.0113,-4.0113,-4.0113,-4.0113,-4.0113,-4.0113,-4.0113,-4.0113,-4.0113,-4.0113,-4.0113,-4.0113,-4.0113,-4.0113,-4.0113,-4.0113,-4.0113,-4.0113,-4.0113,-4.0113,-4.0113,-4.0113,-4.0113,-4.0113,-4.0113,-4.0113,-4.0113,-4.0113,-4.0113,-4.0113,-4.0113,-4.0113,-4.0113,-4.0113,-4.0113,-4.0113,-4.0113,-4.0113,-4.0113,-4.0113,-4.0113,-4.0113,-4.0113,-4.0113,-4.0113,-4.0113,-4.0138,-4.0163,-4.0255,-4.0362,-4.0558,-4.0752,-4.0959,-5.3143,-5.3143,-5.2999,-5.2912,-5.2824,-5.2649,-5.2421,-5.2222,-5.1956,-5.1632,-5.1237,-5.0901,-5.0547,-5.0211,-4.9971,-4.9737,-4.9509,-4.8933,-4.8392,-4.7929,-4.7087,-4.6391,-4.5812,-4.5303,-4.4902,-4.4632,-4.4598,-4.4598,-4.4598,-4.4598,-4.4598,-4.4598,-4.4598,-4.431,-4.3826,-4.3521,-4.2987,-4.1948,-4.1457,-4.0984,-4.0519,-4.0231,-4.0113,-4.0113,-4.0113,-4.0113,-4.0113,-4.0113,-4.0113,-4.0113,-4.0113,-4.0113,-4.0113,-4.0113,-4.0113,-4.0113,-4.0113,-4.0113,-4.0113,-4.0113,-4.0113,-4.0113,-4.0113,-4.0113,-4.0113,-4.0113,-4.0113,-4.0113,-4.0113,-4.0113,-4.0113,-4.0113,-4.0113,-4.0113,-4.0113,-4.0113,-4.0113,-4.0113,-4.0113,-4.0113,-4.0113,-4.0113,-4.0113,-4.0113,-4.0113,-4.0113,-4.0113,-4.0113,-4.0113,-4.0113,-4.0113,-4.0113,-4.0113,-4.0113,-4.0113,-4.0113,-4.0113,-4.0113,-4.0113,-4.0113,-4.0113,-4.0113,-4.0113,-4.0113,-4.0113,-4.0113,-4.0113,-4.0113,-4.0138,-4.0238,-4.0337,-4.051,-4.0728,-4.0935,-4.1123,-5.3185,-5.3203,-5.3103,-5.306,-5.2999,-5.2828,-5.2649,-5.2457,-5.2174,-5.1864,-5.1513,-5.1123,-5.0757,-5.0436,-5.0126,-4.974,-4.9245,-4.8483,-4.7883,-4.7386,-4.6595,-4.5947,-4.5574,-4.5058,-4.4737,-4.4643,-4.4598,-4.4598,-4.4598,-4.4598,-4.4598,-4.4581,-4.4299,-4.3927,-4.3352,-4.2817,-4.2066,-4.1288,-4.0933,-4.0561,-4.0214,-4.0113,-4.0113,-4.0113,-4.0113,-4.0113,-4.0113,-4.0113,-4.0113,-4.0113,-4.0113,-4.0113,-4.0113,-4.0113,-4.0113,-4.0113,-4.0113,-4.0113,-4.0113,-4.0113,-4.0113,-4.0113,-4.0113,-4.0113,-4.0113,-4.0113,-4.0113,-4.0113,-4.0113,-4.0113,-4.0113,-4.0113,-4.0113,-4.0113,-4.0113,-4.0113,-4.0113,-4.0113,-4.0113,-4.0113,-4.0113,-4.0113,-4.0113,-4.0113,-4.0113,-4.0113,-4.0113,-4.0113,-4.0113,-4.0113,-4.0113,-4.0113,-4.0113,-4.0113,-4.0113,-4.0113,-4.0113,-4.0113,-4.0113,-4.0113,-4.0113,-4.0113,-4.0113,-4.0113,-4.0113,-4.0113,-4.0113,-4.0113,-4.0138,-4.0263,-4.0412,-4.0583,-4.0776,-4.1076,-4.1284,-5.3185,-5.3185,-5.3185,-5.3143,-5.3039,-5.2999,-5.2802,-5.2526,-5.2364,-5.2084,-5.1683,-5.1298,-5.0936,-5.0602,-5.0313,-4.9683,-4.8696,-4.8036,-4.7331,-4.6642,-4.6114,-4.5689,-4.5149,-4.4892,-4.4737,-4.4654,-4.4598,-4.4598,-4.4598,-4.4598,-4.4598,-4.453,-4.3893,-4.3386,-4.302,-4.1905,-4.1288,-4.0984,-4.0443,-4.0146,-4.0113,-4.0113,-4.0113,-4.0113,-4.0113,-4.0113,-4.0113,-4.0113,-4.0113,-4.0113,-4.0113,-4.0113,-4.0113,-4.0113,-4.0113,-4.0113,-4.0113,-4.0113,-4.0113,-4.0113,-4.0113,-4.0113,-4.0113,-4.0113,-4.0113,-4.0113,-4.0113,-4.0113,-4.0113,-4.0113,-4.0113,-4.0113,-4.0113,-4.0113,-4.0113,-4.0113,-4.0113,-4.0113,-4.0113,-4.0113,-4.0113,-4.0113,-4.0113,-4.0113,-4.0113,-4.0113,-4.0113,-4.0113,-4.0113,-4.0113,-4.0113,-4.0113,-4.0113,-4.0113,-4.0113,-4.0113,-4.0113,-4.0113,-4.0113,-4.0113,-4.0113,-4.0113,-4.0113,-4.0113,-4.0113,-4.0113,-4.0113,-4.0138,-4.0188,-4.0337,-4.0485,-4.0631,-4.0877,-4.1198,-4.1471,-5.3185,-5.3185,-5.3185,-5.3185,-5.3124,-5.3042,-5.289,-5.2712,-5.2526,-5.2222,-5.1833,-5.1531,-5.1149,-5.0766,-5.0464,-4.9829,-4.891,-4.809,-4.7276,-4.6498,-4.5851,-4.5478,-4.5147,-4.4913,-4.4776,-4.472,-4.4654,-4.4598,-4.4598,-4.4598,-4.4581,-4.4564,-4.3741,-4.3081,-4.2523,-4.1644,-4.0916,-4.0468,-4.0248,-4.0113,-4.0113,-4.0113,-4.0113,-4.0113,-4.0113,-4.0113,-4.0113,-4.0113,-4.0113,-4.0113,-4.0113,-4.0113,-4.0113,-4.0113,-4.0113,-4.0113,-4.0113,-4.0113,-4.0113,-4.0113,-4.0113,-4.0113,-4.0113,-4.0113,-4.0113,-4.0113,-4.0113,-4.0113,-4.0113,-4.0113,-4.0113,-4.0113,-4.0113,-4.0113,-4.0113,-4.0113,-4.0113,-4.0113,-4.0113,-4.0113,-4.0113,-4.0113,-4.0113,-4.0113,-4.0113,-4.0113,-4.0113,-4.0113,-4.0113,-4.0113,-4.0113,-4.0113,-4.0113,-4.0113,-4.0113,-4.0113,-4.0113,-4.0113,-4.0113,-4.0113,-4.0113,-4.0113,-4.0113,-4.0113,-4.0113,-4.0113,-4.0138,-4.0188,-4.0288,-4.0404,-4.0607,-4.0799,-4.1065,-4.1363,-4.1653,-5.3185,-5.3185,-5.3185,-5.3185,-5.3185,-5.3103,-5.2995,-5.2783,-5.2622,-5.2322,-5.1987,-5.1708,-5.1333,-5.0936,-5.0675,-4.9826,-4.8705,-4.8127,-4.7276,-4.6273,-4.571,-4.5414,-4.5194,-4.4978,-4.4858,-4.4776,-4.4671,-4.4598,-4.4598,-4.4598,-4.4429,-4.3978,-4.3318,-4.2574,-4.183,-4.1102,-4.0544,-4.018,-4.0113,-4.0113,-4.0113,-4.0113,-4.0113,-4.0113,-4.0113,-4.0113,-4.0113,-4.0113,-4.0113,-4.0113,-4.0113,-4.0113,-4.0113,-4.0113,-4.0113,-4.0113,-4.0113,-4.0113,-4.0113,-4.0113,-4.0113,-4.0113,-4.0113,-4.0113,-4.0113,-4.0113,-4.0113,-4.0113,-4.0113,-4.0113,-4.0113,-4.0113,-4.0113,-4.0113,-4.0113,-4.0113,-4.0113,-4.0113,-4.0113,-4.0113,-4.0113,-4.0113,-4.0113,-4.0113,-4.0113,-4.0113,-4.0113,-4.0113,-4.0113,-4.0096,-4.0062,-4.0011,-3.9977,-3.996,-3.9994,-4.0011,-4.0062,-4.0079,-4.0113,-4.0113,-4.0113,-4.0113,-4.0113,-4.0113,-4.0113,-4.0113,-4.0163,-4.0238,-4.0337,-4.0502,-4.0728,-4.0989,-4.1226,-4.1525,-4.1827,-5.3185,-5.3185,-5.3185,-5.3185,-5.3185,-5.3185,-5.3042,-5.2828,-5.2676,-5.2467,-5.2132,-5.184,-5.1531,-5.1141,-5.0699,-4.9757,-4.8206,-4.7952,-4.7039,-4.6196,-4.5658,-4.5485,-4.53,-4.5096,-4.4978,-4.4841,-4.4709,-4.4626,-4.4626,-4.4626,-4.4147,-4.3538,-4.276,-4.1974,-4.1374,-4.0595,-4.0189,-4.018,-4.0146,-4.0146,-4.0121,-4.0096,-4.0113,-4.0113,-4.0113,-4.0113,-4.0113,-4.0113,-4.0113,-4.0113,-4.0113,-4.0113,-4.0113,-4.0113,-4.0113,-4.0113,-4.0113,-4.0113,-4.0113,-4.0113,-4.0113,-4.0113,-4.0113,-4.0113,-4.0113,-4.0113,-4.0113,-4.0113,-4.0113,-4.0113,-4.0113,-4.0113,-4.0113,-4.0113,-4.0113,-4.0113,-4.0113,-4.0113,-4.0113,-4.0113,-4.0113,-4.0113,-4.0113,-4.0113,-4.0113,-4.0113,-4.0113,-4.0113,-3.9994,-3.9842,-3.9808,-3.9774,-3.9774,-3.9774,-3.9825,-3.991,-3.9977,-4.0045,-4.0096,-4.0113,-4.0113,-4.0113,-4.0113,-4.0113,-4.0113,-4.0138,-4.0163,-4.0263,-4.0404,-4.0607,-4.0894,-4.1129,-4.134,-4.1719,-4.2019,-5.3185,-5.3185,-5.3185,-5.3185,-5.3185,-5.3185,-5.3103,-5.2955,-5.2806,-5.2622,-5.2364,-5.2029,-5.1758,-5.1495,-5.0505,-4.9372,-4.8425,-4.7684,-4.6682,-4.5952,-4.577,-4.5667,-4.5485,-4.53,-4.5167,-4.5059,-4.4858,-4.4748,-4.472,-4.4614,-4.4181,-4.3386,-4.2695,-4.1993,-4.1291,-4.0637,-4.0313,-4.0387,-4.0313,-4.0263,-4.0238,-4.0163,-4.0113,-4.0113,-4.0113,-4.0113,-4.0113,-4.0113,-4.0113,-4.0113,-4.0113,-4.0113,-4.0113,-4.0113,-4.0113,-4.0113,-4.0113,-4.0113,-4.0113,-4.0113,-4.0113,-4.0113,-4.0113,-4.0113,-4.0113,-4.0113,-4.0113,-4.0113,-4.0113,-4.0113,-4.0113,-4.0113,-4.0113,-4.0113,-4.0113,-4.0113,-4.0113,-4.0113,-4.0113,-4.0113,-4.0113,-4.0113,-4.0113,-4.0113,-4.0113,-4.0113,-4.0079,-4.0096,-3.9859,-3.9554,-3.9368,-3.9249,-3.9056,-3.9005,-3.9249,-3.9402,-3.9631,-3.9834,-3.9994,-4.0113,-4.0113,-4.0113,-4.0113,-4.0113,-4.0113,-4.0138,-4.023,-4.0387,-4.0534,-4.0799,-4.1018,-4.1295,-4.1582,-4.1892,-4.2207,-5.3185,-5.3185,-5.3185,-5.3185,-5.3185,-5.3185,-5.3124,-5.2999,-5.285,-5.2708,-5.2457,-5.2126,-5.1882,-5.1619,-5.0525,-4.9543,-4.8584,-4.7395,-4.6543,-4.6065,-4.5963,-4.5879,-4.571,-4.5537,-4.5406,-4.5203,-4.5005,-4.4896,-4.4858,-4.4729,-4.4181,-4.3151,-4.2658,-4.1895,-4.112,-4.0591,-4.0453,-4.0461,-4.0436,-4.0387,-4.0362,-4.028,-4.0163,-4.0113,-4.0113,-4.0113,-4.0113,-4.0113,-4.0113,-4.0113,-4.0113,-4.0113,-4.0113,-4.0113,-4.0113,-4.0113,-4.0113,-4.0113,-4.0113,-4.0113,-4.0113,-4.0113,-4.0113,-4.0113,-4.0113,-4.0113,-4.0113,-4.0113,-4.0113,-4.0113,-4.0113,-4.0113,-4.0113,-4.0113,-4.0113,-4.0113,-4.0113,-4.0113,-4.0113,-4.0113,-4.0113,-4.0113,-4.0113,-4.0113,-4.0062,-4.0045,-3.9537,-3.9503,-3.9259,-3.8954,-3.8616,-3.8413,-3.821,-3.8193,-3.8497,-3.8802,-3.9208,-3.9495,-3.98,-3.9994,-4.0113,-4.0113,-4.0113,-4.0113,-4.0138,-4.0213,-4.0305,-4.0485,-4.0704,-4.0894,-4.1129,-4.1448,-4.1762,-4.204,-4.2353,-5.3185,-5.3185,-5.3185,-5.3185,-5.3185,-5.3185,-5.3143,-5.302,-5.2868,-5.2712,-5.2526,-5.2246,-5.1939,-5.1433,-5.0521,-4.9572,-4.8384,-4.738,-4.644,-4.6277,-4.6259,-4.613,-4.5972,-4.5829,-4.5675,-4.5319,-4.515,-4.5086,-4.5025,-4.4817,-4.3985,-4.2902,-4.2526,-4.1775,-4.08,-4.0558,-4.059,-4.0631,-4.0607,-4.0583,-4.0534,-4.0429,-4.0288,-4.0163,-4.0113,-4.0113,-4.0113,-4.0113,-4.0113,-4.0113,-4.0113,-4.0113,-4.0113,-4.0113,-4.0113,-4.0113,-4.0113,-4.0113,-4.0113,-4.0113,-4.0113,-4.0113,-4.0113,-4.0113,-4.0113,-4.0113,-4.0113,-4.0113,-4.0113,-4.0113,-4.0113,-4.0113,-4.0113,-4.0113,-4.0113,-4.0113,-4.0113,-4.0113,-4.0113,-4.0113,-4.0113,-4.0113,-4.0113,-4.0096,-4.0045,-3.9859,-3.9334,-3.8853,-3.8633,-3.8311,-3.7905,-3.7533,-3.728,-3.7381,-3.7669,-3.8278,-3.8684,-3.9157,-3.9529,-3.9842,-4.0028,-4.0113,-4.0113,-4.0138,-4.0188,-4.0263,-4.0412,-4.0607,-4.0799,-4.0965,-4.1272,-4.1675,-4.1956,-4.2207,-4.2494,-5.3185,-5.3185,-5.3185,-5.3185,-5.3185,-5.3185,-5.3185,-5.3143,-5.2912,-5.2783,-5.2712,-5.241,-5.1861,-5.1113,-5.0044,-4.8663,-4.7453,-4.6791,-4.6619,-4.6548,-4.6525,-4.6405,-4.6301,-4.6161,-4.603,-4.5811,-4.5555,-4.5372,-4.506,-4.4506,-4.3733,-4.2783,-4.2168,-4.1397,-4.0954,-4.0752,-4.0871,-4.0912,-4.0847,-4.0823,-4.0752,-4.0583,-4.0387,-4.0263,-4.0163,-4.0113,-4.0113,-4.0113,-4.0113,-4.0113,-4.0113,-4.0113,-4.0113,-4.0113,-4.0113,-4.0113,-4.0113,-4.0113,-4.0113,-4.0113,-4.0113,-4.0113,-4.0113,-4.0113,-4.0113,-4.0113,-4.0113,-4.0113,-4.0113,-4.0113,-4.0113,-4.0113,-4.0113,-4.0113,-4.0113,-4.0113,-4.0113,-4.0113,-4.0113,-4.0113,-4.0113,-4.0096,-4.0079,-3.9943,-3.9723,-3.9385,-3.8819,-3.8345,-3.8007,-3.7567,-3.706,-3.6688,-3.6315,-3.6552,-3.6863,-3.7584,-3.8193,-3.8751,-3.9174,-3.9597,-3.9825,-4.0045,-4.0113,-4.0163,-4.0263,-4.0362,-4.0534,-4.0752,-4.1012,-4.1221,-4.1565,-4.1934,-4.2166,-4.2391,-4.2652,-5.3185,-5.3185,-5.3185,-5.3185,-5.3185,-5.3185,-5.3185,-5.3164,-5.2999,-5.285,-5.2735,-5.249,-5.1907,-5.102,-5.0042,-4.8601,-4.7329,-4.6967,-4.6939,-4.6911,-4.6842,-4.6731,-4.6613,-4.6471,-4.6381,-4.6259,-4.6038,-4.5542,-4.5052,-4.4518,-4.3571,-4.2599,-4.2049,-4.1557,-4.106,-4.1012,-4.1105,-4.1129,-4.1105,-4.1035,-4.0965,-4.0728,-4.0527,-4.033,-4.0238,-4.0163,-4.0113,-4.0113,-4.0113,-4.0113,-4.0113,-4.0113,-4.0113,-4.0113,-4.0113,-4.0113,-4.0113,-4.0113,-4.0113,-4.0113,-4.0113,-4.0113,-4.0113,-4.0113,-4.0113,-4.0113,-4.0113,-4.0113,-4.0113,-4.0113,-4.0113,-4.0113,-4.0113,-4.0113,-4.0113,-4.0113,-4.0113,-4.0113,-4.0113,-4.0096,-4.0062,-4.0028,-4.0011,-3.9791,-3.9419,-3.8903,-3.8311,-3.7838,-3.7381,-3.6891,-3.6349,-3.618,-3.5926,-3.6028,-3.6315,-3.6857,-3.7736,-3.8345,-3.8819,-3.9242,-3.9799,-4.0078,-4.0188,-4.0238,-4.0337,-4.0485,-4.0728,-4.0989,-4.1221,-4.1475,-4.1827,-4.2145,-4.2371,-4.2573,-4.2844,-5.3185,-5.3185,-5.3185,-5.3185,-5.3185,-5.3185,-5.3185,-5.3164,-5.306,-5.2937,-5.2824,-5.2568,-5.1914,-5.0841,-4.9699,-4.8452,-4.732,-4.7298,-4.7249,-4.7183,-4.7093,-4.6985,-4.6893,-4.6795,-4.6725,-4.6666,-4.62,-4.575,-4.497,-4.4414,-4.3506,-4.2566,-4.2157,-4.1741,-4.1209,-4.1203,-4.1272,-4.1255,-4.1295,-4.1244,-4.1053,-4.0858,-4.0617,-4.0355,-4.033,-4.0238,-4.0096,-4.0113,-4.0113,-4.0113,-4.0113,-4.0113,-4.0113,-4.0113,-4.0113,-4.0113,-4.0113,-4.0113,-4.0113,-4.0113,-4.0113,-4.0113,-4.0113,-4.0113,-4.0113,-4.0113,-4.0113,-4.0113,-4.0113,-4.0113,-4.0113,-4.0113,-4.0113,-4.0113,-4.0113,-4.0113,-4.0113,-4.0113,-4.0113,-4.0079,-4.0011,-3.9808,-3.9622,-3.9106,-3.8633,-3.8166,-3.7567,-3.7094,-3.6654,-3.6248,-3.5859,-3.5769,-3.5667,-3.5667,-3.5893,-3.6163,-3.7094,-3.8007,-3.8464,-3.8911,-3.9587,-4.0213,-4.0288,-4.0387,-4.051,-4.0704,-4.0942,-4.1221,-4.1471,-4.174,-4.2061,-4.2351,-4.2591,-4.2768,-4.3013,-5.3185,-5.3185,-5.3185,-5.3185,-5.3185,-5.3185,-5.3185,-5.3185,-5.3082,-5.2999,-5.2955,-5.2626,-5.1805,-5.0337,-4.8623,-4.7695,-4.7417,-4.7341,-4.7341,-4.7338,-4.7276,-4.7254,-4.7232,-4.716,-4.707,-4.69,-4.6166,-4.5529,-4.4858,-4.4183,-4.3323,-4.2398,-4.1754,-4.1313,-4.1324,-4.1471,-4.1493,-4.1408,-4.1475,-4.1403,-4.1117,-4.0858,-4.0648,-4.0502,-4.0362,-4.0238,-4.0121,-4.0113,-4.0113,-4.0113,-4.0113,-4.0113,-4.0113,-4.0113,-4.0113,-4.0113,-4.0113,-4.0113,-4.0113,-4.0113,-4.0113,-4.0113,-4.0113,-4.0113,-4.0113,-4.0113,-4.0113,-4.0113,-4.0113,-4.0113,-4.0113,-4.0113,-4.0113,-4.0113,-4.0113,-4.0113,-4.0113,-4.0096,-4.0096,-3.9673,-3.9486,-3.9199,-3.8945,-3.8362,-3.7821,-3.7313,-3.6863,-3.64,-3.6062,-3.5774,-3.5616,-3.5616,-3.5616,-3.5616,-3.5616,-3.5893,-3.6671,-3.7686,-3.8166,-3.8681,-3.9602,-4.033,-4.051,-4.0631,-4.0752,-4.0924,-4.118,-4.1431,-4.1697,-4.1977,-4.2269,-4.2552,-4.2824,-4.3013,-4.316,-5.3185,-5.3185,-5.3185,-5.3185,-5.3185,-5.3185,-5.3185,-5.3185,-5.3124,-5.3082,-5.2977,-5.2787,-5.1781,-5.0087,-4.8381,-4.7611,-4.7533,-4.7511,-4.7533,-4.7511,-4.7468,-4.7407,-4.7363,-4.7316,-4.7249,-4.6998,-4.635,-4.5552,-4.4799,-4.3784,-4.2828,-4.2156,-4.177,-4.1577,-4.152,-4.1732,-4.1793,-4.1732,-4.1648,-4.1448,-4.1198,-4.1006,-4.0793,-4.0534,-4.0436,-4.0313,-4.0163,-4.0113,-4.0113,-4.0113,-4.0113,-4.0113,-4.0113,-4.0113,-4.0113,-4.0113,-4.0113,-4.0113,-4.0113,-4.0113,-4.0113,-4.0113,-4.0113,-4.0113,-4.0113,-4.0113,-4.0113,-4.0113,-4.0113,-4.0113,-4.0113,-4.0113,-4.0113,-4.0113,-4.0113,-4.0113,-4.0096,-4.0079,-3.996,-3.9436,-3.8911,-3.8604,-3.8197,-3.7655,-3.7225,-3.6954,-3.6514,-3.6068,-3.5842,-3.5701,-3.5616,-3.5616,-3.5616,-3.5616,-3.5616,-3.5735,-3.6609,-3.7472,-3.7912,-3.8587,-3.977,-4.0429,-4.0607,-4.083,-4.1001,-4.1186,-4.1396,-4.1565,-4.175,-4.2115,-4.2472,-4.251,-4.2594,-4.3032,-4.3195,-5.3185,-5.3185,-5.3185,-5.3185,-5.3185,-5.3185,-5.3185,-5.3185,-5.3185,-5.3143,-5.2892,-5.2433,-5.1366,-5.005,-4.8554,-4.7717,-4.7759,-4.7759,-4.7762,-4.7741,-4.7681,-4.7642,-4.7621,-4.7536,-4.7367,-4.7104,-4.6218,-4.5372,-4.441,-4.3444,-4.2501,-4.188,-4.1872,-4.1819,-4.1862,-4.1927,-4.1987,-4.1941,-4.1666,-4.1448,-4.1226,-4.1099,-4.0823,-4.0607,-4.0485,-4.037,-4.0146,-4.0113,-4.0113,-4.0113,-4.0113,-4.0113,-4.0113,-4.0113,-4.0113,-4.0113,-4.0113,-4.0113,-4.0113,-4.0113,-4.0113,-4.0113,-4.0113,-4.0113,-4.0163,-4.0163,-4.0188,-4.0221,-4.0238,-4.0213,-4.0163,-4.0163,-4.0121,-4.0121,-4.0113,-4.0113,-4.0096,-4.0146,-3.99,-3.9306,-3.8686,-3.7902,-3.7483,-3.691,-3.6622,-3.6531,-3.6186,-3.5774,-3.5689,-3.5711,-3.5711,-3.5756,-3.5756,-3.5756,-3.5734,-3.5988,-3.6746,-3.7333,-3.7773,-3.8659,-3.9944,-4.0541,-4.0734,-4.0954,-4.1099,-4.1147,-4.1155,-4.1467,-4.178,-4.1893,-4.2024,-4.2084,-4.2287,-4.2721,-4.2844,-5.3185,-5.3185,-5.3185,-5.3185,-5.3185,-5.3185,-5.3185,-5.3185,-5.3185,-5.3185,-5.2901,-5.1508,-5.0645,-4.9861,-4.8611,-4.7759,-4.7899,-4.7881,-4.7886,-4.7929,-4.7951,-4.7911,-4.7891,-4.7797,-4.7504,-4.6731,-4.5961,-4.5046,-4.4079,-4.3232,-4.2481,-4.2048,-4.2072,-4.2026,-4.2009,-4.2076,-4.2072,-4.1945,-4.1688,-4.1386,-4.1186,-4.1018,-4.0817,-4.0583,-4.0485,-4.0387,-4.0138,-4.0113,-4.0113,-4.0113,-4.0113,-4.0138,-4.0138,-4.0138,-4.0138,-4.0171,-4.0171,-4.0171,-4.0188,-4.0138,-4.0113,-4.0113,-4.0138,-4.0188,-4.028,-4.0305,-4.0337,-4.0395,-4.0412,-4.0387,-4.033,-4.0263,-4.0238,-4.0196,-4.0196,-4.0196,-4.0238,-4.0263,-3.9948,-3.9251,-3.855,-3.782,-3.7125,-3.6647,-3.637,-3.6297,-3.6302,-3.5927,-3.591,-3.5932,-3.5932,-3.5954,-3.5954,-3.5954,-3.5971,-3.6324,-3.6701,-3.7393,-3.8006,-3.9054,-4.0309,-4.0648,-4.0853,-4.0781,-4.0834,-4.0866,-4.0843,-4.0826,-4.0974,-4.132,-4.1506,-4.156,-4.1574,-4.1784,-4.1742,-5.3212,-5.3185,-5.3185,-5.3185,-5.3185,-5.3185,-5.3185,-5.3185,-5.3185,-5.3164,-5.2972,-5.1268,-5.0375,-4.9828,-4.8578,-4.7759,-4.7899,-4.792,-4.7966,-4.799,-4.7992,-4.7992,-4.7992,-4.7884,-4.7571,-4.6691,-4.583,-4.4932,-4.4055,-4.3144,-4.2699,-4.2409,-4.2366,-4.2343,-4.2325,-4.2222,-4.2118,-4.1966,-4.1754,-4.152,-4.1209,-4.1082,-4.0864,-4.0534,-4.051,-4.0362,-4.0146,-4.0096,-4.0113,-4.0113,-4.0113,-4.0163,-4.0213,-4.0213,-4.0263,-4.0296,-4.032,-4.032,-4.0288,-4.0213,-4.0138,-4.0238,-4.0288,-4.0387,-4.0436,-4.0436,-4.0419,-4.0468,-4.0534,-4.0534,-4.0461,-4.0412,-4.0412,-4.0362,-4.032,-4.032,-4.0362,-4.0412,-3.9829,-3.905,-3.8465,-3.7848,-3.7148,-3.6461,-3.6251,-3.6075,-3.6118,-3.6144,-3.6165,-3.6165,-3.6148,-3.6127,-3.6144,-3.6122,-3.6122,-3.6331,-3.6578,-3.7387,-3.8225,-3.9243,-4.0287,-4.0731,-4.0855,-4.0734,-4.0478,-4.0394,-4.0253,-4.0006,-4.0181,-4.0673,-4.0906,-4.0992,-4.0982,-4.0879,-4.082,-5.3256,-5.323,-5.3188,-5.3185,-5.3185,-5.3185,-5.3185,-5.3185,-5.3185,-5.3146,-5.2932,-5.125,-5.0378,-4.9853,-4.8584,-4.784,-4.7943,-4.8004,-4.8048,-4.809,-4.8111,-4.8092,-4.8,-4.7708,-4.7214,-4.6481,-4.5639,-4.4687,-4.3756,-4.3172,-4.2895,-4.2746,-4.2689,-4.2629,-4.2488,-4.2425,-4.224,-4.203,-4.1841,-4.1587,-4.1255,-4.1105,-4.0953,-4.0607,-4.0558,-4.0436,-4.0288,-4.0196,-4.0213,-4.0213,-4.0221,-4.0271,-4.0296,-4.0362,-4.0395,-4.0444,-4.0493,-4.0493,-4.0461,-4.0387,-4.0263,-4.0362,-4.0485,-4.0558,-4.059,-4.0655,-4.0728,-4.0758,-4.0734,-4.0704,-4.0655,-4.0631,-4.0558,-4.051,-4.0461,-4.0419,-4.0534,-4.0531,-3.966,-3.8832,-3.8407,-3.8104,-3.7261,-3.6637,-3.6537,-3.6381,-3.6395,-3.6416,-3.6416,-3.6416,-3.6356,-3.6335,-3.6314,-3.6272,-3.6264,-3.6483,-3.6766,-3.7525,-3.837,-3.9158,-4.0003,-4.0447,-4.0683,-4.052,-4.0243,-3.9914,-3.9587,-3.9262,-3.959,-4.0074,-4.0138,-4.0105,-3.9971,-3.9866,-4.0013,-5.33,-5.3279,-5.3248,-5.3185,-5.3185,-5.3185,-5.3185,-5.3185,-5.3185,-5.3185,-5.2923,-5.1255,-5.0422,-5.0013,-4.8634,-4.7982,-4.8028,-4.8146,-4.8207,-4.8229,-4.8229,-4.8267,-4.8011,-4.7588,-4.6872,-4.5846,-4.5095,-4.4309,-4.3342,-4.3177,-4.3067,-4.3012,-4.2918,-4.2767,-4.2609,-4.2526,-4.232,-4.2026,-4.1862,-4.1587,-4.1295,-4.1146,-4.0935,-4.0769,-4.0673,-4.0527,-4.0362,-4.0362,-4.0362,-4.0313,-4.0395,-4.0468,-4.051,-4.0534,-4.0583,-4.0607,-4.0566,-4.0541,-4.0517,-4.0493,-4.0541,-4.0583,-4.0704,-4.0782,-4.0894,-4.0982,-4.1082,-4.1111,-4.1117,-4.1065,-4.0989,-4.0871,-4.0752,-4.0704,-4.0638,-4.0662,-4.0758,-4.0813,-4.0043,-3.9109,-3.8825,-3.8502,-3.756,-3.6869,-3.6866,-3.6786,-3.6722,-3.6702,-3.6684,-3.6664,-3.6647,-3.6606,-3.6564,-3.6564,-3.6582,-3.6623,-3.6994,-3.7721,-3.8356,-3.9007,-3.9572,-3.9986,-4.0136,-4.0135,-3.9752,-3.9238,-3.8846,-3.8474,-3.8972,-3.9393,-3.9138,-3.9043,-3.8912,-3.9001,-3.9276,-5.3482,-5.3318,-5.3277,-5.3251,-5.3206,-5.3185,-5.3185,-5.3185,-5.3185,-5.3185,-5.2815,-5.1297,-5.0542,-4.9989,-4.8887,-4.801,-4.8128,-4.8168,-4.8246,-4.8305,-4.8324,-4.8305,-4.803,-4.7424,-4.6617,-4.5828,-4.5004,-4.4126,-4.3359,-4.3233,-4.3178,-4.3142,-4.3031,-4.2861,-4.2649,-4.2526,-4.2341,-4.2048,-4.1841,-4.1648,-4.134,-4.1192,-4.1023,-4.0823,-4.0769,-4.0648,-4.0485,-4.0534,-4.0534,-4.0485,-4.0583,-4.068,-4.0752,-4.0817,-4.0912,-4.0948,-4.0937,-4.096,-4.0977,-4.1001,-4.1035,-4.0989,-4.0971,-4.1088,-4.1221,-4.1267,-4.1358,-4.1408,-4.1386,-4.1335,-4.1244,-4.1134,-4.1041,-4.1041,-4.1024,-4.1024,-4.1071,-4.1146,-4.0727,-3.9643,-3.9035,-3.843,-3.76,-3.7256,-3.7201,-3.7163,-3.7085,-3.7007,-3.697,-3.697,-3.695,-3.6908,-3.6869,-3.6869,-3.6906,-3.6906,-3.7076,-3.7682,-3.8074,-3.8463,-3.8981,-3.9511,-3.9364,-3.9223,-3.887,-3.85,-3.8366,-3.8308,-3.8489,-3.8645,-3.8664,-3.8707,-3.8781,-3.8799,-3.8854,-5.362,-5.338,-5.33,-5.3274,-5.3206,-5.3185,-5.3185,-5.3185,-5.3185,-5.3185,-5.2815,-5.1415,-5.0584,-5.0106,-4.8989,-4.809,-4.8187,-4.8246,-4.8265,-4.8324,-4.8324,-4.8324,-4.8012,-4.726,-4.6397,-4.5663,-4.4765,-4.3868,-4.3447,-4.3304,-4.3251,-4.3178,-4.3105,-4.2956,-4.2746,-4.2607,-4.2405,-4.216,-4.1973,-4.178,-4.1538,-4.1353,-4.1192,-4.1018,-4.0924,-4.0823,-4.0752,-4.071,-4.071,-4.0752,-4.0823,-4.0924,-4.1059,-4.1129,-4.1261,-4.1318,-4.1323,-4.1346,-4.1413,-4.1453,-4.1471,-4.1493,-4.1431,-4.1453,-4.1538,-4.16,-4.1644,-4.1688,-4.1644,-4.156,-4.1475,-4.1386,-4.134,-4.1318,-4.1295,-4.1255,-4.1368,-4.1436,-4.1042,-3.9965,-3.915,-3.8463,-3.7782,-3.7698,-3.7576,-3.7521,-3.7466,-3.7374,-3.7299,-3.7261,-3.726,-3.7203,-3.7145,-3.7145,-3.7126,-3.7106,-3.7347,-3.769,-3.7965,-3.8225,-3.8456,-3.8948,-3.8617,-3.836,-3.8243,-3.8149,-3.8149,-3.8189,-3.8441,-3.8585,-3.8661,-3.8673,-3.8707,-3.8707,-3.8707,-5.3716,-5.3519,-5.3341,-5.3274,-5.3206,-5.3206,-5.3185,-5.3185,-5.3185,-5.3167,-5.2983,-5.1305,-5.0552,-5.022,-4.8864,-4.8244,-4.8208,-4.8286,-4.8305,-4.8324,-4.8324,-4.8324,-4.7792,-4.6819,-4.6177,-4.5424,-4.4544,-4.3683,-4.348,-4.3429,-4.334,-4.3251,-4.3178,-4.305,-4.29,-4.2728,-4.2492,-4.229,-4.2142,-4.1952,-4.1714,-4.1582,-4.1431,-4.13,-4.1226,-4.1175,-4.1129,-4.1134,-4.1129,-4.1152,-4.1198,-4.1295,-4.1363,-4.1403,-4.1515,-4.1604,-4.1648,-4.1697,-4.1762,-4.1823,-4.1892,-4.1934,-4.1909,-4.1866,-4.1862,-4.1948,-4.1991,-4.203,-4.1987,-4.1841,-4.1714,-4.1626,-4.1538,-4.1493,-4.1431,-4.1498,-4.1609,-4.1441,-4.1007,-4.0278,-3.9578,-3.8859,-3.8025,-3.7793,-3.7828,-3.7881,-3.7845,-3.781,-3.7721,-3.7577,-3.7558,-3.754,-3.7485,-3.7429,-3.7411,-3.7392,-3.7407,-3.7705,-3.7952,-3.8198,-3.8357,-3.8392,-3.8256,-3.8086,-3.7897,-3.7864,-3.8105,-3.8303,-3.8467,-3.8578,-3.8673,-3.8673,-3.8707,-3.8707,-3.8707,-5.3944,-5.3716,-5.3521,-5.3359,-5.3274,-5.3227,-5.3185,-5.3185,-5.3185,-5.2931,-5.227,-5.122,-5.0393,-4.979,-4.8744,-4.8378,-4.8286,-4.8287,-4.8305,-4.8324,-4.8324,-4.8324,-4.7737,-4.6764,-4.6104,-4.5351,-4.447,-4.3479,-4.3479,-4.3481,-4.3429,-4.334,-4.3305,-4.3214,-4.3068,-4.2919,-4.2652,-4.2452,-4.2331,-4.2124,-4.1956,-4.1827,-4.1719,-4.1631,-4.1542,-4.1493,-4.1471,-4.1475,-4.1493,-4.1475,-4.1582,-4.167,-4.167,-4.1805,-4.1956,-4.2079,-4.21,-4.2103,-4.2145,-4.2187,-4.2251,-4.2313,-4.2331,-4.231,-4.2269,-4.2287,-4.2308,-4.2305,-4.2261,-4.2097,-4.1973,-4.1888,-4.1819,-4.1754,-4.1736,-4.1823,-4.1931,-4.1881,-4.1368,-4.0346,-3.9673,-3.8905,-3.8095,-3.7984,-3.807,-3.8156,-3.8189,-3.8154,-3.8086,-3.7933,-3.7845,-3.7828,-3.7793,-3.7739,-3.7721,-3.7703,-3.7649,-3.7702,-3.7915,-3.8021,-3.7984,-3.7984,-3.7933,-3.7918,-3.7882,-3.8055,-3.8285,-3.843,-3.8512,-3.8611,-3.8673,-3.8707,-3.8707,-3.8707,-3.8707,-5.3569,-5.3348,-5.3469,-5.3234,-5.2815,-5.2732,-5.2582,-5.2362,-5.2582,-5.2289,-5.1463,-5.0637,-5.0031,-4.9554,-4.8746,-4.8305,-4.8305,-4.8305,-4.8324,-4.8324,-4.8324,-4.8324,-4.7774,-4.6801,-4.6049,-4.5314,-4.4488,-4.3479,-4.3479,-4.3479,-4.3463,-4.3428,-4.3411,-4.3358,-4.3233,-4.3087,-4.2938,-4.2728,-4.2552,-4.2371,-4.2228,-4.2103,-4.204,-4.1973,-4.1888,-4.1849,-4.1805,-4.1805,-4.1827,-4.1827,-4.1931,-4.2016,-4.204,-4.2207,-4.231,-4.2409,-4.2409,-4.2371,-4.2409,-4.251,-4.2552,-4.2631,-4.2709,-4.2765,-4.265,-4.2591,-4.2552,-4.251,-4.2427,-4.2346,-4.2243,-4.216,-4.2097,-4.203,-4.2094,-4.2139,-4.2264,-4.2348,-4.1522,-4.0417,-3.9554,-3.8792,-3.8352,-3.8276,-3.8236,-3.8287,-3.832,-3.8302,-3.8269,-3.8203,-3.8136,-3.8119,-3.807,-3.8037,-3.802,-3.795,-3.788,-3.781,-3.7829,-3.7882,-3.7739,-3.7775,-3.7936,-3.7988,-3.8002,-3.8185,-3.8382,-3.8446,-3.8525,-3.8624,-3.8707,-3.8707,-3.8707,-3.8707,-3.8707,-5.2766,-5.2549,-5.3081,-5.2696,-5.1979,-5.1903,-5.1463,-5.0839,-5.1444,-5.1408,-5.0637,-4.9959,-4.9592,-4.9187,-4.86,-4.8343,-4.8324,-4.8324,-4.8324,-4.8324,-4.8324,-4.8324,-4.7884,-4.6856,-4.6214,-4.5443,-4.4599,-4.3718,-4.3516,-4.3479,-4.3479,-4.3479,-4.3428,-4.3394,-4.3358,-4.3269,-4.316,-4.3087,-4.2843,-4.2631,-4.2512,-4.2432,-4.2391,-4.2328,-4.2287,-4.2249,-4.2187,-4.2225,-4.2267,-4.2246,-4.2246,-4.2348,-4.2452,-4.2552,-4.2629,-4.2688,-4.2689,-4.2689,-4.2709,-4.2767,-4.2843,-4.2919,-4.303,-4.305,-4.2957,-4.2842,-4.2765,-4.2707,-4.2647,-4.2566,-4.2447,-4.2366,-4.2284,-4.2264,-4.2305,-4.2389,-4.2492,-4.2379,-4.1684,-4.0637,-3.9802,-3.9051,-3.8445,-3.8348,-3.8382,-3.8433,-3.8449,-3.8465,-3.8449,-3.8417,-3.835,-3.8334,-3.8271,-3.8204,-3.8153,-3.8103,-3.8053,-3.7984,-3.7968,-3.7968,-3.8002,-3.8002,-3.7967,-3.8069,-3.8203,-3.8302,-3.843,-3.8494,-3.8575,-3.8658,-3.8707,-3.8707,-3.8707,-3.8707,-3.8707,-5.2076,-5.1819,-5.1713,-5.1424,-5.1116,-5.1096,-5.0618,-4.9922,-5.0069,-5.0106,-4.9848,-4.9647,-4.9224,-4.8655,-4.8471,-4.8324,-4.8324,-4.8324,-4.8324,-4.8324,-4.8324,-4.8324,-4.814,-4.7204,-4.647,-4.5736,-4.4911,-4.3956,-4.3589,-4.3479,-4.3479,-4.3479,-4.3463,-4.3463,-4.3445,-4.3376,-4.334,-4.3323,-4.316,-4.2938,-4.2805,-4.2727,-4.2649,-4.2589,-4.2512,-4.2512,-4.2492,-4.2492,-4.253,-4.251,-4.251,-4.2611,-4.2768,-4.2899,-4.3012,-4.305,-4.3013,-4.2994,-4.2994,-4.3031,-4.3068,-4.3105,-4.316,-4.316,-4.3142,-4.303,-4.2955,-4.2899,-4.284,-4.2743,-4.2627,-4.2548,-4.247,-4.249,-4.253,-4.2631,-4.2749,-4.2303,-4.1796,-4.094,-4.0098,-3.9418,-3.8773,-3.8494,-3.8525,-3.8578,-3.8627,-3.8627,-3.8611,-3.8578,-3.8481,-3.8449,-3.8399,-3.8334,-3.83,-3.8267,-3.8203,-3.8203,-3.8204,-3.8238,-3.8254,-3.8221,-3.8188,-3.8285,-3.8399,-3.8446,-3.8512,-3.8593,-3.8658,-3.8692,-3.8707,-3.8707,-3.8707,-3.8707,-3.8707,-5.1346,-5.1138,-5.1121,-5.078,-5.0326,-5.0251,-4.9812,-4.9095,-4.9022,-4.9022,-4.9022,-4.8985,-4.8746,-4.8324,-4.8324,-4.8324,-4.8324,-4.8324,-4.8324,-4.8324,-4.8324,-4.8324,-4.7957,-4.7498,-4.6636,-4.5847,-4.4709,-4.3846,-4.3534,-4.3479,-4.3479,-4.3479,-4.3479,-4.3479,-4.3497,-4.3445,-4.3446,-4.3446,-4.3358,-4.3251,-4.3087,-4.3012,-4.2956,-4.2862,-4.2843,-4.2824,-4.2842,-4.2842,-4.2842,-4.2842,-4.2861,-4.29,-4.3013,-4.3087,-4.3142,-4.3178,-4.3178,-4.3214,-4.3214,-4.3251,-4.3286,-4.3286,-4.3322,-4.3339,-4.334,-4.3233,-4.3123,-4.3049,-4.2878,-4.2763,-4.2706,-4.2627,-4.2627,-4.2647,-4.2727,-4.2806,-4.2957,-4.285,-4.2011,-4.0969,-4.0308,-3.988,-3.9234,-3.8609,-3.8624,-3.8624,-3.8692,-3.8692,-3.8707,-3.8707,-3.8609,-3.8544,-3.8512,-3.8462,-3.8412,-3.8415,-3.8382,-3.8399,-3.8415,-3.8366,-3.8334,-3.8366,-3.8399,-3.8446,-3.8496,-3.8528,-3.8593,-3.8658,-3.8692,-3.8707,-3.8707,-3.8707,-3.8707,-3.8707,-3.8707,-5.0563,-5.037,-5.062,-5.0264,-4.95,-4.9445,-4.9022,-4.8416,-4.8343,-4.8343,-4.8379,-4.8398,-4.8324,-4.8324,-4.8324,-4.8324,-4.8324,-4.8324,-4.8324,-4.8324,-4.8324,-4.8324,-4.8086,-4.7627,-4.6838,-4.5681,-4.4378,-4.3864,-4.3497,-4.3479,-4.3479,-4.3479,-4.3479,-4.3479,-4.3479,-4.3479,-4.3497,-4.348,-4.3444,-4.3445,-4.3376,-4.3305,-4.3214,-4.3196,-4.3196,-4.316,-4.3142,-4.3142,-4.316,-4.316,-4.3123,-4.3178,-4.3196,-4.3251,-4.3269,-4.3286,-4.3286,-4.3286,-4.3286,-4.3358,-4.3394,-4.3429,-4.348,-4.3479,-4.348,-4.3393,-4.3269,-4.3142,-4.2955,-4.2841,-4.2803,-4.2746,-4.2783,-4.2841,-4.2918,-4.3013,-4.316,-4.3249,-4.2298,-4.1216,-4.07,-4.029,-3.9609,-3.8982,-3.8707,-3.8707,-3.8707,-3.8707,-3.8707,-3.8707,-3.8658,-3.8643,-3.8627,-3.8578,-3.8525,-3.851,-3.8512,-3.8512,-3.8512,-3.8446,-3.843,-3.8481,-3.8512,-3.8528,-3.8559,-3.8609,-3.8643,-3.8673,-3.8707,-3.8707,-3.8707,-3.8707,-3.8707,-3.8707,-3.8707,-4.9686,-4.9202,-4.9121,-4.8882,-4.8601,-4.8581,-4.8453,-4.8343,-4.8324,-4.8324,-4.8324,-4.8324,-4.8324,-4.8324,-4.8324,-4.8324,-4.8324,-4.8324,-4.8324,-4.8324,-4.8324,-4.8324,-4.8122,-4.7645,-4.7076,-4.581,-4.4415,-4.3644,-4.3479,-4.3479,-4.3479,-4.3479,-4.3479,-4.3479,-4.3479,-4.3479,-4.3479,-4.3479,-4.3479,-4.348,-4.3463,-4.3375,-4.3305,-4.3269,-4.3214,-4.3196,-4.3178,-4.3178,-4.3178,-4.3214,-4.3287,-4.334,-4.3376,-4.3375,-4.341,-4.3393,-4.3392,-4.3392,-4.3428,-4.3428,-4.3445,-4.3463,-4.3479,-4.3479,-4.348,-4.3428,-4.3358,-4.3323,-4.3142,-4.2994,-4.2937,-4.2881,-4.29,-4.3049,-4.316,-4.3233,-4.3358,-4.33,-4.2859,-4.1977,-4.1262,-4.0618,-3.9845,-3.9239,-3.8707,-3.8707,-3.8707,-3.8707,-3.8707,-3.8707,-3.8707,-3.8707,-3.8707,-3.8707,-3.8658,-3.8624,-3.8627,-3.8609,-3.8609,-3.8578,-3.8578,-3.8643,-3.8658,-3.8624,-3.8624,-3.8658,-3.8707,-3.8707,-3.8707,-3.8707,-3.8707,-3.8707,-3.8707,-3.8707,-3.8707]},{"header":{"parameterUnit":"m.s-1","parameterCategory":1,"la1":31.0,"la2":29.5877,"lo1":-88.7671,"lo2":-86.6584,"dy":0.0162,"dx":0.0185,"nx":115,"ny":88,"refTime":"2025-04-13T12:00:00:Z","depth":0,"parameterNumber":3,"parameterNumberName":"V-component_of_WINDS"},"data":[0.0,0.0,0.0,0.0,0.0,0.0,0.0,0.0,0.0,0.0,0.0,0.0,0.0,0.0,0.0,0.0,0.0,0.0,0.0,0.0,0.0,0.0,0.0,0.0,0.0,0.0,0.0,0.0,0.0,0.0,0.0,0.0,0.0,0.0,0.0,0.0,0.0,0.0,0.0,0.0,0.0,0.0,0.0,0.0,0.0,0.0,0.0,0.0,0.0,0.0,0.0,0.0,0.0,0.0,0.0,0.0,0.0,0.0,0.0,0.0,0.0,0.0,0.0,0.0,0.0,0.0,0.0,0.0,0.0,0.0,0.0,0.0,0.0,0.0,0.0,0.0,0.0,0.0,0.0,0.0,0.0,0.0,0.0,0.0,0.0,0.0,0.0,0.0,0.0,0.0,0.0,0.0,0.0,0.0,0.0,0.0,0.0,0.0,0.0,0.0,0.0,0.0,0.0,0.0,0.0,0.0,0.0,0.0,0.0,0.0,0.0,0.0,0.0,0.0,0.0,0.0,0.0,0.0,0.0,0.0,0.0,0.0,0.0,0.0,0.0,0.0,0.0,0.0,0.0,0.0,0.0,0.0,0.0,0.0,0.0,0.0,0.0,0.0,0.0,0.0,0.0,0.0,0.0,0.0,0.0,0.0,0.0,0.0,0.0,0.0,0.0,0.0,0.0,0.0,0.0,0.0,0.0,0.0,0.0,0.0,0.0,0.0,0.0,0.0,0.0,0.0,0.0,0.0,0.0,0.0,0.0,0.0,0.0,0.0,0.0,0.0,0.0,0.0,0.0,0.0,0.0,0.0,0.0,0.0,0.0,0.0,0.0,0.0,0.0,0.0,0.0,0.0,0.0,0.0,0.0,0.0,0.0,0.0,0.0,0.0,0.0,0.0,0.0,0.0,0.0,0.0,0.0,0.0,0.0,0.0,0.0,0.0,0.0,0.0,0.0,0.0,0.0,0.0,0.0,0.0,0.0,0.0,0.0,0.0,0.0,0.0,0.0,0.0,0.0,0.0,0.0,0.0,0.0,0.0,0.0,0.0,0.0,0.0,0.0,0.0,0.0,0.0,0.0,0.0,0.0,0.0,0.0,0.0,0.0,0.0,0.0,0.0,0.0,0.0,0.0,0.0,0.0,0.0,0.0,0.0,0.0,0.0,0.0,0.0,0.0,0.0,0.0,0.0,0.0,0.0,0.0,0.0,0.0,0.0,0.0,0.0,0.0,0.0,0.0,0.0,0.0,0.0,0.0,0.0,0.0,0.0,0.0,0.0,0.0,0.0,0.0,0.0,0.0,0.0,0.0,0.0,0.0,0.0,0.0,0.0,0.0,0.0,0.0,0.0,0.0,0.0,0.0,0.0,0.0,0.0,0.0,0.0,0.0,0.0,0.0,0.0,0.0,0.0,0.0,0.0,0.0,0.0,0.0,0.0,0.0,0.0,0.0,0.0,0.0,0.0,0.0,0.0,0.0,0.0,0.0,0.0,0.0,0.0,0.0,0.0,0.0,0.0,0.0,0.0,0.0,0.0,0.0,0.0,0.0,0.0,0.0,0.0,0.0,0.0,0.0,0.0,0.0,0.0,0.0,0.0,0.0,0.0,0.0,0.0,0.0,0.0,0.0,0.0,0.0,0.0,0.0,0.0,0.0,0.0,0.0,0.0,0.0,0.0,0.0,0.0,0.0,0.0,0.0,0.0,0.0,0.0,0.0,0.0,0.0,0.0,0.0,0.0,0.0,0.0,0.0,0.0,0.0,0.0,0.0,0.0,0.0,0.0,0.0,0.0,0.0,0.0,0.0,0.0,0.0,0.0,0.0,0.0,0.0,0.0,0.0,0.0,0.0,0.0,0.0,0.0,0.0,0.0,0.0,0.0,0.0,0.0,0.0,0.0,0.0,0.0,0.0,0.0,0.0,0.0,0.0,0.0,0.0,0.0,0.0,0.0,0.0,0.0,0.0,0.0,0.0,0.0,0.0,0.0,0.0,0.0,0.0,0.0,0.0,0.0,0.0,0.0,0.0,0.0,0.0,0.0,0.0,0.0,0.0,0.0,0.0,0.0,0.0,0.0,0.0,0.0,0.0,0.0,0.0,0.0,0.0,0.0,0.0,0.0,0.0,0.0,0.0,0.0,0.0,0.0,0.0,0.0,0.0,0.0,0.0,0.0,0.0,0.0,0.0,0.0,0.0,0.0,0.0,0.0,0.0,0.0,0.0,0.0,0.0,0.0,0.0,0.0,0.0,0.0,0.0,0.0,0.0,0.0,0.0,0.0,0.0,0.0,0.0,0.0,0.0,0.0,0.0,0.0,0.0,0.0,0.0,0.0,0.0,0.0,0.0,0.0,0.0,0.0,0.0,0.0,0.0,0.0,0.0,0.0,0.0,0.0,0.0,0.0,0.0,0.0,0.0,0.0,0.0,0.0,0.0,0.0,0.0,0.0,0.0,0.0,0.0,0.0,0.0,0.0,0.0,0.0,0.0,0.0,0.0,0.0,0.0,0.0,0.0,0.0,0.0,0.0,0.0,0.0,0.0,0.0,0.0,0.0,0.0,0.0,0.0,0.0,0.0,0.0,0.0,0.0,0.0,0.0,0.0,0.0,0.0,0.0,0.0,0.0,0.0,0.0,0.0,0.0,0.0,0.0,0.0,0.0,0.0,0.0,0.0,0.0,0.0,0.0,0.0,0.0,0.0,0.0,0.0,0.0,0.0,0.0,0.0,0.0,0.0,0.0,0.0,0.0,0.0,0.0,0.0,0.0,0.0,0.0,0.0,0.0,0.0,0.0,0.0,0.0,0.0,0.0,0.0,0.0,0.0,0.0,0.0,0.0,0.0,0.0,0.0,0.0,0.0,0.0,0.0,0.0,0.0,0.0,0.0,0.0,0.0,0.0,0.0,0.0,0.0,0.0,0.0,0.0,0.0,0.0,0.0,0.0,0.0,0.0,0.0,0.0,0.0,0.0,0.0,0.0,0.0,0.0,0.0,0.0,0.0,0.0,0.0,0.0,0.0,0.0,0.0,0.0,0.0,0.0,0.0,0.0,0.0,0.0,0.0,0.0,0.0,0.0,0.0,0.0,0.0,0.0,0.0,0.0,0.0,0.0,0.0,0.0,0.0,0.0,0.0,0.0,0.0,0.0,0.0,0.0,0.0,0.0,0.0,0.0,0.0,0.0,0.0,0.0,0.0,0.0,0.0,0.0,0.0,0.0,0.0,0.0,0.0,0.0,0.0,0.0,0.0,0.0,0.0,0.0,0.0,0.0,0.0,0.0,0.0,0.0,0.0,0.0,0.0,0.0,0.0,0.0,0.0,0.0,0.0,0.0,0.0,0.0,0.0,0.0,0.0,0.0,0.0,0.0,0.0,0.0,0.0,0.0,0.0,0.0,0.0,0.0,0.0,0.0,0.0,0.0,0.0,0.0,0.0,0.0,0.0,0.0,0.0,0.0,0.0,0.0,0.0,0.0,0.0,0.0,0.0,0.0,0.0,0.0,0.0,0.0,0.0,0.0,0.0,0.0,0.0,0.0,0.0,0.0,0.0,0.0,0.0,0.0,0.0,0.0,0.0,0.0,0.0,0.0,0.0,0.0,0.0,0.0,0.0,0.0,0.0,0.0,0.0,0.0,0.0,0.0,0.0,0.0,0.0,0.0,0.0,0.0,0.0,0.0,0.0,0.0,0.0,0.0,0.0,0.0,0.0,0.0,0.0,0.0,0.0,0.0,0.0,0.0,0.0,0.0,0.0,0.0,0.0,0.0,0.0,0.0,0.0,0.0,0.0,0.0,0.0,0.0,0.0,0.0,0.0,0.0,0.0,0.0,0.0,0.0,0.0,0.0,0.0,0.0,0.0,0.0,0.0,0.0,0.0,0.0,0.0,0.0,0.0,0.0,0.0,0.0,0.0,0.0,0.0,0.0,0.0,0.0,0.0,0.0,0.0,0.0,0.0,0.0,0.0,0.0,0.0,0.0,0.0,0.0,0.0,0.0,0.0,0.0,0.0,0.0,0.0,0.0,0.0,0.0,0.0,0.0,0.0,0.0,0.0,0.0,0.0,0.0,0.0,0.0,0.0,0.0,0.0,0.0,0.0,0.0,0.0,0.0,0.0,0.0,0.0,0.0,0.0,0.0,0.0,0.0,0.0,0.0,0.0,0.0,0.0,0.0,0.0,0.0,0.0,0.0,0.0,0.0,0.0,0.0,0.0,0.0,0.0,0.0,0.0,0.0,0.0,0.0,0.0,0.0,0.0,0.0,0.0,0.0,0.0,0.0,-1.2983,0.0,0.0,0.0,0.0,0.0,0.0,0.0,0.0,0.0,0.0,0.0,0.0,0.0,0.0,0.0,0.0,0.0,0.0,0.0,0.0,0.0,0.0,0.0,0.0,0.0,0.0,0.0,0.0,0.0,0.0,0.0,0.0,0.0,0.0,0.0,0.0,0.0,0.0,0.0,0.0,0.0,0.0,0.0,0.0,0.0,0.0,0.0,0.0,0.0,0.0,0.0,0.0,0.0,0.0,0.0,0.0,0.0,0.0,0.0,0.0,0.0,0.0,0.0,0.0,0.0,0.0,0.0,0.0,0.0,0.0,0.0,0.0,0.0,0.0,0.0,0.0,0.0,0.0,0.0,0.0,0.0,0.0,0.0,0.0,0.0,0.0,0.0,0.0,0.0,0.0,0.0,0.0,0.0,0.0,0.0,0.0,0.0,0.0,0.0,0.0,0.0,0.0,0.0,0.0,0.0,0.0,0.0,0.0,0.0,0.0,-1.4169,-1.3315,-1.2827,-1.2665,-1.2755,0.0,0.0,0.0,0.0,0.0,0.0,0.0,0.0,0.0,0.0,0.0,0.0,0.0,0.0,0.0,0.0,0.0,0.0,0.0,0.0,0.0,0.0,0.0,0.0,0.0,0.0,0.0,0.0,0.0,0.0,0.0,0.0,0.0,0.0,0.0,0.0,0.0,0.0,0.0,0.0,0.0,0.0,0.0,0.0,0.0,0.0,0.0,0.0,0.0,0.0,0.0,0.0,0.0,0.0,0.0,0.0,0.0,0.0,0.0,0.0,0.0,0.0,0.0,0.0,0.0,0.0,0.0,0.0,0.0,0.0,0.0,0.0,0.0,0.0,0.0,0.0,0.0,0.0,0.0,0.0,0.0,0.0,0.0,0.0,0.0,0.0,0.0,0.0,0.0,0.0,0.0,0.0,0.0,0.0,0.0,0.0,0.0,0.0,0.0,0.0,0.0,0.0,0.0,0.0,0.0,0.0,0.0,0.0,0.0,0.0,0.0,0.0,-1.255,-1.2475,-1.2738,0.0,0.0,0.0,0.0,0.0,0.0,0.0,0.0,0.0,0.0,0.0,0.0,0.0,0.0,0.0,0.0,0.0,0.0,0.0,0.0,0.0,0.0,0.0,0.0,0.0,0.0,0.0,0.0,0.0,0.0,0.0,0.0,0.0,0.0,0.0,0.0,0.0,0.0,0.0,0.0,0.0,0.0,0.0,0.0,0.0,0.0,0.0,0.0,0.0,0.0,0.0,0.0,0.0,0.0,0.0,0.0,0.0,0.0,0.0,0.0,0.0,0.0,0.0,0.0,0.0,0.0,0.0,0.0,0.0,0.0,0.0,0.0,0.0,0.0,0.0,0.0,0.0,0.0,0.0,0.0,0.0,0.0,0.0,0.0,0.0,0.0,0.0,0.0,0.0,0.0,0.0,0.0,0.0,0.0,0.0,0.0,0.0,0.0,0.0,0.0,0.0,0.0,0.0,0.0,0.0,0.0,0.0,0.0,0.0,0.0,-1.363,-1.2491,-1.2441,0.0,-1.3328,0.0,0.0,0.0,0.0,0.0,0.0,0.0,0.0,0.0,0.0,0.0,0.0,0.0,0.0,0.0,0.0,0.0,0.0,0.0,0.0,0.0,0.0,0.0,0.0,0.0,0.0,0.0,0.0,0.0,0.0,0.0,0.0,0.0,0.0,0.0,0.0,0.0,0.0,0.0,0.0,0.0,0.0,0.0,0.0,0.0,0.0,0.0,0.0,0.0,0.0,0.0,0.0,0.0,0.0,0.0,0.0,0.0,0.0,0.0,0.0,0.0,0.0,0.0,0.0,0.0,0.0,0.0,0.0,0.0,0.0,0.0,0.0,0.0,0.0,0.0,0.0,0.0,0.0,0.0,0.0,0.0,0.0,0.0,0.0,0.0,0.0,0.0,0.0,0.0,0.0,0.0,0.0,0.0,0.0,0.0,0.0,0.0,0.0,0.0,0.0,0.0,0.0,0.0,0.0,0.0,0.0,0.0,0.0,0.0,0.0,-1.3197,-1.2169,-1.2332,-1.2842,0.0,0.0,0.0,0.0,0.0,0.0,0.0,0.0,0.0,0.0,0.0,0.0,0.0,0.0,0.0,0.0,0.0,0.0,0.0,0.0,0.0,0.0,0.0,0.0,0.0,0.0,0.0,0.0,0.0,0.0,0.0,0.0,0.0,0.0,0.0,0.0,0.0,0.0,0.0,0.0,0.0,0.0,0.0,0.0,0.0,0.0,0.0,0.0,0.0,0.0,0.0,0.0,0.0,0.0,0.0,0.0,0.0,0.0,0.0,0.0,0.0,0.0,0.0,0.0,0.0,0.0,0.0,0.0,0.0,0.0,0.0,0.0,0.0,0.0,0.0,0.0,0.0,0.0,0.0,0.0,0.0,0.0,0.0,0.0,0.0,0.0,0.0,0.0,0.0,0.0,0.0,0.0,0.0,0.0,0.0,0.0,0.0,0.0,0.0,0.0,0.0,0.0,0.0,0.0,0.0,0.0,0.0,0.0,0.0,0.0,-1.4013,-1.2881,-1.206,-1.2273,-1.2989,-1.4146,0.0,0.0,0.0,0.0,0.0,0.0,0.0,0.0,0.0,0.0,0.0,0.0,0.0,0.0,0.0,0.0,0.0,0.0,0.0,0.0,0.0,0.0,0.0,0.0,0.0,0.0,0.0,0.0,0.0,0.0,0.0,0.0,0.0,0.0,0.0,0.0,0.0,0.0,0.0,0.0,0.0,0.0,0.0,0.0,0.0,0.0,0.0,0.0,0.0,0.0,0.0,0.0,0.0,0.0,0.0,0.0,0.0,0.0,0.0,0.0,0.0,0.0,0.0,0.0,0.0,0.0,0.0,0.0,0.0,0.0,0.0,0.0,0.0,0.0,0.0,0.0,0.0,0.0,0.0,0.0,0.0,0.0,0.0,0.0,0.0,0.0,0.0,0.0,0.0,0.0,0.0,0.0,0.0,0.0,0.0,0.0,0.0,0.0,0.0,0.0,0.0,0.0,0.0,0.0,0.0,0.0,0.0,0.0,-1.5066,-1.39,-1.2876,-1.201,-1.2278,-1.2989,0.0,0.0,0.0,0.0,0.0,0.0,0.0,0.0,0.0,0.0,0.0,0.0,0.0,0.0,0.0,0.0,0.0,0.0,0.0,0.0,0.0,0.0,0.0,0.0,0.0,0.0,0.0,0.0,0.0,0.0,0.0,0.0,0.0,0.0,0.0,0.0,0.0,0.0,0.0,0.0,0.0,0.0,0.0,0.0,0.0,0.0,0.0,0.0,0.0,0.0,0.0,0.0,0.0,0.0,0.0,0.0,0.0,0.0,0.0,0.0,0.0,0.0,0.0,0.0,0.0,0.0,0.0,0.0,0.0,0.0,0.0,0.0,0.0,0.0,0.0,0.0,0.0,0.0,0.0,0.0,0.0,0.0,0.0,0.0,0.0,0.0,0.0,0.0,0.0,0.0,0.0,0.0,0.0,0.0,0.0,0.0,0.0,0.0,0.0,0.0,0.0,0.0,0.0,0.0,0.0,0.0,0.0,0.0,0.0,-1.4756,-1.3083,-1.2119,-1.1915,-1.2402,-1.3372,0.0,0.0,0.0,0.0,0.0,0.0,0.0,0.0,0.0,0.0,0.0,0.0,0.0,0.0,0.0,0.0,0.0,0.0,0.0,0.0,0.0,0.0,0.0,0.0,0.0,0.0,0.0,0.0,0.0,0.0,0.0,0.0,0.0,0.0,0.0,0.0,0.0,0.0,0.0,0.0,0.0,0.0,0.0,0.0,0.0,0.0,0.0,0.0,0.0,0.0,0.0,0.0,0.0,0.0,0.0,0.0,0.0,0.0,0.0,0.0,0.0,0.0,0.0,0.0,0.0,0.0,0.0,0.0,0.0,0.0,0.0,0.0,0.0,0.0,0.0,0.0,0.0,0.0,0.0,0.0,0.0,0.0,0.0,0.0,0.0,0.0,0.0,0.0,0.0,0.0,0.0,0.0,0.0,0.0,0.0,0.0,0.0,0.0,0.0,0.0,0.0,0.0,0.0,0.0,0.0,0.0,0.0,0.0,0.0,-1.4005,0.0,-1.1788,-1.1854,-1.2561,-1.3593,0.0,0.0,0.0,0.0,0.0,0.0,0.0,0.0,0.0,0.0,0.0,0.0,0.0,0.0,0.0,0.0,0.0,0.0,0.0,0.0,0.0,0.0,0.0,0.0,0.0,0.0,0.0,0.0,0.0,0.0,0.0,0.0,0.0,0.0,0.0,0.0,0.0,0.0,0.0,0.0,0.0,0.0,0.0,0.0,0.0,0.0,0.0,0.0,0.0,0.0,0.0,0.0,0.0,0.0,0.0,0.0,0.0,0.0,0.0,0.0,0.0,0.0,0.0,0.0,0.0,0.0,0.0,0.0,0.0,0.0,0.0,0.0,0.0,0.0,0.0,0.0,0.0,0.0,0.0,0.0,0.0,0.0,0.0,0.0,0.0,0.0,0.0,0.0,0.0,0.0,0.0,0.0,0.0,0.0,0.0,0.0,0.0,0.0,0.0,0.0,0.0,0.0,0.0,0.0,0.0,0.0,0.0,0.0,-1.542,-1.2855,-1.2323,-1.2043,-1.1824,-1.2688,-1.3737,0.0,0.0,0.0,0.0,0.0,0.0,0.0,0.0,0.0,0.0,0.0,0.0,0.0,0.0,0.0,0.0,0.0,0.0,0.0,0.0,0.0,0.0,0.0,0.0,0.0,0.0,0.0,0.0,0.0,0.0,0.0,0.0,0.0,0.0,0.0,0.0,0.0,0.0,0.0,0.0,0.0,0.0,0.0,0.0,0.0,0.0,0.0,0.0,0.0,0.0,0.0,0.0,0.0,0.0,0.0,0.0,0.0,0.0,0.0,0.0,0.0,0.0,0.0,0.0,0.0,0.0,0.0,0.0,0.0,0.0,0.0,0.0,0.0,0.0,0.0,0.0,0.0,0.0,0.0,0.0,0.0,0.0,0.0,0.0,0.0,0.0,0.0,0.0,0.0,0.0,0.0,0.0,0.0,0.0,0.0,0.0,0.0,0.0,0.0,0.0,0.0,0.0,0.0,0.0,0.0,0.0,0.0,0.0,0.0,-1.3159,-1.2696,-1.2467,-1.2601,-1.3294,-1.4366,0.0,0.0,0.0,0.0,0.0,0.0,0.0,0.0,0.0,0.0,0.0,0.0,0.0,0.0,0.0,0.0,0.0,0.0,0.0,0.0,0.0,0.0,0.0,0.0,0.0,0.0,0.0,0.0,0.0,0.0,0.0,0.0,0.0,0.0,0.0,0.0,0.0,0.0,0.0,0.0,0.0,0.0,0.0,0.0,0.0,0.0,0.0,0.0,0.0,0.0,0.0,0.0,0.0,0.0,0.0,0.0,0.0,0.0,0.0,0.0,0.0,0.0,0.0,0.0,0.0,0.0,0.0,0.0,0.0,0.0,0.0,0.0,0.0,0.0,0.0,0.0,0.0,0.0,0.0,0.0,0.0,0.0,0.0,0.0,0.0,0.0,0.0,0.0,0.0,0.0,0.0,0.0,0.0,0.0,0.0,0.0,0.0,0.0,0.0,0.0,0.0,0.0,0.0,0.0,0.0,0.0,0.0,0.0,0.0,-1.3648,-1.3124,-1.2853,-1.2917,-1.3668,-1.4772,-1.6156,0.0,0.0,0.0,0.0,0.0,0.0,0.0,0.0,0.0,0.0,0.0,0.0,0.0,0.0,0.0,0.0,0.0,0.0,0.0,0.0,0.0,0.0,0.0,0.0,0.0,0.0,0.0,0.0,0.0,0.0,0.0,0.0,0.0,0.0,0.0,0.0,0.0,0.0,0.0,0.0,0.0,0.0,0.0,0.0,0.0,0.0,0.0,0.0,0.0,0.0,0.0,0.0,0.0,0.0,0.0,0.0,0.0,0.0,0.0,0.0,0.0,0.0,0.0,0.0,0.0,0.0,0.0,0.0,0.0,0.0,0.0,0.0,0.0,0.0,0.0,0.0,0.0,0.0,0.0,0.0,0.0,0.0,0.0,0.0,0.0,0.0,0.0,0.0,0.0,0.0,0.0,0.0,0.0,0.0,0.0,0.0,0.0,0.0,0.0,0.0,0.0,0.0,0.0,0.0,0.0,0.0,0.0,0.0,-1.4232,-1.3569,-1.3173,-1.2999,-1.3874,-1.4935,0.0,0.0,0.0,0.0,0.0,0.0,0.0,0.0,0.0,0.0,0.0,0.0,0.0,0.0,0.0,0.0,0.0,0.0,0.0,0.0,0.0,0.0,0.0,0.0,0.0,0.0,0.0,0.0,0.0,0.0,0.0,0.0,0.0,0.0,0.0,0.0,0.0,0.0,0.0,0.0,0.0,0.0,0.0,0.0,0.0,0.0,0.0,0.0,0.0,0.0,0.0,0.0,0.0,0.0,0.0,0.0,0.0,0.0,0.0,0.0,0.0,0.0,0.0,0.0,0.0,0.0,0.0,0.0,0.0,0.0,0.0,0.0,0.0,0.0,0.0,0.0,0.0,0.0,0.0,0.0,0.0,0.0,0.0,0.0,0.0,0.0,0.0,0.0,0.0,0.0,0.0,0.0,0.0,0.0,0.0,0.0,0.0,0.0,0.0,0.0,0.0,0.0,0.0,0.0,0.0,0.0,0.0,0.0,0.0,-1.4222,-1.4052,-1.3904,-1.391,-1.4802,-1.5875,0.0,0.0,0.0,0.0,0.0,0.0,0.0,0.0,0.0,0.0,0.0,0.0,0.0,0.0,0.0,0.0,0.0,0.0,0.0,0.0,0.0,0.0,0.0,0.0,0.0,0.0,0.0,0.0,0.0,0.0,0.0,0.0,0.0,0.0,0.0,0.0,0.0,0.0,0.0,0.0,0.0,0.0,0.0,0.0,0.0,0.0,0.0,0.0,0.0,0.0,0.0,0.0,0.0,0.0,0.0,0.0,0.0,0.0,0.0,0.0,0.0,0.0,0.0,0.0,0.0,0.0,0.0,0.0,0.0,0.0,0.0,0.0,0.0,0.0,0.0,0.0,0.0,0.0,0.0,0.0,0.0,0.0,0.0,0.0,0.0,0.0,0.0,0.0,0.0,0.0,0.0,0.0,0.0,0.0,0.0,0.0,0.0,0.0,0.0,0.0,0.0,0.0,0.0,0.0,0.0,0.0,0.0,0.0,-1.5676,-1.4961,-1.458,-1.451,-1.4901,-1.5536,-1.6486,0.0,0.0,0.0,0.0,0.0,0.0,0.0,0.0,0.0,0.0,0.0,0.0,0.0,0.0,0.0,0.0,0.0,0.0,0.0,0.0,0.0,0.0,0.0,0.0,0.0,0.0,0.0,0.0,0.0,0.0,0.0,0.0,0.0,0.0,0.0,0.0,0.0,0.0,0.0,0.0,0.0,0.0,0.0,0.0,0.0,0.0,0.0,0.0,0.0,0.0,0.0,0.0,0.0,0.0,0.0,0.0,0.0,0.0,0.0,0.0,0.0,0.0,0.0,0.0,0.0,0.0,0.0,0.0,0.0,0.0,0.0,0.0,0.0,0.0,0.0,0.0,0.0,0.0,0.0,0.0,0.0,0.0,0.0,0.0,0.0,0.0,0.0,0.0,0.0,0.0,0.0,0.0,0.0,0.0,0.0,0.0,0.0,0.0,0.0,0.0,0.0,0.0,0.0,0.0,0.0,0.0,0.0,0.0,-1.6447,-1.593,-1.5228,-1.5223,-1.604,-1.6217,-1.6915,0.0,0.0,0.0,0.0,0.0,0.0,0.0,0.0,0.0,0.0,0.0,0.0,0.0,0.0,0.0,0.0,0.0,0.0,0.0,0.0,0.0,0.0,0.0,0.0,0.0,0.0,0.0,0.0,0.0,0.0,0.0,0.0,0.0,0.0,0.0,0.0,0.0,0.0,0.0,0.0,0.0,0.0,0.0,0.0,0.0,0.0,0.0,0.0,0.0,0.0,0.0,0.0,0.0,0.0,0.0,0.0,0.0,0.0,0.0,0.0,0.0,0.0,0.0,0.0,0.0,0.0,0.0,0.0,0.0,0.0,0.0,0.0,0.0,0.0,0.0,0.0,0.0,0.0,0.0,0.0,0.0,0.0,0.0,0.0,0.0,0.0,0.0,0.0,0.0,0.0,0.0,0.0,0.0,0.0,0.0,0.0,0.0,0.0,0.0,0.0,0.0,0.0,0.0,0.0,0.0,0.0,0.0,0.0,-1.7386,-1.6381,-1.6392,-1.6642,-1.7041,-1.7197,-1.7549,0.0,0.0,0.0,0.0,0.0,0.0,0.0,0.0,0.0,0.0,0.0,0.0,0.0,0.0,0.0,0.0,0.0,0.0,0.0,0.0,0.0,0.0,0.0,0.0,0.0,0.0,0.0,0.0,0.0,0.0,0.0,0.0,0.0,0.0,0.0,0.0,0.0,0.0,0.0,0.0,0.0,0.0,0.0,0.0,0.0,0.0,0.0,0.0,-1.7417,0.0,0.0,0.0,0.0,0.0,0.0,0.0,0.0,0.0,0.0,0.0,0.0,0.0,0.0,0.0,0.0,0.0,0.0,0.0,0.0,0.0,0.0,0.0,0.0,0.0,0.0,0.0,0.0,0.0,0.0,0.0,0.0,0.0,0.0,0.0,0.0,0.0,0.0,0.0,0.0,0.0,0.0,0.0,0.0,0.0,0.0,0.0,0.0,0.0,0.0,0.0,0.0,0.0,0.0,0.0,0.0,0.0,0.0,0.0,-1.8172,-1.7341,-1.7351,-1.7535,-1.8004,-1.8502,-1.895,0.0,0.0,0.0,0.0,0.0,0.0,0.0,0.0,0.0,0.0,0.0,0.0,0.0,0.0,0.0,0.0,0.0,0.0,0.0,0.0,0.0,0.0,0.0,0.0,0.0,0.0,0.0,0.0,0.0,0.0,0.0,0.0,0.0,0.0,0.0,0.0,0.0,0.0,0.0,0.0,0.0,0.0,0.0,0.0,0.0,0.0,0.0,0.0,0.0,0.0,0.0,0.0,0.0,0.0,0.0,0.0,0.0,0.0,0.0,0.0,0.0,0.0,0.0,0.0,0.0,0.0,0.0,0.0,0.0,0.0,0.0,0.0,0.0,0.0,0.0,0.0,0.0,0.0,0.0,0.0,0.0,0.0,0.0,0.0,0.0,0.0,0.0,0.0,0.0,0.0,0.0,0.0,0.0,0.0,0.0,0.0,0.0,0.0,0.0,0.0,0.0,0.0,0.0,0.0,0.0,0.0,0.0,-1.9614,-1.8832,-1.8392,-1.8298,-1.8477,-1.9004,-1.996,-2.0633,-2.0929,0.0,0.0,0.0,0.0,0.0,0.0,0.0,0.0,0.0,0.0,0.0,0.0,0.0,0.0,0.0,0.0,0.0,0.0,0.0,0.0,0.0,0.0,0.0,0.0,0.0,0.0,0.0,0.0,0.0,0.0,0.0,0.0,0.0,0.0,0.0,0.0,0.0,0.0,-1.7489,-1.5909,0.0,0.0,0.0,0.0,0.0,0.0,0.0,0.0,-1.9354,0.0,0.0,0.0,0.0,0.0,0.0,0.0,0.0,0.0,0.0,0.0,0.0,0.0,0.0,0.0,0.0,0.0,0.0,0.0,0.0,0.0,0.0,0.0,0.0,0.0,0.0,0.0,0.0,0.0,0.0,0.0,0.0,0.0,0.0,0.0,0.0,0.0,0.0,0.0,0.0,0.0,0.0,0.0,0.0,0.0,0.0,0.0,0.0,0.0,0.0,0.0,0.0,0.0,0.0,0.0,0.0,-2.0716,-2.0461,-1.9925,-1.9139,-1.9775,-2.0168,-2.0301,-2.1244,-2.197,-2.2403,0.0,0.0,0.0,0.0,0.0,0.0,0.0,0.0,0.0,0.0,0.0,0.0,0.0,0.0,0.0,0.0,0.0,0.0,0.0,0.0,0.0,0.0,0.0,0.0,0.0,0.0,0.0,0.0,0.0,0.0,0.0,0.0,0.0,0.0,0.0,0.0,0.0,0.0,0.0,-1.5559,-1.4552,0.0,0.0,0.0,0.0,0.0,0.0,0.0,0.0,-2.0696,0.0,0.0,0.0,0.0,0.0,0.0,0.0,0.0,0.0,0.0,0.0,0.0,0.0,0.0,0.0,0.0,0.0,0.0,0.0,0.0,0.0,0.0,0.0,0.0,0.0,0.0,0.0,0.0,0.0,0.0,0.0,0.0,0.0,0.0,0.0,0.0,0.0,0.0,0.0,0.0,0.0,0.0,0.0,0.0,0.0,0.0,0.0,0.0,0.0,0.0,0.0,0.0,0.0,0.0,0.0,-2.1467,-2.1228,-2.0758,-2.0059,-2.0739,-2.1133,-2.1141,-2.2087,-2.2736,0.0,0.0,0.0,0.0,0.0,0.0,0.0,0.0,0.0,0.0,0.0,0.0,0.0,0.0,0.0,0.0,0.0,0.0,0.0,0.0,0.0,0.0,0.0,0.0,0.0,0.0,0.0,0.0,0.0,0.0,0.0,0.0,0.0,0.0,0.0,0.0,0.0,0.0,0.0,0.0,-1.5992,-1.5143,-1.4671,0.0,0.0,0.0,0.0,0.0,0.0,-2.0181,-2.1259,0.0,0.0,0.0,0.0,0.0,0.0,0.0,0.0,0.0,0.0,0.0,0.0,0.0,0.0,0.0,0.0,0.0,0.0,0.0,0.0,0.0,0.0,0.0,0.0,0.0,0.0,0.0,0.0,0.0,0.0,0.0,0.0,0.0,0.0,0.0,0.0,0.0,0.0,0.0,0.0,0.0,0.0,0.0,0.0,0.0,0.0,0.0,0.0,0.0,0.0,0.0,0.0,0.0,0.0,0.0,-2.2066,-2.184,-2.1481,-2.1027,-2.1548,-2.1871,-2.1975,-2.2787,-2.3336,0.0,0.0,0.0,0.0,0.0,0.0,0.0,0.0,0.0,0.0,0.0,0.0,0.0,0.0,0.0,0.0,0.0,0.0,0.0,0.0,0.0,0.0,0.0,0.0,0.0,0.0,0.0,0.0,0.0,0.0,0.0,0.0,0.0,0.0,0.0,0.0,0.0,0.0,0.0,0.0,0.0,-1.5809,-1.5319,-1.5588,0.0,0.0,0.0,0.0,-1.997,-2.0846,0.0,0.0,0.0,0.0,0.0,0.0,0.0,0.0,0.0,0.0,0.0,0.0,0.0,0.0,0.0,0.0,0.0,0.0,0.0,0.0,0.0,0.0,0.0,0.0,0.0,0.0,0.0,0.0,0.0,0.0,0.0,0.0,0.0,0.0,0.0,0.0,0.0,0.0,0.0,0.0,0.0,0.0,0.0,0.0,0.0,0.0,0.0,0.0,0.0,0.0,0.0,0.0,0.0,0.0,0.0,0.0,-2.2007,-2.2037,-2.2035,-2.1975,-2.2316,-2.2741,-2.3271,-2.3903,-2.4155,0.0,0.0,0.0,0.0,0.0,0.0,0.0,0.0,0.0,0.0,0.0,0.0,0.0,0.0,0.0,0.0,0.0,0.0,0.0,0.0,0.0,0.0,0.0,0.0,0.0,0.0,0.0,0.0,0.0,0.0,0.0,0.0,0.0,0.0,0.0,0.0,0.0,0.0,0.0,0.0,0.0,-1.625,-1.6151,-1.6665,-1.7248,0.0,0.0,-1.9454,-2.0423,-2.1159,0.0,0.0,0.0,0.0,0.0,0.0,0.0,0.0,0.0,0.0,0.0,0.0,0.0,0.0,0.0,0.0,0.0,0.0,0.0,0.0,0.0,0.0,0.0,0.0,0.0,0.0,0.0,0.0,0.0,0.0,0.0,0.0,0.0,0.0,0.0,0.0,0.0,0.0,0.0,0.0,0.0,0.0,0.0,0.0,0.0,0.0,0.0,0.0,0.0,0.0,0.0,0.0,0.0,0.0,0.0,-2.3005,-2.2545,-2.2759,-2.2716,-2.2422,-2.2856,-2.3273,-2.3729,-2.4335,-2.4582,0.0,0.0,0.0,0.0,0.0,0.0,0.0,0.0,0.0,0.0,0.0,0.0,0.0,0.0,0.0,0.0,0.0,0.0,0.0,0.0,0.0,0.0,0.0,0.0,0.0,0.0,0.0,0.0,0.0,0.0,0.0,0.0,0.0,0.0,0.0,0.0,0.0,0.0,0.0,0.0,0.0,0.0,-1.7334,-1.7807,0.0,0.0,0.0,-2.0582,-2.1373,0.0,0.0,0.0,0.0,0.0,0.0,0.0,0.0,0.0,0.0,0.0,0.0,0.0,0.0,0.0,0.0,0.0,0.0,0.0,0.0,0.0,0.0,0.0,0.0,0.0,0.0,0.0,0.0,0.0,0.0,0.0,0.0,0.0,0.0,0.0,0.0,0.0,0.0,0.0,0.0,0.0,0.0,0.0,0.0,0.0,0.0,0.0,0.0,0.0,0.0,0.0,0.0,0.0,0.0,0.0,0.0,0.0,-2.3064,-2.3416,-2.3431,-2.3084,-2.3501,-2.3901,-2.4261,-2.4647,0.0,0.0,0.0,0.0,0.0,0.0,0.0,0.0,0.0,0.0,0.0,0.0,0.0,0.0,0.0,0.0,0.0,0.0,0.0,0.0,0.0,0.0,0.0,0.0,0.0,0.0,0.0,-2.0315,0.0,0.0,0.0,0.0,0.0,0.0,0.0,0.0,0.0,0.0,0.0,0.0,0.0,0.0,-1.839,-1.8474,-1.9062,-1.965,0.0,0.0,-2.1666,-2.235,-2.2622,-2.3079,0.0,0.0,0.0,0.0,0.0,0.0,0.0,0.0,0.0,0.0,0.0,0.0,0.0,0.0,0.0,0.0,0.0,0.0,0.0,0.0,0.0,0.0,0.0,0.0,0.0,0.0,0.0,0.0,0.0,0.0,0.0,0.0,0.0,0.0,0.0,0.0,0.0,0.0,0.0,0.0,0.0,0.0,0.0,0.0,0.0,0.0,0.0,0.0,0.0,0.0,0.0,0.0,0.0,0.0,-2.3858,-2.3591,-2.3745,-2.3991,-2.4294,-2.4294,-2.4621,-2.5165,-2.5125,-2.5139,0.0,0.0,0.0,0.0,0.0,0.0,0.0,0.0,0.0,0.0,0.0,0.0,0.0,0.0,0.0,0.0,0.0,0.0,0.0,0.0,0.0,0.0,0.0,0.0,0.0,0.0,0.0,0.0,0.0,0.0,0.0,0.0,0.0,0.0,0.0,0.0,0.0,0.0,0.0,0.0,0.0,-1.9284,-1.9544,-2.0381,-2.1068,0.0,-2.2194,-2.2765,-2.3076,-2.3408,-2.3728,-2.4035,0.0,0.0,0.0,0.0,0.0,0.0,0.0,0.0,0.0,0.0,0.0,0.0,0.0,0.0,0.0,0.0,0.0,0.0,0.0,0.0,0.0,0.0,0.0,0.0,0.0,0.0,0.0,0.0,0.0,0.0,0.0,0.0,0.0,0.0,0.0,0.0,0.0,0.0,0.0,0.0,0.0,0.0,0.0,0.0,0.0,0.0,0.0,0.0,0.0,0.0,0.0,0.0,0.0,-2.4351,-2.3947,-2.4437,-2.4665,-2.4673,-2.4833,-2.5113,-2.5512,-2.5594,-2.566,0.0,0.0,0.0,0.0,0.0,0.0,0.0,0.0,0.0,0.0,0.0,0.0,0.0,0.0,0.0,0.0,0.0,0.0,0.0,0.0,0.0,0.0,0.0,0.0,0.0,0.0,0.0,0.0,-2.0564,-2.0789,-2.1114,0.0,0.0,0.0,0.0,0.0,0.0,0.0,0.0,0.0,0.0,-2.0431,-2.071,-2.1341,0.0,0.0,-2.2822,-2.3366,-2.3843,-2.3946,-2.4174,-2.4745,-2.5088,0.0,0.0,0.0,0.0,0.0,0.0,0.0,0.0,0.0,0.0,0.0,0.0,0.0,0.0,0.0,0.0,0.0,0.0,0.0,0.0,0.0,0.0,0.0,0.0,0.0,0.0,0.0,0.0,0.0,0.0,0.0,0.0,0.0,0.0,0.0,0.0,0.0,0.0,0.0,0.0,0.0,0.0,0.0,0.0,0.0,0.0,0.0,0.0,0.0,0.0,0.0,0.0,-2.4706,-2.4351,-2.4895,-2.5171,-2.5055,-2.545,-2.5725,-2.5944,-2.5987,-2.6048,0.0,0.0,0.0,0.0,0.0,0.0,0.0,0.0,0.0,0.0,0.0,0.0,0.0,0.0,0.0,0.0,0.0,0.0,0.0,0.0,0.0,0.0,0.0,0.0,0.0,0.0,0.0,0.0,-2.0708,-2.1114,-2.1571,0.0,0.0,0.0,0.0,0.0,0.0,0.0,0.0,0.0,0.0,-2.1364,-2.1614,-2.216,-2.2674,-2.2889,-2.3488,-2.3992,-2.435,-2.445,-2.4637,-2.5186,0.0,0.0,0.0,0.0,0.0,0.0,0.0,0.0,0.0,0.0,0.0,0.0,0.0,0.0,0.0,0.0,0.0,0.0,0.0,0.0,0.0,0.0,0.0,0.0,0.0,0.0,0.0,-2.3974,0.0,0.0,-2.4134,0.0,0.0,0.0,0.0,0.0,0.0,0.0,0.0,0.0,0.0,0.0,0.0,0.0,0.0,0.0,0.0,0.0,0.0,0.0,0.0,0.0,0.0,-2.4763,-2.4866,-2.5085,-2.5306,-2.5725,-2.6273,-2.6536,-2.6572,-2.6364,-2.6336,-2.6545,0.0,0.0,0.0,0.0,0.0,0.0,0.0,0.0,0.0,0.0,0.0,0.0,0.0,0.0,0.0,0.0,0.0,0.0,0.0,0.0,0.0,0.0,0.0,0.0,0.0,0.0,-2.0699,-2.1114,-2.1571,0.0,0.0,0.0,0.0,0.0,0.0,0.0,0.0,0.0,0.0,-2.192,-2.2072,-2.2097,-2.2869,-2.3461,-2.3487,-2.4137,-2.4646,-2.4688,-2.5017,-2.5284,0.0,0.0,0.0,0.0,0.0,0.0,0.0,0.0,0.0,0.0,0.0,0.0,0.0,0.0,0.0,0.0,0.0,0.0,0.0,0.0,0.0,0.0,0.0,0.0,0.0,0.0,0.0,-2.4439,-2.4485,0.0,0.0,0.0,0.0,0.0,0.0,0.0,0.0,0.0,0.0,0.0,-2.423,-2.4651,0.0,0.0,0.0,0.0,0.0,0.0,0.0,0.0,0.0,0.0,0.0,0.0,-2.54,-2.575,-2.6073,-2.6428,-2.6817,-2.7043,-2.703,-2.6758,-2.657,-2.6064,-2.5169,0.0,0.0,0.0,0.0,0.0,0.0,0.0,0.0,0.0,0.0,0.0,0.0,0.0,0.0,0.0,0.0,0.0,0.0,0.0,0.0,0.0,0.0,0.0,0.0,0.0,-2.0916,0.0,0.0,0.0,0.0,0.0,0.0,0.0,0.0,0.0,0.0,0.0,-2.2027,-2.2403,-2.2731,-2.3046,-2.3129,-2.3595,-2.3935,0.0,0.0,0.0,0.0,0.0,0.0,0.0,0.0,0.0,0.0,0.0,0.0,0.0,0.0,-2.5684,-2.5684,-2.5567,-2.5508,-2.5508,0.0,0.0,0.0,0.0,0.0,0.0,0.0,0.0,0.0,0.0,0.0,0.0,0.0,0.0,-2.5417,0.0,-2.5252,0.0,0.0,0.0,0.0,0.0,0.0,0.0,0.0,-2.4875,-2.4899,-2.5197,-2.5509,-2.5577,0.0,-2.5926,-2.6018,0.0,0.0,0.0,0.0,0.0,0.0,0.0,0.0,-2.5664,-2.6214,-2.6456,-2.6873,-2.7394,-2.7539,-2.7393,-2.6974,-2.6679,-2.5838,-2.4473,-2.4424,-2.4023,0.0,0.0,0.0,0.0,0.0,0.0,0.0,0.0,0.0,0.0,0.0,0.0,0.0,0.0,0.0,0.0,0.0,0.0,0.0,0.0,0.0,0.0,0.0,-2.1374,0.0,0.0,0.0,0.0,0.0,0.0,0.0,0.0,0.0,-2.2399,-2.2566,-2.2859,-2.3117,-2.3493,-2.3845,-2.3985,0.0,0.0,0.0,0.0,0.0,0.0,0.0,-2.5489,-2.5693,-2.5684,-2.5684,-2.5684,-2.5684,-2.5684,-2.5684,0.0,0.0,-2.5684,-2.5684,-2.5684,-2.5684,-2.5684,-2.5684,-2.5684,-2.5596,-2.5391,0.0,0.0,0.0,0.0,0.0,0.0,0.0,0.0,-2.6846,-2.6773,0.0,-2.6361,0.0,0.0,0.0,0.0,0.0,-2.5635,0.0,0.0,-2.6191,-2.6191,-2.6229,-2.628,-2.6365,-2.6612,-2.6612,-2.6563,-2.6406,-2.5947,0.0,0.0,0.0,0.0,0.0,0.0,-2.5597,-2.6247,-2.6233,-2.6632,-2.7365,-2.7726,-2.7665,-2.716,-2.6635,-2.5762,-2.4521,-2.4434,-2.4033,-2.3159,-2.3101,0.0,0.0,0.0,0.0,0.0,0.0,0.0,0.0,0.0,0.0,0.0,0.0,0.0,0.0,0.0,0.0,0.0,0.0,0.0,0.0,-2.1607,0.0,0.0,0.0,0.0,0.0,0.0,0.0,0.0,0.0,0.0,-2.297,-2.349,-2.3879,-2.3764,0.0,0.0,0.0,0.0,-2.4941,-2.4941,-2.5137,-2.5294,-2.5333,-2.5538,-2.5684,-2.5684,0.0,0.0,-2.5684,-2.5684,-2.5684,-2.5684,-2.5684,-2.5684,-2.5684,-2.5684,-2.5684,-2.5684,-2.5684,-2.5684,-2.5684,-2.5684,-2.5586,-2.6108,0.0,0.0,0.0,0.0,-2.7229,-2.726,-2.726,-2.7255,-2.7188,-2.7103,-2.6936,0.0,0.0,0.0,0.0,0.0,0.0,-2.6445,-2.6627,-2.6636,-2.6788,-2.7062,-2.7328,-2.7271,-2.7045,-2.7263,-2.7204,-2.6846,-2.6709,-2.6288,-2.5703,0.0,0.0,0.0,0.0,-2.6004,-2.6749,-2.6756,-2.7069,-2.7621,-2.7736,-2.7386,-2.6666,-2.6161,-2.5596,-2.4949,-2.458,-2.417,-2.3623,-2.3266,0.0,0.0,0.0,0.0,0.0,0.0,0.0,0.0,0.0,0.0,0.0,0.0,0.0,0.0,0.0,0.0,0.0,0.0,0.0,-2.1919,-2.1919,-2.2097,0.0,0.0,0.0,0.0,0.0,0.0,0.0,0.0,0.0,-2.4193,-2.4202,-2.4275,0.0,0.0,-2.4843,-2.503,-2.5137,-2.5235,-2.544,-2.5538,0.0,-2.5586,-2.5635,-2.5684,-2.5684,-2.5684,-2.5684,-2.5684,-2.5684,-2.5684,-2.5684,-2.5684,-2.5684,-2.5684,-2.5684,-2.5684,-2.5684,-2.5684,-2.5684,-2.5684,-2.5684,-2.5684,-2.7228,-2.7432,-2.7523,-2.7744,-2.8061,-2.8083,-2.7993,-2.7841,-2.795,-2.7862,-2.7627,-2.7627,-2.7509,-2.7256,-2.709,0.0,0.0,0.0,-2.7188,-2.7381,-2.7381,-2.7515,-2.7736,-2.797,-2.7878,-2.7636,-2.7857,-2.7685,-2.7275,-2.7275,-2.6924,-2.621,0.0,0.0,-2.5693,-2.5684,-2.6025,-2.6728,-2.6768,-2.6973,-2.7402,-2.7246,-2.6914,-2.6406,-2.5967,-2.5439,-2.4834,-2.456,-2.4141,-2.3555,-2.3237,-2.3101,0.0,0.0,0.0,0.0,0.0,0.0,0.0,0.0,0.0,0.0,0.0,-2.2732,-2.2742,0.0,0.0,0.0,-2.2353,-2.222,-2.222,-2.2309,0.0,0.0,0.0,0.0,0.0,0.0,0.0,-2.376,-2.4307,-2.4738,-2.4869,-2.4852,-2.4909,-2.505,-2.5137,-2.5284,-2.543,0.0,-2.5538,-2.5693,-2.5684,-2.5684,-2.5684,-2.5684,-2.5684,-2.5684,-2.5684,-2.5684,-2.5684,-2.5684,-2.5684,-2.5684,-2.5684,-2.5684,-2.5684,-2.5684,-2.5684,-2.5684,-2.5684,-2.5684,-2.5684,-2.5684,-2.5684,-2.8122,-2.892,-2.8524,-2.853,-2.8832,-2.9019,-2.892,-2.8619,-2.8836,-2.8701,-2.835,-2.831,-2.8076,-2.7748,-2.7305,0.0,-2.7777,-2.7767,-2.792,-2.8291,-2.8301,-2.8301,-2.8301,-2.8301,-2.8301,-2.8291,-2.8301,-2.8086,-2.7787,-2.7767,-2.75,-2.706,-2.665,-2.6221,-2.5752,-2.5713,-2.5947,-2.6387,-2.6387,-2.6582,-2.6953,-2.6553,-2.6338,-2.6338,-2.5957,-2.5294,-2.4521,-2.4443,-2.4043,-2.3198,-2.311,-2.3101,-2.3101,0.0,0.0,0.0,0.0,0.0,0.0,0.0,0.0,0.0,0.0,0.0,0.0,0.0,0.0,0.0,-2.2574,0.0,-2.2432,-2.2662,0.0,0.0,0.0,-2.3101,-2.3101,-2.3525,-2.3809,-2.3838,0.0,0.0,-2.5165,-2.5478,-2.5635,-2.5333,-2.5538,-2.5684,-2.5684,-2.5684,-2.5684,-2.5684,-2.5684,-2.5684,-2.5684,-2.5684,-2.5684,-2.5684,-2.5684,-2.5684,-2.5684,-2.5684,-2.5684,-2.5684,-2.5684,-2.5684,-2.5684,-2.5684,-2.5684,-2.5684,-2.5684,-2.5684,-2.5684,-2.5684,-2.5684,-2.8191,-2.871,-2.9235,-2.9506,-2.9536,-2.9482,-2.9456,-2.9349,-2.9008,-2.8857,-2.875,-2.8437,-2.8232,-2.8135,-2.8037,-2.8047,-2.8144,-2.8144,-2.8193,-2.8291,-2.8301,-2.8301,-2.8301,-2.8301,-2.8301,-2.8301,-2.8301,-2.8242,-2.8144,-2.8144,-2.793,-2.751,-2.707,-2.666,-2.623,-2.5849,-2.5957,-2.6387,-2.6387,-2.6435,-2.6523,-2.6113,-2.5898,-2.584,-2.5742,-2.5478,-2.4932,-2.459,-2.418,-2.3662,-2.332,-2.3101,-2.3091,-2.2789,0.0,0.0,0.0,0.0,0.0,0.0,0.0,0.0,0.0,-2.2168,-2.249,0.0,-2.2969,0.0,-2.2574,-2.2485,-2.2671,-2.2759,0.0,0.0,-2.3047,-2.3101,-2.3101,-2.3525,-2.3916,-2.4228,-2.4736,-2.5195,-2.5537,-2.5625,-2.5693,-2.5586,-2.5635,-2.5684,-2.5684,-2.5684,-2.5684,-2.5684,-2.5674,-2.5684,-2.5654,-2.5684,-2.5664,-2.5684,-2.5674,-2.5684,-2.5684,-2.5684,-2.5684,-2.5684,-2.5684,-2.5684,-2.5684,-2.5684,-2.5684,-2.5684,-2.5684,-2.5684,-2.5684,-2.5684,-2.5684,-2.8131,-2.8788,-2.9568,-2.9965,-3.0084,-3.0139,-3.0039,-2.9814,-2.9394,-2.9101,-2.8887,-2.8476,-2.8301,-2.8301,-2.8301,-2.8301,-2.8301,-2.8301,-2.8301,-2.8301,-2.8301,-2.8301,-2.8301,-2.8301,-2.8301,-2.8301,-2.8301,-2.8301,-2.8301,-2.8301,-2.8086,-2.7708,-2.7236,-2.6807,-2.6387,-2.5957,-2.581,-2.6094,-2.6103,-2.6094,-2.6094,-2.5859,-2.5684,-2.5684,-2.5547,-2.5234,-2.4785,-2.4365,-2.3935,-2.3525,-2.3227,-2.3101,-2.3091,-2.2877,-2.2662,0.0,0.0,0.0,0.0,0.0,0.0,0.0,0.0,0.0,0.0,0.0,-2.3047,-2.2925,-2.2794,-2.2784,-2.2925,-2.2925,-2.2969,-2.3091,-2.3101,-2.3101,-2.3101,-2.3525,-2.3945,-2.4365,-2.4795,-2.5234,-2.5615,-2.5684,-2.5684,-2.5684,-2.5518,-2.5508,-2.5693,-2.5684,-2.5684,-2.5684,-2.5566,-2.5361,-2.5138,-2.5099,-2.5099,-2.5109,-2.5146,-2.5157,-2.5391,-2.5439,-2.5498,-2.5645,-2.5684,-2.5684,-2.5684,-2.5684,-2.5684,-2.5684,-2.5684,-2.5684,-2.5684,-2.5684,-2.5684,-2.8011,-2.8916,-2.9509,-2.9981,-3.0382,-3.0645,-3.0509,-3.0166,-2.9756,-2.9297,-2.8818,-2.8457,-2.8301,-2.8301,-2.8301,-2.8301,-2.8301,-2.8301,-2.8301,-2.8301,-2.8301,-2.8301,-2.8301,-2.8301,-2.8301,-2.8301,-2.8301,-2.8301,-2.8301,-2.8301,-2.8129,-2.7718,-2.7236,-2.6807,-2.6387,-2.5957,-2.5684,-2.5684,-2.5684,-2.5684,-2.5684,-2.5684,-2.5684,-2.5674,-2.5303,-2.4853,-2.4434,-2.4014,-2.3594,-2.313,-2.3101,-2.3101,-2.3101,-2.3101,-2.2935,0.0,-2.2539,0.0,0.0,0.0,0.0,0.0,0.0,0.0,0.0,-2.2886,-2.3101,-2.3101,-2.3101,-2.3101,-2.3101,-2.3101,-2.3101,-2.3101,-2.3101,-2.3101,-2.311,-2.3525,-2.3935,-2.4297,-2.4717,-2.5137,-2.5469,-2.5518,-2.5508,-2.544,-2.5205,-2.5107,-2.5411,-2.5469,-2.545,-2.5518,-2.5244,-2.4873,-2.458,-2.4463,-2.4463,-2.4443,-2.4482,-2.4551,-2.4932,-2.5037,-2.5107,-2.5401,-2.5518,-2.5577,-2.5644,-2.5635,-2.5684,-2.5684,-2.5684,-2.5684,-2.5684,-2.5684,-2.5684,-2.7547,-2.8259,-2.8865,-2.9509,-3.002,-2.9978,-3.0064,-3.0176,-2.9756,-2.9131,-2.8418,-2.833,-2.8301,-2.8301,-2.8301,-2.8301,-2.8301,-2.8301,-2.8301,-2.8301,-2.8301,-2.8301,-2.8301,-2.8301,-2.8301,-2.8301,-2.8301,-2.8301,-2.8301,-2.8301,-2.8076,-2.7666,-2.7226,-2.6797,-2.6387,0.0,0.0,0.0,-2.5684,-2.5684,-2.5684,-2.5684,-2.5684,-2.5674,-2.5312,0.0,-2.4424,-2.4014,-2.3594,-2.313,-2.3101,0.0,0.0,0.0,0.0,0.0,0.0,0.0,0.0,0.0,0.0,0.0,-2.2984,-2.2974,-2.2984,-2.3052,-2.3101,-2.3101,-2.3101,-2.3101,-2.3101,-2.3101,-2.3101,-2.3101,-2.3101,-2.3101,-2.311,-2.3525,-2.3828,-2.3896,-2.4277,-2.457,-2.4678,-2.4668,-2.4678,-2.4717,-2.459,-2.457,-2.4668,-2.4707,-2.4641,-2.4658,-2.46,-2.4512,-2.4434,-2.4385,-2.4336,-2.4424,-2.4424,-2.4443,-2.4521,-2.4551,-2.4541,-2.4707,-2.4951,-2.5195,-2.5205,-2.5488,-2.5625,-2.5674,-2.5664,-2.5684,-2.5684,-2.5674,-2.5684,-2.7004,0.0,-2.8627,-2.9043,0.0,-2.9632,-2.964,-2.9346,-2.929,-2.8887,-2.8301,-2.8301,-2.8301,-2.8301,-2.8301,-2.8301,-2.8301,-2.8301,-2.8301,-2.8301,-2.8301,-2.8301,-2.8301,-2.8301,-2.8301,-2.8301,-2.8301,-2.8301,-2.8281,-2.8086,-2.7773,-2.7334,-2.6914,-2.6494,-2.6074,-2.5801,-2.5684,-2.5684,-2.5684,-2.5684,-2.5684,-2.5684,-2.5684,-2.5664,-2.5098,0.0,0.0,0.0,0.0,0.0,0.0,0.0,0.0,0.0,0.0,-2.3091,-2.2896,-2.2877,-2.3071,-2.2896,-2.2877,-2.3081,-2.3101,-2.3101,-2.3101,-2.3101,-2.3101,-2.3101,-2.3101,-2.3101,-2.3101,-2.3101,-2.3101,-2.3101,-2.3101,-2.3101,-2.312,-2.333,-2.3545,-2.3769,-2.3984,-2.418,-2.4394,-2.4424,-2.4424,-2.4404,-2.4238,-2.4111,-2.4131,-2.4287,-2.4355,-2.415,-2.4111,-2.4014,-2.3828,-2.3734,-2.3754,-2.3734,-2.3744,-2.3877,-2.4072,-2.4111,-2.416,-2.4365,-2.4609,-2.4746,-2.4756,-2.4941,-2.504,-2.504,-2.504,-2.5088,-2.5098,-2.5244,-2.5332,-2.6327,-2.7125,-2.8128,-2.8505,-2.8447,-2.9097,-2.9,-2.8391,0.0,0.0,0.0,-2.8301,-2.8301,-2.8301,-2.8301,-2.8301,-2.8301,-2.8301,-2.8301,-2.8301,-2.8301,-2.8301,-2.8301,-2.8301,-2.8301,-2.8301,-2.8301,-2.8252,-2.8174,-2.7832,-2.7402,-2.6924,-2.6553,-2.6162,-2.5713,-2.5684,-2.5684,-2.5684,-2.5684,-2.5684,-2.5684,-2.5684,-2.5684,-2.5684,-2.4836,-2.4424,-2.4404,-2.3549,-2.3101,-2.3101,-2.3101,-2.3101,-2.3101,-2.3101,-2.3101,-2.3101,-2.3101,-2.3101,-2.3101,-2.3101,-2.3101,-2.3101,-2.3101,-2.3101,-2.3101,-2.3101,-2.3101,-2.3101,-2.3101,-2.3101,-2.3101,-2.3101,-2.3101,-2.3101,-2.3101,-2.3101,-2.3101,-2.3101,-2.3247,-2.3603,-2.3672,-2.3799,-2.4111,-2.4095,-2.4144,-2.4141,-2.3867,-2.3672,-2.3711,-2.3926,-2.4014,-2.373,-2.3672,-2.3555,-2.3218,-2.314,-2.3101,-2.3169,-2.314,-2.3227,-2.3564,-2.3672,-2.3818,-2.4017,-2.4228,-2.4297,-2.4316,-2.4414,-2.4414,-2.4424,-2.4424,-2.4385,-2.4346,-2.459,-2.4746,-2.5778,-2.6675,-2.6824,-2.7429,-2.8342,-2.7816,-2.7741,-2.8003,-2.8281,-2.835,-2.8301,-2.8301,-2.8301,-2.8301,-2.8301,-2.8301,-2.8301,-2.8301,-2.8301,-2.8301,-2.8301,-2.8301,-2.8301,-2.8301,-2.8301,-2.8301,-2.8291,-2.8115,-2.7836,-2.7695,-2.7266,-2.6562,-2.6416,-2.6172,-2.5723,-2.5684,-2.5684,-2.5684,-2.5684,-2.5684,-2.5684,-2.5684,-2.5684,-2.5654,-2.4826,-2.4424,-2.4404,-2.3549,-2.3101,-2.3101,-2.3101,-2.3101,-2.3101,-2.3101,-2.3101,-2.3101,-2.3101,-2.3101,-2.3101,-2.3101,-2.3101,-2.3101,-2.3101,-2.3101,-2.3101,-2.3101,-2.3101,-2.3101,-2.3101,-2.3101,-2.3101,-2.3101,-2.3101,-2.3101,-2.3101,-2.3101,-2.3101,-2.3101,-2.312,-2.3208,-2.3188,-2.3218,-2.3335,-2.3335,-2.3354,-2.3296,-2.3315,-2.3208,-2.3237,-2.3227,-2.3247,-2.3198,-2.3188,-2.3159,-2.311,-2.3101,-2.3101,-2.3101,-2.3101,-2.312,-2.3218,-2.3247,-2.3276,-2.3296,-2.3617,-2.3848,-2.3887,-2.418,-2.4297,-2.4316,-2.4307,-2.4238,-2.3945,-2.3965,-2.4072,-2.5114,-2.5597,-2.6202,-2.6603,-2.6769,-2.6808,-2.7166,-2.7638,-2.796,-2.8184,-2.8301,-2.8301,-2.8301,-2.8301,-2.8301,-2.8301,-2.8301,-2.8301,-2.8301,-2.8301,-2.8301,-2.8301,-2.8301,-2.8301,-2.8301,-2.8281,-2.8057,-2.7904,-2.7646,-2.7258,-2.6777,-2.6387,-2.6162,-2.5928,-2.5693,-2.5684,-2.5684,-2.5684,-2.5684,-2.5684,-2.5684,-2.5684,-2.5625,-2.5391,-2.4746,-2.4297,-2.4072,-2.3432,-2.3101,-2.3101,-2.3101,-2.3101,-2.3101,-2.3101,-2.3101,-2.3101,-2.3101,-2.3101,-2.3101,-2.3101,-2.3101,-2.3101,-2.3101,-2.3101,-2.3101,-2.3101,-2.3101,-2.3101,-2.3101,-2.3101,-2.3101,-2.3101,-2.3101,-2.3101,-2.3101,-2.3101,-2.3101,-2.3101,-2.3101,-2.3101,-2.3101,-2.3101,-2.3101,-2.3101,-2.3101,-2.3101,-2.3101,-2.3101,-2.3101,-2.3101,-2.3101,-2.3101,-2.3101,-2.3101,-2.3101,-2.3101,-2.3101,-2.3101,-2.3101,-2.3101,-2.3101,-2.3101,-2.3101,-2.3101,-2.332,-2.3408,-2.3447,-2.3539,-2.3656,-2.3721,-2.3676,-2.3569,-2.3486,-2.3437,-2.3594,-2.4277,-2.4571,-2.5408,-2.5617,-2.5336,-2.6088,-2.6718,-2.7215,-2.7476,-2.7853,-2.8184,-2.8291,-2.8301,-2.8301,-2.8301,-2.8301,-2.8301,-2.8301,-2.8301,-2.8301,-2.8301,-2.8301,-2.8301,-2.8301,-2.8242,-2.8125,-2.7865,-2.762,-2.7366,-2.6709,-2.6328,-2.6221,-2.5859,-2.5684,-2.5684,-2.5684,-2.5684,-2.5684,-2.5684,-2.5684,-2.5684,-2.5684,-2.5479,-2.5078,-2.4648,-2.4219,-2.3799,-2.3325,-2.3101,-2.3101,-2.3101,-2.3101,-2.3101,-2.3101,-2.3101,-2.3101,-2.3101,-2.3101,-2.3101,-2.3101,-2.3101,-2.3101,-2.3101,-2.3101,-2.3101,-2.3101,-2.3101,-2.3101,-2.3101,-2.3101,-2.3101,-2.3101,-2.3101,-2.3101,-2.3101,-2.3101,-2.3101,-2.3101,-2.3101,-2.3101,-2.3101,-2.3101,-2.3101,-2.3101,-2.3101,-2.3101,-2.3101,-2.3101,-2.3101,-2.3101,-2.3101,-2.3101,-2.3101,-2.3101,-2.3101,-2.3101,-2.3101,-2.3101,-2.3101,-2.3101,-2.3101,-2.3101,-2.3101,-2.3101,-2.3101,-2.313,-2.311,-2.312,-2.3149,-2.3188,-2.3198,-2.3149,-2.3149,-2.313,-2.3198,-2.3315,-2.4055,-2.3912,-2.4203,-2.4911,-2.5523,-2.6118,-2.66,-2.6708,-2.7196,-2.7906,-2.8184,-2.8291,-2.8301,-2.8301,-2.8301,-2.8301,-2.8301,-2.8301,-2.8301,-2.8301,-2.8301,-2.8291,-2.8291,-2.8086,-2.7816,-2.7708,-2.7226,-2.6602,-2.6435,-2.6191,-2.584,-2.5703,-2.5684,-2.5684,-2.5684,-2.5684,-2.5684,-2.5684,-2.5684,-2.5684,-2.5684,-2.5527,-2.5078,-2.4639,-2.4219,-2.3769,-2.3379,-2.3101,-2.3101,-2.3101,-2.3101,-2.3101,-2.3101,-2.3101,-2.3101,-2.3101,-2.3101,-2.3101,-2.3101,-2.3101,-2.3101,-2.3101,-2.3101,-2.3101,-2.3101,-2.3101,-2.3101,-2.3101,-2.3101,-2.3101,-2.3101,-2.3101,-2.3101,-2.3101,-2.3101,-2.3101,-2.3101,-2.3101,-2.3101,-2.3101,-2.3101,-2.3101,-2.3101,-2.3101,-2.3101,-2.3101,-2.3101,-2.3101,-2.3101,-2.3101,-2.3101,-2.3101,-2.3101,-2.3101,-2.3101,-2.3101,-2.3101,-2.3101,-2.3101,-2.3101,-2.3101,-2.3101,-2.3101,-2.3101,-2.3101,-2.3101,-2.3101,-2.3101,-2.3101,-2.3101,-2.3101,-2.3101,-2.3091,-2.314,-2.2638,-2.269,-2.3119,-2.3658,-2.4295,-2.4889,-2.5395,-2.5835,-2.6382,-2.6817,-2.7196,-2.7799,-2.8184,-2.8291,-2.8301,-2.8301,-2.8301,-2.8301,-2.8301,-2.8301,-2.8301,-2.8301,-2.8271,-2.8027,-2.7875,-2.7669,-2.7219,-2.6738,-2.6396,-2.6123,-2.5918,-2.5703,-2.5684,-2.5684,-2.5684,-2.5684,-2.5684,-2.5684,-2.5684,-2.5615,-2.5381,-2.5342,-2.5137,-2.4697,-2.4277,-2.3838,-2.3447,-2.3179,-2.3101,-2.3101,-2.3101,-2.3101,-2.3101,-2.3101,-2.3101,-2.3101,-2.3101,-2.3101,-2.3101,-2.3101,-2.3101,-2.3101,-2.3101,-2.3101,-2.3101,-2.3101,-2.3101,-2.3101,-2.3101,-2.3101,-2.3101,-2.3101,-2.3101,-2.3101,-2.3101,-2.3101,-2.3101,-2.3101,-2.3101,-2.3101,-2.3101,-2.3101,-2.3101,-2.3101,-2.3101,-2.3101,-2.3101,-2.3101,-2.3101,-2.3101,-2.3101,-2.3101,-2.3101,-2.3101,-2.3101,-2.3101,-2.3101,-2.3101,-2.3101,-2.3101,-2.3101,-2.3101,-2.3101,-2.3101,-2.3101,-2.3101,-2.3101,-2.3101,-2.3101,-2.3101,-2.3101,-2.3101,-2.3101,-2.3013,-2.2925,-2.1857,-2.1862,-2.2613,-2.3228,-2.3672,-2.4223,-2.4676,-2.511,-2.5826,-2.6263,-2.6654,-2.7251,-2.7789,-2.8184,-2.8291,-2.8301,-2.8301,-2.8301,-2.8301,-2.8301,-2.8301,-2.8232,-2.8096,-2.7875,-2.7539,-2.7307,-2.6699,-2.6338,-2.6201,-2.5908,-2.5684,-2.5684,-2.5684,-2.5684,-2.5684,-2.5684,-2.5684,-2.5674,-2.5577,-2.5391,-2.5135,-2.4881,-2.457,-2.4248,-2.3945,-2.3584,-2.312,-2.3101,-2.3101,-2.3101,-2.3101,-2.3101,-2.3101,-2.3101,-2.3101,-2.3101,-2.3101,-2.3101,-2.3101,-2.3101,-2.3101,-2.3101,-2.3101,-2.3101,-2.3101,-2.3101,-2.3101,-2.3101,-2.3101,-2.3101,-2.3101,-2.3101,-2.3101,-2.3101,-2.3101,-2.3101,-2.3101,-2.3101,-2.3101,-2.3101,-2.3101,-2.3101,-2.3101,-2.3101,-2.3101,-2.3101,-2.3101,-2.3101,-2.3101,-2.3101,-2.3101,-2.3101,-2.3101,-2.3101,-2.3101,-2.3101,-2.3101,-2.3101,-2.3101,-2.3101,-2.3101,-2.3101,-2.3101,-2.3101,-2.3101,-2.3101,-2.3101,-2.3101,-2.3101,-2.3101,-2.3101,-2.3057,-2.3013,-2.2882,-2.2794,-2.0871,-2.173,-2.2383,-2.2763,-2.307,-2.3416,-2.4024,-2.4723,-2.4889,-2.5505,-2.6436,-2.6654,-2.7142,-2.7906,-2.813,-2.8301,-2.8301,-2.8301,-2.8301,-2.8291,-2.8271,-2.8076,-2.7767,-2.7718,-2.7288,-2.6592,-2.6416,-2.6152,-2.5762,-2.5703,-2.5684,-2.5684,-2.5684,-2.5684,-2.5684,-2.5684,-2.5684,-2.5654,-2.5332,-2.5116,-2.4988,-2.4304,-2.3887,-2.3818,-2.3789,-2.3564,-2.3149,-2.3101,-2.3101,-2.3101,-2.3101,-2.3101,-2.3101,-2.3101,-2.3101,-2.3101,-2.3101,-2.3101,-2.3101,-2.3101,-2.3101,-2.3101,-2.3101,-2.3101,-2.3101,-2.3101,-2.3101,-2.3101,-2.3101,-2.3101,-2.3101,-2.3101,-2.3101,-2.3101,-2.3101,-2.3101,-2.3101,-2.3101,-2.3101,-2.3101,-2.3101,-2.3101,-2.3101,-2.3101,-2.3101,-2.3101,-2.3101,-2.3101,-2.3101,-2.3101,-2.3101,-2.3101,-2.3101,-2.3101,-2.3101,-2.3101,-2.3101,-2.3101,-2.3101,-2.3101,-2.3101,-2.3101,-2.3101,-2.3101,-2.3101,-2.3101,-2.3101,-2.3101,-2.3101,-2.3101,-2.3047,-2.3003,-2.2925,-2.2847,-2.2671,-2.0503,-2.0837,-2.1476,-2.1774,-2.1945,-2.2626,-2.3183,-2.3672,-2.4278,-2.4825,-2.5496,-2.6273,-2.6772,-2.7098,-2.7745,-2.813,-2.8291,-2.8301,-2.8301,-2.8262,-2.8018,-2.7855,-2.7689,-2.718,-2.6719,-2.6396,-2.6103,-2.5849,-2.5713,-2.5684,-2.5684,-2.5684,-2.5684,-2.5684,-2.5684,-2.5684,-2.5557,-2.5322,-2.5137,-2.4861,-2.4297,-2.3945,-2.3672,-2.3344,-2.3335,-2.3257,-2.3101,-2.3101,-2.3101,-2.3101,-2.3101,-2.3101,-2.3101,-2.3101,-2.3101,-2.3101,-2.3101,-2.3101,-2.3101,-2.3101,-2.3101,-2.3101,-2.3101,-2.3101,-2.3101,-2.3101,-2.3101,-2.3101,-2.3101,-2.3101,-2.3101,-2.3101,-2.3101,-2.3101,-2.3101,-2.3101,-2.3101,-2.3101,-2.3101,-2.3101,-2.3101,-2.3101,-2.3101,-2.3101,-2.3101,-2.3101,-2.3101,-2.3101,-2.3101,-2.3101,-2.3101,-2.3101,-2.3101,-2.3101,-2.3101,-2.3101,-2.3101,-2.3101,-2.3101,-2.3101,-2.3101,-2.3101,-2.3101,-2.3101,-2.3101,-2.3101,-2.3101,-2.3101,-2.3101,-2.3091,-2.3047,-2.2925,-2.2847,-2.2583,-2.2318,-2.0117,-2.0233,-2.0687,-2.1031,-2.1268,-2.1888,-2.2505,-2.3014,-2.3608,-2.4223,-2.4889,-2.578,-2.6273,-2.6654,-2.7314,-2.7853,-2.8174,-2.8237,-2.8223,-2.8076,-2.7793,-2.7571,-2.7239,-2.666,-2.6309,-2.6152,-2.584,-2.5684,-2.5684,-2.5684,-2.5684,-2.5684,-2.5684,-2.5684,-2.5664,-2.5605,-2.5352,-2.5125,-2.4851,-2.4346,-2.3838,-2.3643,-2.3437,-2.3149,-2.3101,-2.3101,-2.3101,-2.3101,-2.3101,-2.3101,-2.3101,-2.3101,-2.3101,-2.3101,-2.3101,-2.3101,-2.3101,-2.3101,-2.3101,-2.3101,-2.3101,-2.3101,-2.3101,-2.3101,-2.3101,-2.3101,-2.3101,-2.3101,-2.3101,-2.3101,-2.3101,-2.3101,-2.3101,-2.3101,-2.3101,-2.3101,-2.3101,-2.3101,-2.3101,-2.3101,-2.3101,-2.3101,-2.3101,-2.3101,-2.3101,-2.3101,-2.3101,-2.3101,-2.3101,-2.3101,-2.3101,-2.3101,-2.3101,-2.3101,-2.3101,-2.3101,-2.3101,-2.3101,-2.3101,-2.3101,-2.3101,-2.3101,-2.3101,-2.3101,-2.3101,-2.3101,-2.3101,-2.3101,-2.3091,-2.3091,-2.296,-2.2838,-2.2574,-2.2264,-2.1954,-1.9822,-1.9873,-2.0155,-2.0622,-2.1039,-2.1203,-2.1881,-2.2788,-2.3014,-2.368,-2.462,-2.511,-2.578,-2.6491,-2.6881,-2.7368,-2.7799,-2.8028,-2.7984,-2.7744,-2.7607,-2.7097,-2.6514,-2.6327,-2.6083,-2.5762,-2.5703,-2.5684,-2.5684,-2.5684,-2.5684,-2.5684,-2.5684,-2.5654,-2.5654,-2.5322,-2.5125,-2.4891,-2.4258,-2.3838,-2.374,-2.3389,-2.314,-2.3101,-2.3101,-2.3101,-2.3101,-2.3101,-2.3101,-2.3101,-2.3101,-2.3101,-2.3101,-2.3101,-2.3101,-2.3101,-2.3101,-2.3101,-2.3101,-2.3101,-2.3101,-2.3101,-2.3101,-2.3101,-2.3101,-2.3101,-2.3101,-2.3101,-2.3101,-2.3101,-2.3101,-2.3101,-2.3101,-2.3101,-2.3101,-2.3101,-2.3101,-2.3101,-2.3101,-2.3101,-2.3101,-2.3101,-2.3101,-2.3101,-2.3101,-2.3101,-2.3101,-2.3101,-2.3101,-2.3101,-2.3101,-2.3101,-2.3101,-2.3101,-2.3101,-2.3101,-2.3101,-2.3101,-2.3101,-2.3101,-2.3101,-2.3101,-2.3101,-2.3101,-2.3101,-2.3101,-2.3101,-2.3101,-2.3057,-2.3013,-2.2891,-2.2662,-2.2309,-2.1954,-2.1607,-1.954,-1.954,-1.9815,-2.0046,-2.0277,-2.0673,-2.1246,-2.1831,-2.2456,-2.3191,-2.396,-2.462,-2.534,-2.5999,-2.65,-2.6935,-2.7232,-2.7264,-2.7309,-2.7255,-2.6641,-2.6247,-2.6118,-2.5827,-2.5664,-2.5703,-2.5684,-2.5684,-2.5684,-2.5684,-2.5684,-2.5684,-2.5684,-2.5518,-2.5303,-2.5127,-2.4881,-2.4219,-2.3935,-2.3662,-2.3335,-2.3169,-2.3101,-2.3101,-2.3101,-2.3101,-2.3101,-2.3101,-2.3101,-2.3101,-2.3101,-2.3101,-2.3101,-2.3101,-2.3101,-2.3101,-2.3101,-2.3101,-2.3101,-2.3101,-2.3101,-2.3101,-2.3101,-2.3101,-2.3101,-2.3101,-2.3101,-2.3101,-2.3101,-2.3101,-2.3101,-2.3101,-2.3101,-2.3101,-2.3101,-2.3101,-2.3101,-2.3101,-2.3101,-2.3101,-2.3101,-2.3101,-2.3101,-2.3101,-2.3101,-2.3101,-2.3101,-2.3101,-2.3101,-2.3101,-2.3101,-2.3101,-2.3101,-2.3101,-2.3101,-2.3101,-2.3101,-2.3101,-2.3101,-2.3101,-2.3101,-2.3101,-2.3101,-2.3101,-2.3101,-2.3101,-2.3101,-2.3101,-2.3057,-2.2882,-2.2706,-2.2397,-2.1998,-2.1651,-2.1293,-1.9424,-1.943,-1.9591,-1.9707,-1.9815,-2.0213,-2.0673,-2.1261,-2.1945,-2.2619,-2.3408,-2.4248,-2.4962,-2.556,-2.6163,-2.6517,-2.6738,-2.6461,-2.6337,-2.6469,-2.5961,-2.56,-2.5588,-2.5428,-2.544,-2.5645,-2.5684,-2.5684,-2.5684,-2.5684,-2.5684,-2.5674,-2.5576,-2.5361,-2.5029,-2.4783,-2.4287,-2.3838,-2.3633,-2.3418,-2.3159,-2.3101,-2.3101,-2.3101,-2.3101,-2.3101,-2.3101,-2.3101,-2.3101,-2.3101,-2.3101,-2.3101,-2.3101,-2.3101,-2.3101,-2.3101,-2.3101,-2.3101,-2.3101,-2.3101,-2.3101,-2.3101,-2.3101,-2.3101,-2.3101,-2.3101,-2.3101,-2.3101,-2.3101,-2.3101,-2.3101,-2.3101,-2.3101,-2.3101,-2.3101,-2.3101,-2.3101,-2.3101,-2.3101,-2.3101,-2.3101,-2.3101,-2.3101,-2.3101,-2.3101,-2.3101,-2.3101,-2.3101,-2.3101,-2.3101,-2.3101,-2.3101,-2.3101,-2.3101,-2.3101,-2.3101,-2.3101,-2.3101,-2.3101,-2.3101,-2.3101,-2.3101,-2.3101,-2.3101,-2.3101,-2.3101,-2.3101,-2.3101,-2.3057,-2.2838,-2.2574,-2.2264,-2.1909,-2.1383,-2.0979,-1.9424,-1.9424,-1.9424,-1.954,-1.9764,-1.9815,-2.0335,-2.1089,-2.1489,-2.2108,-2.3078,-2.3921,-2.4637,-2.5229,-2.5844,-2.6209,-2.6234,-2.5811,-2.5432,-2.5391,-2.5299,-2.5261,-2.5026,-2.5205,-2.544,-2.5586,-2.5684,-2.5684,-2.5684,-2.5684,-2.5684,-2.5645,-2.5342,-2.5049,-2.49,-2.4255,-2.3838,-2.3662,-2.335,-2.312,-2.3101,-2.3101,-2.3101,-2.3101,-2.3101,-2.3101,-2.3101,-2.3101,-2.3101,-2.3101,-2.3101,-2.3101,-2.3101,-2.3101,-2.3101,-2.3101,-2.3101,-2.3101,-2.3101,-2.3101,-2.3101,-2.3101,-2.3101,-2.3101,-2.3101,-2.3101,-2.3101,-2.3101,-2.3101,-2.3101,-2.3101,-2.3101,-2.3101,-2.3101,-2.3101,-2.3101,-2.3101,-2.3101,-2.3101,-2.3101,-2.3101,-2.3101,-2.3101,-2.3101,-2.3101,-2.3101,-2.3101,-2.3101,-2.3101,-2.3101,-2.3101,-2.3101,-2.3101,-2.3101,-2.3101,-2.3101,-2.3101,-2.3101,-2.3101,-2.3101,-2.3101,-2.3101,-2.3101,-2.3101,-2.3101,-2.3101,-2.3101,-2.3057,-2.2969,-2.2706,-2.2441,-2.2176,-2.1678,-2.1105,-2.0564,-1.9424,-1.9424,-1.9424,-1.9424,-1.9533,-1.97,-2.0104,-2.0565,-2.1089,-2.1831,-2.274,-2.3416,-2.4192,-2.4898,-2.5505,-2.5802,-2.5665,-2.5503,-2.5203,-2.4919,-2.4637,-2.4628,-2.4705,-2.5088,-2.5333,-2.543,-2.5586,-2.5684,-2.5684,-2.5684,-2.5674,-2.5664,-2.5254,-2.4873,-2.4551,-2.4043,-2.3623,-2.3305,-2.3179,-2.3101,-2.3101,-2.3101,-2.3101,-2.3101,-2.3101,-2.3101,-2.3101,-2.3101,-2.3101,-2.3101,-2.3101,-2.3101,-2.3101,-2.3101,-2.3101,-2.3101,-2.3101,-2.3101,-2.3101,-2.3101,-2.3101,-2.3101,-2.3101,-2.3101,-2.3101,-2.3101,-2.3101,-2.3101,-2.3101,-2.3101,-2.3101,-2.3101,-2.3101,-2.3101,-2.3101,-2.3101,-2.3101,-2.3101,-2.3101,-2.3101,-2.3101,-2.3101,-2.3101,-2.3101,-2.3101,-2.3101,-2.3101,-2.3101,-2.3101,-2.3101,-2.3101,-2.3101,-2.3101,-2.3101,-2.3101,-2.3101,-2.3101,-2.3101,-2.3101,-2.3101,-2.3101,-2.3101,-2.3101,-2.3101,-2.3101,-2.3101,-2.3057,-2.2969,-2.2794,-2.2627,-2.222,-2.1865,-2.132,-2.0736,-2.0147,-1.9424,-1.9424,-1.9424,-1.9424,-1.9424,-1.9591,-1.988,-2.0328,-2.0795,-2.1539,-2.2335,-2.3022,-2.3801,-2.4637,-2.5128,-2.5251,-2.5085,-2.5053,-2.4742,-2.4216,-2.4113,-2.4211,-2.4538,-2.4932,-2.5186,-2.5333,-2.5596,-2.5684,-2.5684,-2.5684,-2.5586,-2.5391,-2.501,-2.458,-2.415,-2.373,-2.3408,-2.314,-2.3101,-2.3101,-2.3101,-2.3101,-2.3101,-2.3101,-2.3101,-2.3101,-2.3101,-2.3101,-2.3101,-2.3101,-2.3101,-2.3101,-2.3101,-2.3101,-2.3101,-2.3101,-2.3101,-2.3101,-2.3101,-2.3101,-2.3101,-2.3101,-2.3101,-2.3101,-2.3101,-2.3101,-2.3101,-2.3101,-2.3101,-2.3101,-2.3101,-2.3101,-2.3101,-2.3101,-2.3101,-2.3101,-2.3101,-2.3101,-2.3101,-2.3101,-2.3101,-2.3101,-2.3101,-2.3101,-2.3101,-2.3101,-2.3101,-2.3101,-2.3101,-2.3091,-2.3071,-2.3042,-2.3023,-2.3013,-2.3033,-2.3042,-2.3071,-2.3081,-2.3101,-2.3101,-2.3101,-2.3101,-2.3101,-2.3101,-2.3101,-2.3101,-2.3013,-2.2882,-2.2706,-2.2451,-2.1998,-2.1508,-2.1006,-2.0365,-1.9783,-1.9424,-1.9424,-1.9424,-1.9424,-1.9424,-1.9424,-1.97,-2.0213,-2.0551,-2.1131,-2.1995,-2.2675,-2.3416,-2.4256,-2.4591,-2.4605,-2.443,-2.4499,-2.4097,-2.3729,-2.3705,-2.3994,-2.4341,-2.4677,-2.4932,-2.5177,-2.5489,-2.5635,-2.5635,-2.5635,-2.5488,-2.5137,-2.4687,-2.4173,-2.3767,-2.332,-2.3086,-2.3023,-2.3003,-2.3003,-2.3047,-2.3091,-2.3101,-2.3101,-2.3101,-2.3101,-2.3101,-2.3101,-2.3101,-2.3101,-2.3101,-2.3101,-2.3101,-2.3101,-2.3101,-2.3101,-2.3101,-2.3101,-2.3101,-2.3101,-2.3101,-2.3101,-2.3101,-2.3101,-2.3101,-2.3101,-2.3101,-2.3101,-2.3101,-2.3101,-2.3101,-2.3101,-2.3101,-2.3101,-2.3101,-2.3101,-2.3101,-2.3101,-2.3101,-2.3101,-2.3101,-2.3101,-2.3101,-2.3101,-2.3101,-2.3101,-2.3101,-2.3101,-2.3033,-2.2945,-2.2925,-2.2906,-2.2906,-2.2906,-2.2935,-2.2984,-2.3023,-2.3062,-2.3091,-2.3101,-2.3101,-2.3101,-2.3101,-2.3101,-2.3101,-2.3057,-2.3013,-2.2838,-2.2627,-2.222,-2.1687,-2.1239,-2.0781,-2.0011,-1.9371,-1.9424,-1.9424,-1.9424,-1.9424,-1.9424,-1.9424,-1.9591,-1.9931,-2.027,-2.0795,-2.1489,-2.2286,-2.2909,-2.34,-2.3955,-2.4147,-2.3815,-2.3904,-2.385,-2.3477,-2.3447,-2.3646,-2.3994,-2.4341,-2.4587,-2.4784,-2.5186,-2.5382,-2.543,-2.5499,-2.5508,-2.5049,-2.4526,-2.4062,-2.348,-2.305,-2.275,-2.2618,-2.275,-2.2838,-2.2882,-2.3013,-2.3101,-2.3101,-2.3101,-2.3101,-2.3101,-2.3101,-2.3101,-2.3101,-2.3101,-2.3101,-2.3101,-2.3101,-2.3101,-2.3101,-2.3101,-2.3101,-2.3101,-2.3101,-2.3101,-2.3101,-2.3101,-2.3101,-2.3101,-2.3101,-2.3101,-2.3101,-2.3101,-2.3101,-2.3101,-2.3101,-2.3101,-2.3101,-2.3101,-2.3101,-2.3101,-2.3101,-2.3101,-2.3101,-2.3101,-2.3101,-2.3101,-2.3101,-2.3101,-2.3101,-2.3081,-2.3091,-2.2955,-2.2779,-2.2672,-2.2604,-2.2549,-2.2519,-2.2604,-2.2691,-2.2881,-2.2998,-2.3033,-2.3101,-2.3101,-2.3101,-2.3101,-2.3101,-2.3101,-2.3057,-2.2935,-2.2618,-2.2353,-2.1865,-2.141,-2.0871,-2.0337,-1.9646,-1.8958,-1.9424,-1.9424,-1.9424,-1.9424,-1.9424,-1.9424,-1.9533,-1.9815,-2.0155,-2.063,-2.1261,-2.2059,-2.2626,-2.2982,-2.3359,-2.3432,-2.3174,-2.2988,-2.2952,-2.2904,-2.2979,-2.3188,-2.3605,-2.3895,-2.4143,-2.448,-2.4883,-2.5079,-2.5186,-2.5178,-2.4996,-2.4476,-2.4196,-2.3643,-2.3028,-2.2732,-2.2539,-2.2485,-2.253,-2.2618,-2.2662,-2.2847,-2.3013,-2.3101,-2.3101,-2.3101,-2.3101,-2.3101,-2.3101,-2.3101,-2.3101,-2.3101,-2.3101,-2.3101,-2.3101,-2.3101,-2.3101,-2.3101,-2.3101,-2.3101,-2.3101,-2.3101,-2.3101,-2.3101,-2.3101,-2.3101,-2.3101,-2.3101,-2.3101,-2.3101,-2.3101,-2.3101,-2.3101,-2.3101,-2.3101,-2.3101,-2.3101,-2.3101,-2.3101,-2.3101,-2.3101,-2.3101,-2.3101,-2.3101,-2.3071,-2.3062,-2.2769,-2.275,-2.2666,-2.249,-2.2295,-2.2178,-2.206,-2.2051,-2.2227,-2.2402,-2.2637,-2.2803,-2.2978,-2.3033,-2.3101,-2.3101,-2.3101,-2.3101,-2.3057,-2.2925,-2.2803,-2.2441,-2.2043,-2.1687,-2.1239,-2.0609,-1.992,-1.9325,-1.8581,-1.9424,-1.9424,-1.9424,-1.9424,-1.9424,-1.9424,-1.954,-1.9758,-2.0162,-2.0565,-2.1089,-2.1774,-2.2248,-2.2631,-2.2758,-2.2722,-2.2498,-2.2157,-2.2089,-2.2384,-2.2375,-2.2686,-2.3046,-2.3288,-2.3587,-2.4223,-2.4578,-2.4735,-2.4766,-2.4779,-2.4507,-2.3842,-2.3633,-2.3216,-2.2558,-2.2309,-2.2211,-2.2176,-2.222,-2.2264,-2.2353,-2.2583,-2.2794,-2.3013,-2.3101,-2.3101,-2.3101,-2.3101,-2.3101,-2.3101,-2.3101,-2.3101,-2.3101,-2.3101,-2.3101,-2.3101,-2.3101,-2.3101,-2.3101,-2.3101,-2.3101,-2.3101,-2.3101,-2.3101,-2.3101,-2.3101,-2.3101,-2.3101,-2.3101,-2.3101,-2.3101,-2.3101,-2.3101,-2.3101,-2.3101,-2.3101,-2.3101,-2.3101,-2.3101,-2.3101,-2.3101,-2.3101,-2.3101,-2.3091,-2.3062,-2.2955,-2.2652,-2.2432,-2.2305,-2.2119,-2.1885,-2.167,-2.1523,-2.1582,-2.1748,-2.21,-2.2334,-2.2607,-2.2822,-2.2945,-2.3052,-2.3101,-2.3101,-2.3057,-2.2969,-2.2838,-2.2574,-2.222,-2.1865,-2.1553,-2.0916,-2.0102,-1.9509,-1.8958,-1.8257,-1.9424,-1.9424,-1.9424,-1.9424,-1.9424,-1.9424,-1.9424,-1.954,-2.0046,-2.0328,-2.0565,-2.1375,-2.1681,-2.1696,-2.1955,-2.1985,-2.1813,-2.1571,-2.1615,-2.1768,-2.1818,-2.2072,-2.2333,-2.2577,-2.2887,-2.3279,-2.3777,-2.4125,-2.4211,-2.4291,-2.3993,-2.3654,-2.3314,-2.277,-2.2236,-2.1954,-2.1731,-2.1696,-2.1776,-2.182,-2.1954,-2.2264,-2.2618,-2.2838,-2.3013,-2.3101,-2.3101,-2.3101,-2.3101,-2.3101,-2.3101,-2.3101,-2.3101,-2.3101,-2.3101,-2.3101,-2.3101,-2.3101,-2.3101,-2.3101,-2.3101,-2.3101,-2.3101,-2.3101,-2.3101,-2.3101,-2.3101,-2.3101,-2.3101,-2.3101,-2.3101,-2.3101,-2.3101,-2.3101,-2.3101,-2.3101,-2.3101,-2.3101,-2.3101,-2.3101,-2.3101,-2.3091,-2.3081,-2.3003,-2.2877,-2.2682,-2.2412,-2.2139,-2.1943,-2.1689,-2.1396,-2.1182,-2.0967,-2.1103,-2.1229,-2.1699,-2.2051,-2.2373,-2.2617,-2.2861,-2.2935,-2.3062,-2.3101,-2.3013,-2.2838,-2.2662,-2.2353,-2.1954,-2.1463,-2.106,-2.0329,-1.9554,-1.905,-1.8542,-1.7885,-1.9424,-1.9424,-1.9424,-1.9424,-1.9424,-1.9424,-1.9424,-1.9482,-1.9815,-2.0155,-2.0507,-2.1074,-2.1368,-2.1264,-2.137,-2.1258,-2.0949,-2.085,-2.096,-2.107,-2.1224,-2.142,-2.1674,-2.1979,-2.2123,-2.2375,-2.2828,-2.3205,-2.339,-2.3608,-2.335,-2.2889,-2.2594,-2.2271,-2.1832,-2.1463,-2.1284,-2.1239,-2.1284,-2.1419,-2.1553,-2.1998,-2.2407,-2.2759,-2.2882,-2.3013,-2.3101,-2.3101,-2.3101,-2.3101,-2.3101,-2.3101,-2.3101,-2.3101,-2.3101,-2.3101,-2.3101,-2.3101,-2.3101,-2.3101,-2.3101,-2.3101,-2.3101,-2.3101,-2.3101,-2.3101,-2.3101,-2.3101,-2.3101,-2.3101,-2.3101,-2.3101,-2.3101,-2.3101,-2.3101,-2.3101,-2.3101,-2.3101,-2.3101,-2.3091,-2.3071,-2.3052,-2.3042,-2.2916,-2.2701,-2.2461,-2.2119,-2.1846,-2.1582,-2.1299,-2.0986,-2.0889,-2.0742,-2.0801,-2.0967,-2.1279,-2.1787,-2.2139,-2.2412,-2.2656,-2.2862,-2.2965,-2.2969,-2.2882,-2.2706,-2.2441,-2.1998,-2.1508,-2.106,-2.051,-1.9783,-1.9096,-1.8589,-1.8071,-1.7419,-1.9424,-1.9424,-1.9424,-1.9424,-1.9424,-1.9424,-1.9424,-1.9482,-1.9707,-1.9924,-2.0277,-2.0773,-2.104,-2.0929,-2.0777,-2.0567,-2.0086,-2.0138,-2.03,-2.0454,-2.066,-2.0858,-2.1062,-2.1326,-2.1479,-2.1514,-2.1728,-2.2129,-2.2605,-2.2752,-2.2467,-2.2158,-2.1887,-2.1671,-2.1338,-2.1051,-2.0916,-2.0907,-2.0871,-2.1015,-2.1428,-2.1839,-2.2283,-2.2715,-2.2759,-2.2882,-2.3091,-2.3101,-2.3101,-2.3101,-2.3101,-2.3101,-2.3101,-2.3101,-2.3101,-2.3101,-2.3101,-2.3101,-2.3101,-2.3101,-2.3101,-2.3101,-2.3101,-2.3101,-2.3101,-2.3101,-2.3101,-2.3101,-2.3101,-2.3101,-2.3101,-2.3101,-2.3101,-2.3101,-2.3101,-2.3101,-2.3101,-2.3101,-2.3101,-2.3081,-2.3042,-2.2925,-2.2818,-2.2578,-2.2305,-2.198,-2.1689,-2.1416,-2.1162,-2.0928,-2.0703,-2.0703,-2.0644,-2.0644,-2.0723,-2.0879,-2.1416,-2.1943,-2.2207,-2.2409,-2.2683,-2.2925,-2.2794,-2.2618,-2.2397,-2.2043,-2.1597,-2.106,-2.0564,-1.9965,-1.9279,-1.8635,-1.8079,-1.7606,-1.7052,-1.9424,-1.9424,-1.9424,-1.9424,-1.9424,-1.9424,-1.9424,-1.9424,-1.9649,-1.9815,-1.9931,-2.0465,-2.0472,-2.0146,-1.9954,-2.0,-2.0005,-2.0034,-2.0034,-2.0094,-2.0189,-2.0241,-2.0292,-2.0506,-2.0712,-2.0759,-2.0917,-2.1412,-2.1818,-2.1908,-2.1837,-2.1545,-2.1217,-2.105,-2.0942,-2.0564,-2.0518,-2.0645,-2.051,-2.0699,-2.1347,-2.1839,-2.2185,-2.2451,-2.2662,-2.2882,-2.3047,-2.3101,-2.3101,-2.3101,-2.3101,-2.3101,-2.3101,-2.3101,-2.3101,-2.3101,-2.3101,-2.3101,-2.3101,-2.3101,-2.3101,-2.3101,-2.3101,-2.3101,-2.3101,-2.3101,-2.3101,-2.3101,-2.3101,-2.3101,-2.3101,-2.3101,-2.3101,-2.3101,-2.3101,-2.3101,-2.3101,-2.3091,-2.3091,-2.2847,-2.274,-2.2574,-2.2428,-2.2148,-2.1836,-2.1543,-2.1229,-2.1016,-2.082,-2.0654,-2.0615,-2.0615,-2.0615,-2.0615,-2.0615,-2.0723,-2.1172,-2.1758,-2.198,-2.222,-2.2577,-2.2759,-2.2397,-2.2176,-2.1954,-2.1588,-2.1096,-2.06,-2.0056,-1.9463,-1.8819,-1.8172,-1.752,-1.7052,-1.6622,-1.9424,-1.9424,-1.9424,-1.9424,-1.9424,-1.9424,-1.9424,-1.9424,-1.9533,-1.9649,-1.9873,-2.0263,-2.0267,-1.9983,-1.967,-1.9539,-1.9628,-1.968,-1.9628,-1.968,-1.9783,-1.9879,-1.9983,-2.0145,-2.03,-2.0192,-2.0214,-2.0281,-2.0712,-2.0943,-2.0946,-2.0675,-2.0486,-2.0391,-2.0419,-2.0073,-1.999,-2.0073,-2.0201,-2.0609,-2.1105,-2.1517,-2.1919,-2.2353,-2.253,-2.275,-2.3013,-2.3101,-2.3101,-2.3101,-2.3101,-2.3101,-2.3101,-2.3101,-2.3101,-2.3101,-2.3101,-2.3101,-2.3101,-2.3101,-2.3101,-2.3101,-2.3101,-2.3101,-2.3101,-2.3101,-2.3101,-2.3101,-2.3101,-2.3101,-2.3101,-2.3101,-2.3101,-2.3101,-2.3101,-2.3101,-2.3091,-2.3081,-2.3013,-2.2711,-2.2409,-2.212,-2.1887,-2.1576,-2.1384,-2.1228,-2.0975,-2.0771,-2.0693,-2.0664,-2.0615,-2.0615,-2.0615,-2.0615,-2.0615,-2.0683,-2.1083,-2.158,-2.1834,-2.211,-2.2558,-2.2583,-2.222,-2.1767,-2.1401,-2.1042,-2.0583,-2.0104,-1.9579,-1.8972,-1.8357,-1.7717,-1.7047,-1.668,-1.6311,-1.9424,-1.9424,-1.9424,-1.9424,-1.9424,-1.9424,-1.9424,-1.9424,-1.9424,-1.954,-1.971,-1.9931,-2.004,-1.9968,-1.9555,-1.9279,-1.9175,-1.9175,-1.9116,-1.9168,-1.9264,-1.9309,-1.9361,-1.9569,-1.962,-1.9692,-1.9381,-1.9376,-1.9483,-1.9684,-1.9818,-1.9808,-1.9916,-1.9891,-1.9799,-1.9662,-1.9579,-1.9725,-2.0209,-2.0609,-2.1006,-2.1338,-2.182,-2.222,-2.2441,-2.2608,-2.3003,-2.3101,-2.3101,-2.3101,-2.3101,-2.3101,-2.3101,-2.3101,-2.3101,-2.3101,-2.3101,-2.3101,-2.3101,-2.3101,-2.3101,-2.3101,-2.3101,-2.3101,-2.3013,-2.3013,-2.2969,-2.2872,-2.2882,-2.2925,-2.3013,-2.3013,-2.3047,-2.3047,-2.3101,-2.3101,-2.3091,-2.3003,-2.2805,-2.2465,-2.2055,-2.1498,-2.1207,-2.0989,-2.0825,-2.0826,-2.0682,-2.0498,-2.045,-2.0411,-2.0411,-2.0333,-2.0333,-2.0333,-2.0372,-2.0517,-2.1002,-2.1392,-2.1644,-2.1984,-2.237,-2.2299,-2.1945,-2.149,-2.0998,-2.0292,-1.974,-1.9447,-1.9096,-1.827,-1.7514,-1.711,-1.6604,-1.6239,-1.5966,-1.9424,-1.9424,-1.9424,-1.9424,-1.9424,-1.9424,-1.9424,-1.9424,-1.9424,-1.9424,-1.9516,-1.9451,-1.9631,-1.9704,-1.9517,-1.9175,-1.8928,-1.8921,-1.8803,-1.8639,-1.8527,-1.8632,-1.8684,-1.8708,-1.8653,-1.8644,-1.8569,-1.8486,-1.8371,-1.8518,-1.8969,-1.9496,-1.9396,-1.9541,-1.9533,-1.9342,-1.9396,-1.9671,-2.0164,-2.069,-2.1042,-2.141,-2.1874,-2.2264,-2.2441,-2.2618,-2.3057,-2.3101,-2.3101,-2.3101,-2.3101,-2.3057,-2.3057,-2.3057,-2.3057,-2.296,-2.296,-2.296,-2.2969,-2.3057,-2.3101,-2.3101,-2.3057,-2.2969,-2.2847,-2.2803,-2.2706,-2.2564,-2.2574,-2.2618,-2.2759,-2.2838,-2.2882,-2.2916,-2.2916,-2.2916,-2.2882,-2.2838,-2.2601,-2.2207,-2.17,-2.1126,-2.0526,-2.0261,-2.0316,-2.0327,-2.0278,-2.0069,-2.0059,-2.002,-2.002,-1.9981,-1.9981,-1.9981,-1.999,-2.0239,-2.0606,-2.1048,-2.1393,-2.176,-2.2114,-2.1898,-2.1722,-2.106,-2.0526,-1.9711,-1.8937,-1.8552,-1.8029,-1.7274,-1.6717,-1.6423,-1.6011,-1.5622,-1.5399,-1.9236,-1.9424,-1.9424,-1.9424,-1.9424,-1.9424,-1.9424,-1.9424,-1.9424,-1.9482,-1.9608,-1.9424,-1.9463,-1.9628,-1.9442,-1.9175,-1.8928,-1.8876,-1.8653,-1.8482,-1.8422,-1.8422,-1.8422,-1.8321,-1.832,-1.8157,-1.8053,-1.804,-1.7967,-1.7871,-1.8125,-1.855,-1.8697,-1.8797,-1.8789,-1.902,-1.925,-1.9625,-2.0027,-2.0419,-2.0997,-2.1329,-2.1785,-2.2353,-2.2397,-2.2662,-2.3003,-2.3091,-2.3101,-2.3101,-2.3101,-2.3013,-2.2925,-2.2925,-2.2838,-2.274,-2.2696,-2.2696,-2.2794,-2.2925,-2.3057,-2.2882,-2.2794,-2.2618,-2.253,-2.253,-2.252,-2.2432,-2.2353,-2.2353,-2.2485,-2.2574,-2.2574,-2.2662,-2.2696,-2.2696,-2.2662,-2.2574,-2.2134,-2.1646,-2.1212,-2.0711,-2.0118,-1.954,-1.9683,-1.9843,-1.9764,-1.9676,-1.9636,-1.9636,-1.9627,-1.9666,-1.9676,-1.9715,-1.9715,-1.9984,-2.0224,-2.0618,-2.108,-2.1418,-2.1704,-2.1828,-2.1552,-2.0811,-2.0016,-1.9159,-1.8397,-1.7707,-1.7108,-1.6588,-1.6165,-1.5838,-1.5425,-1.503,-1.4908,-1.9055,-1.9243,-1.9359,-1.9424,-1.9424,-1.9424,-1.9424,-1.9424,-1.9424,-1.9475,-1.9659,-1.9417,-1.9401,-1.9512,-1.9322,-1.9026,-1.8764,-1.8608,-1.8384,-1.822,-1.8108,-1.816,-1.8126,-1.8015,-1.7829,-1.7726,-1.7576,-1.749,-1.7402,-1.7443,-1.7604,-1.7761,-1.7846,-1.804,-1.8419,-1.8612,-1.9028,-1.9487,-1.9845,-2.0283,-2.0907,-2.1284,-2.166,-2.222,-2.2309,-2.253,-2.2794,-2.2916,-2.2925,-2.2925,-2.2872,-2.2784,-2.274,-2.2662,-2.2564,-2.2476,-2.2388,-2.2388,-2.2485,-2.2618,-2.2838,-2.2662,-2.2441,-2.2309,-2.2211,-2.2132,-2.1998,-2.19,-2.1945,-2.2043,-2.2132,-2.2176,-2.2309,-2.2397,-2.2485,-2.252,-2.2353,-2.2236,-2.159,-2.1029,-2.0583,-2.0154,-1.9448,-1.8869,-1.902,-1.9192,-1.925,-1.921,-1.921,-1.921,-1.928,-1.932,-1.9359,-1.9439,-1.9536,-1.95,-1.9549,-1.9952,-2.0402,-2.0875,-2.1158,-2.128,-2.1122,-2.0368,-1.9519,-1.8665,-1.7833,-1.7021,-1.65,-1.6089,-1.5609,-1.5094,-1.4895,-1.4559,-1.4613,-1.8874,-1.8933,-1.9249,-1.9424,-1.9424,-1.9424,-1.9424,-1.9424,-1.9424,-1.9424,-1.9459,-1.9291,-1.9229,-1.9261,-1.9035,-1.8719,-1.8436,-1.8181,-1.7964,-1.7793,-1.7793,-1.7687,-1.7593,-1.7497,-1.7408,-1.7084,-1.6973,-1.6898,-1.6692,-1.6954,-1.7073,-1.716,-1.734,-1.766,-1.8087,-1.8381,-1.8897,-1.9541,-1.9799,-2.0283,-2.0871,-2.1248,-2.1651,-2.1963,-2.2141,-2.2407,-2.2662,-2.2662,-2.2662,-2.275,-2.2564,-2.2432,-2.2397,-2.2353,-2.2264,-2.222,-2.2255,-2.2299,-2.2344,-2.2388,-2.2299,-2.2264,-2.2043,-2.1856,-2.1687,-2.1562,-2.1329,-2.123,-2.1177,-2.132,-2.1508,-2.1731,-2.1954,-2.2043,-2.2122,-2.2078,-2.19,-2.1758,-2.1124,-2.0467,-1.9996,-1.9512,-1.8778,-1.8282,-1.8331,-1.8491,-1.866,-1.87,-1.8692,-1.8732,-1.8723,-1.8803,-1.8882,-1.8882,-1.8891,-1.8812,-1.89,-1.9324,-1.9755,-2.0198,-2.0381,-2.0429,-2.0175,-1.9738,-1.8961,-1.7985,-1.7143,-1.6331,-1.5845,-1.5369,-1.4779,-1.4307,-1.4211,-1.4195,-1.4295,-1.835,-1.8881,-1.8997,-1.9185,-1.9366,-1.9424,-1.9424,-1.9424,-1.9424,-1.9424,-1.9354,-1.9179,-1.9023,-1.8939,-1.8705,-1.8429,-1.8174,-1.8069,-1.7859,-1.7641,-1.7589,-1.7641,-1.7541,-1.732,-1.7082,-1.685,-1.6715,-1.6498,-1.6373,-1.6595,-1.6683,-1.6777,-1.7059,-1.7481,-1.7994,-1.8381,-1.8851,-1.9496,-1.9845,-2.0201,-2.0781,-2.1159,-2.1526,-2.182,-2.1963,-2.2185,-2.2441,-2.2353,-2.2353,-2.2441,-2.2264,-2.2087,-2.1954,-2.1874,-2.1696,-2.1544,-2.1481,-2.1436,-2.1445,-2.1401,-2.1419,-2.1508,-2.1499,-2.1275,-2.106,-2.097,-2.0789,-2.0645,-2.069,-2.0835,-2.1015,-2.1186,-2.1365,-2.1365,-2.1356,-2.1356,-2.1266,-2.1078,-2.0695,-1.9982,-1.9409,-1.8692,-1.7985,-1.7571,-1.7595,-1.7676,-1.7838,-1.8,-1.8031,-1.8031,-1.8072,-1.8201,-1.8282,-1.8282,-1.825,-1.825,-1.8435,-1.8839,-1.9191,-1.9545,-1.9648,-1.9592,-1.9359,-1.9025,-1.8177,-1.7343,-1.6583,-1.5819,-1.5161,-1.4593,-1.4264,-1.4088,-1.4115,-1.4122,-1.4142,-1.8006,-1.8706,-1.8874,-1.9062,-1.9366,-1.9424,-1.9424,-1.9424,-1.9424,-1.9424,-1.9354,-1.9032,-1.8913,-1.8796,-1.8438,-1.822,-1.8016,-1.7859,-1.7806,-1.7589,-1.7589,-1.7589,-1.7475,-1.7201,-1.6945,-1.6677,-1.6459,-1.6238,-1.6082,-1.6353,-1.6494,-1.6683,-1.6871,-1.7246,-1.7761,-1.8141,-1.8658,-1.9158,-1.9517,-1.9928,-2.0428,-2.0843,-2.1159,-2.141,-2.1588,-2.182,-2.1954,-2.1989,-2.1989,-2.1954,-2.182,-2.1588,-2.1374,-2.1239,-2.1024,-2.0826,-2.0772,-2.0727,-2.0591,-2.0555,-2.0564,-2.0518,-2.06,-2.0555,-2.0428,-2.0346,-2.0255,-2.0164,-2.0255,-2.0382,-2.051,-2.069,-2.0781,-2.0826,-2.0871,-2.0907,-2.0682,-2.0546,-2.0018,-1.9331,-1.8726,-1.7987,-1.7318,-1.7031,-1.6779,-1.6902,-1.6976,-1.7131,-1.7294,-1.7375,-1.7424,-1.7546,-1.7668,-1.7668,-1.7708,-1.7749,-1.8014,-1.8382,-1.8619,-1.8799,-1.886,-1.8786,-1.8575,-1.8297,-1.758,-1.6836,-1.6046,-1.5333,-1.4853,-1.4474,-1.4215,-1.4124,-1.4088,-1.4088,-1.4088,-1.7778,-1.8363,-1.8758,-1.9062,-1.9366,-1.9366,-1.9424,-1.9424,-1.9424,-1.9417,-1.935,-1.8991,-1.8775,-1.8714,-1.827,-1.7978,-1.7905,-1.7694,-1.7641,-1.7589,-1.7589,-1.7589,-1.7395,-1.7041,-1.6807,-1.6533,-1.6268,-1.6007,-1.5879,-1.6076,-1.6312,-1.6548,-1.6737,-1.7012,-1.7333,-1.7753,-1.8311,-1.8773,-1.915,-1.9563,-2.0065,-2.0337,-2.06,-2.0817,-2.1006,-2.115,-2.1239,-2.1186,-2.1239,-2.1195,-2.1105,-2.0871,-2.0736,-2.0699,-2.0473,-2.0292,-2.0201,-2.0056,-1.992,-1.9837,-1.9646,-1.9554,-1.9654,-1.9745,-1.9799,-1.9617,-1.9525,-1.9487,-1.9579,-1.9845,-2.0065,-2.0246,-2.0428,-2.0518,-2.06,-2.0464,-2.0238,-1.9822,-1.9231,-1.8622,-1.8089,-1.7403,-1.6682,-1.6286,-1.6154,-1.6079,-1.6113,-1.6147,-1.6353,-1.673,-1.6771,-1.6812,-1.6935,-1.7057,-1.7098,-1.7139,-1.7294,-1.7532,-1.7697,-1.7863,-1.7937,-1.7954,-1.7737,-1.7407,-1.6972,-1.6317,-1.5541,-1.4992,-1.4622,-1.4328,-1.4124,-1.4124,-1.4088,-1.4088,-1.4088,-1.7009,-1.7778,-1.8298,-1.8765,-1.9062,-1.9307,-1.9424,-1.9424,-1.9424,-1.9265,-1.9025,-1.8769,-1.8529,-1.8245,-1.7862,-1.7728,-1.7694,-1.7635,-1.7641,-1.7589,-1.7589,-1.7589,-1.7375,-1.7021,-1.678,-1.6506,-1.6186,-1.5825,-1.5825,-1.5933,-1.6076,-1.6312,-1.6461,-1.6588,-1.6911,-1.7286,-1.7885,-1.8404,-1.8681,-1.9142,-1.9509,-1.9783,-2.0011,-2.0192,-2.0374,-2.0518,-2.0564,-2.051,-2.0518,-2.051,-2.0337,-2.0155,-2.0155,-1.9828,-1.9509,-1.9288,-1.9242,-1.9188,-1.9096,-1.9004,-1.8812,-1.8673,-1.8681,-1.8727,-1.8819,-1.8827,-1.8781,-1.8835,-1.8982,-1.9296,-1.9517,-1.97,-1.9891,-2.0027,-2.0019,-1.9837,-1.9608,-1.9252,-1.8635,-1.7858,-1.7302,-1.6665,-1.5974,-1.5733,-1.5575,-1.5416,-1.5333,-1.5367,-1.5484,-1.5906,-1.6113,-1.6154,-1.6286,-1.636,-1.6402,-1.6443,-1.6566,-1.6688,-1.693,-1.7077,-1.7111,-1.7111,-1.6889,-1.6635,-1.6324,-1.5714,-1.4985,-1.4608,-1.4447,-1.4292,-1.4124,-1.4088,-1.4088,-1.4088,-1.4088,-1.6506,-1.7398,-1.8085,-1.859,-1.8897,-1.9128,-1.9138,-1.9058,-1.9138,-1.9032,-1.8731,-1.843,-1.821,-1.8036,-1.7742,-1.7641,-1.7641,-1.7641,-1.7589,-1.7589,-1.7589,-1.7589,-1.7388,-1.7034,-1.676,-1.6493,-1.6192,-1.5825,-1.5825,-1.5825,-1.5927,-1.6021,-1.6123,-1.6265,-1.6541,-1.6864,-1.7239,-1.7753,-1.8172,-1.8589,-1.8912,-1.9188,-1.9325,-1.9517,-1.97,-1.9737,-1.9828,-1.9828,-1.9783,-1.9783,-1.9608,-1.9425,-1.9325,-1.8958,-1.8727,-1.855,-1.855,-1.8589,-1.855,-1.8319,-1.8172,-1.7986,-1.78,-1.7714,-1.7939,-1.8079,-1.8172,-1.8319,-1.8558,-1.8743,-1.8974,-1.9158,-1.9296,-1.9487,-1.935,-1.9204,-1.8928,-1.8689,-1.7947,-1.7104,-1.6434,-1.5821,-1.5398,-1.5222,-1.511,-1.5033,-1.495,-1.4943,-1.5026,-1.5193,-1.536,-1.5401,-1.5575,-1.5707,-1.5748,-1.5865,-1.6031,-1.6196,-1.6399,-1.6472,-1.6409,-1.6376,-1.6299,-1.6076,-1.5741,-1.5186,-1.4734,-1.4566,-1.4356,-1.4201,-1.4088,-1.4088,-1.4088,-1.4088,-1.4088,-1.6195,-1.7074,-1.7954,-1.8531,-1.8855,-1.8891,-1.8731,-1.8504,-1.8724,-1.8711,-1.843,-1.8122,-1.7989,-1.7903,-1.7689,-1.7595,-1.7589,-1.7589,-1.7589,-1.7589,-1.7589,-1.7589,-1.7428,-1.7054,-1.682,-1.654,-1.6233,-1.5912,-1.5838,-1.5825,-1.5825,-1.5825,-1.6021,-1.617,-1.6211,-1.6447,-1.673,-1.6918,-1.7473,-1.7986,-1.8265,-1.845,-1.8542,-1.8735,-1.8827,-1.8866,-1.9004,-1.8966,-1.8874,-1.892,-1.892,-1.8689,-1.8404,-1.8172,-1.804,-1.79,-1.7846,-1.7846,-1.78,-1.766,-1.7473,-1.7286,-1.7113,-1.7012,-1.7192,-1.7527,-1.7714,-1.7854,-1.8048,-1.8288,-1.8512,-1.8697,-1.8881,-1.8928,-1.8835,-1.8596,-1.8311,-1.788,-1.7213,-1.647,-1.593,-1.5333,-1.4951,-1.4768,-1.4734,-1.4657,-1.4615,-1.4573,-1.4615,-1.4699,-1.4817,-1.4859,-1.5075,-1.5242,-1.5318,-1.5443,-1.5616,-1.5782,-1.5873,-1.5873,-1.5741,-1.5741,-1.5824,-1.5526,-1.5193,-1.4943,-1.4608,-1.444,-1.4279,-1.4166,-1.4088,-1.4088,-1.4088,-1.4088,-1.4088,-1.5302,-1.6214,-1.7303,-1.8084,-1.8542,-1.8597,-1.8424,-1.8109,-1.8162,-1.8175,-1.8143,-1.8009,-1.7916,-1.7709,-1.7642,-1.7589,-1.7589,-1.7589,-1.7589,-1.7589,-1.7589,-1.7589,-1.7581,-1.7239,-1.6971,-1.6647,-1.6346,-1.5999,-1.5865,-1.5825,-1.5825,-1.5825,-1.5927,-1.5927,-1.5974,-1.6218,-1.6312,-1.6359,-1.673,-1.7239,-1.7567,-1.7807,-1.7994,-1.8133,-1.8265,-1.8265,-1.8311,-1.8311,-1.8272,-1.8319,-1.8319,-1.8032,-1.7606,-1.7387,-1.716,-1.7012,-1.7052,-1.7099,-1.7099,-1.7005,-1.6911,-1.6817,-1.673,-1.6676,-1.6777,-1.7113,-1.7301,-1.7441,-1.7636,-1.7869,-1.8094,-1.828,-1.8411,-1.8365,-1.8272,-1.7986,-1.7652,-1.7091,-1.6464,-1.5972,-1.5442,-1.5033,-1.4641,-1.444,-1.4356,-1.4328,-1.425,-1.425,-1.4292,-1.4328,-1.4531,-1.4615,-1.4692,-1.4859,-1.4894,-1.4977,-1.5193,-1.5193,-1.5242,-1.5159,-1.5117,-1.52,-1.5284,-1.4985,-1.4692,-1.4566,-1.4447,-1.4286,-1.4166,-1.413,-1.4088,-1.4088,-1.4088,-1.4088,-1.4088,-1.4663,-1.5574,-1.6981,-1.7857,-1.8255,-1.829,-1.8069,-1.7869,-1.7842,-1.7842,-1.7842,-1.7829,-1.7742,-1.7589,-1.7589,-1.7589,-1.7589,-1.7589,-1.7589,-1.7589,-1.7589,-1.7589,-1.7514,-1.7347,-1.7032,-1.6687,-1.6273,-1.5959,-1.5845,-1.5825,-1.5825,-1.5825,-1.5825,-1.5825,-1.5832,-1.5974,-1.6028,-1.6028,-1.6211,-1.6494,-1.6864,-1.7106,-1.7246,-1.7426,-1.7473,-1.752,-1.7527,-1.7527,-1.7527,-1.7527,-1.7481,-1.7333,-1.7052,-1.6918,-1.6777,-1.6683,-1.6683,-1.6588,-1.6588,-1.6494,-1.64,-1.64,-1.6251,-1.6204,-1.6258,-1.6541,-1.6878,-1.7066,-1.7542,-1.7822,-1.7908,-1.8094,-1.8094,-1.8048,-1.7807,-1.7512,-1.7138,-1.6664,-1.6127,-1.5624,-1.5221,-1.4861,-1.4523,-1.4243,-1.4201,-1.4201,-1.413,-1.413,-1.4088,-1.4088,-1.4243,-1.4363,-1.4447,-1.4524,-1.4601,-1.465,-1.4734,-1.4692,-1.465,-1.4776,-1.4859,-1.4776,-1.4692,-1.4566,-1.4489,-1.4405,-1.4286,-1.4166,-1.413,-1.4088,-1.4088,-1.4088,-1.4088,-1.4088,-1.4088,-1.4201,-1.528,-1.6815,-1.7676,-1.7955,-1.7935,-1.7842,-1.7622,-1.7595,-1.7595,-1.7609,-1.7615,-1.7589,-1.7589,-1.7589,-1.7589,-1.7589,-1.7589,-1.7589,-1.7589,-1.7589,-1.7589,-1.7502,-1.7335,-1.7048,-1.6627,-1.6152,-1.5965,-1.5832,-1.5825,-1.5825,-1.5825,-1.5825,-1.5825,-1.5825,-1.5825,-1.5832,-1.5879,-1.592,-1.5974,-1.6218,-1.6407,-1.6588,-1.6636,-1.6636,-1.673,-1.6831,-1.6831,-1.6784,-1.6784,-1.6824,-1.6683,-1.6581,-1.6494,-1.6447,-1.64,-1.64,-1.64,-1.64,-1.6265,-1.617,-1.6076,-1.5879,-1.5825,-1.5879,-1.6116,-1.6501,-1.6831,-1.7301,-1.7581,-1.7675,-1.7761,-1.7721,-1.7581,-1.734,-1.7052,-1.6676,-1.6332,-1.5867,-1.5359,-1.5065,-1.4764,-1.4465,-1.4188,-1.4088,-1.4088,-1.4088,-1.4088,-1.4088,-1.4088,-1.4166,-1.4208,-1.425,-1.4328,-1.4356,-1.4398,-1.4447,-1.4447,-1.4447,-1.4566,-1.4608,-1.4531,-1.4447,-1.4405,-1.4321,-1.4243,-1.4208,-1.4124,-1.4088,-1.4088,-1.4088,-1.4088,-1.4088,-1.4088,-1.4088,-1.4072,-1.5809,-1.6555,-1.719,-1.7629,-1.7682,-1.7635,-1.7595,-1.7589,-1.7589,-1.7589,-1.7589,-1.7589,-1.7589,-1.7589,-1.7589,-1.7589,-1.7589,-1.7589,-1.7589,-1.7589,-1.7589,-1.7515,-1.7341,-1.7134,-1.6673,-1.6166,-1.5885,-1.5825,-1.5825,-1.5825,-1.5825,-1.5825,-1.5825,-1.5825,-1.5825,-1.5825,-1.5825,-1.5825,-1.5879,-1.5927,-1.6163,-1.6407,-1.6501,-1.6588,-1.6636,-1.6629,-1.6629,-1.6629,-1.6588,-1.6454,-1.6312,-1.6218,-1.6163,-1.6069,-1.6116,-1.6062,-1.6062,-1.6021,-1.6021,-1.5974,-1.5927,-1.5825,-1.5825,-1.5879,-1.6021,-1.6265,-1.6414,-1.6831,-1.7153,-1.7293,-1.738,-1.7333,-1.7066,-1.6784,-1.6595,-1.6265,-1.6028,-1.5758,-1.5382,-1.512,-1.4834,-1.4502,-1.4282,-1.4088,-1.4088,-1.4088,-1.4088,-1.4088,-1.4088,-1.4088,-1.4088,-1.4088,-1.4088,-1.4166,-1.4201,-1.425,-1.4243,-1.4243,-1.4328,-1.4328,-1.4208,-1.4166,-1.4201,-1.4201,-1.4166,-1.4088,-1.4088,-1.4088,-1.4088,-1.4088,-1.4088,-1.4088,-1.4088,-1.4088]}]]